GFSNW_925_thetae_000.txt.gz
Theta_e
314 315 315 314 313 317 321 324 316 320 324 319 316 315 317 314 317 318 319 319 319 320 320 321 321 322 319 317 317 320 318 314 316 319 316 317 318 319 318 315 321 315 315 322
314 315 315 315 314 315 318 319 319 324 324 312 309 317 318 317 319 318 319 319 318 319 320 320 320 320 318 316 318 318 317 313 314 316 315 316 319 318 317 316 310 316 312 316
314 315 315 315 315 315 319 314 314 315 315 316 316 318 319 318 317 317 318 319 318 318 320 318 318 320 319 317 318 316 314 316 315 316 316 318 319 319 317 316 308 317 318 317
315 315 315 315 315 317 322 314 314 316 313 315 315 318 320 320 320 318 317 319 319 319 317 316 320 319 318 317 316 317 315 316 316 316 317 318 319 319 319 318 315 315 315 314
315 315 315 315 315 321 317 315 317 315 316 318 316 313 318 319 317 319 318 319 319 318 321 319 321 319 318 318 317 317 315 313 315 318 318 318 318 318 316 315 315 314 314 313
314 315 314 315 315 322 319 319 318 313 310 312 311 312 318 318 318 318 316 317 316 313 319 317 316 316 316 316 317 314 315 308 309 318 313 314 317 314 313 313 312 312 312 312
315 315 314 314 315 322 321 318 316 307 308 304 312 318 317 317 317 318 317 315 311 316 315 313 310 308 309 312 313 314 308 306 307 313 314 320 315 312 312 312 312 312 315 314
315 315 314 314 314 319 321 320 318 306 306 307 314 318 317 316 315 317 318 318 315 313 308 307 306 305 305 305 314 316 312 309 311 312 317 315 314 313 314 314 313 313 314 314
316 315 315 315 315 315 321 320 319 310 306 309 317 316 316 310 312 310 317 315 314 308 304 303 304 305 308 312 312 313 309 304 305 311 315 317 310 310 313 314 314 313 313 313
315 315 316 315 315 315 319 321 320 317 307 313 316 312 312 313 309 311 307 316 309 308 308 308 311 308 311 311 306 305 304 308 307 300 307 307 308 310 312 309 311 310 311 312
315 315 315 316 315 315 315 319 320 318 309 312 317 317 316 315 310 308 310 311 306 306 309 309 307 312 307 310 310 309 308 306 310 307 313 315 311 312 312 310 308 309 309 309
315 315 315 316 316 315 315 316 318 318 316 312 318 318 318 319 315 312 309 311 310 306 306 306 300 310 309 304 314 311 314 310 309 308 309 308 309 311 309 310 310 308 310 310
315 315 315 316 316 315 314 315 317 317 304 309 312 313 315 316 317 317 310 302 312 311 307 304 306 311 308 315 313 312 311 310 309 310 311 310 309 310 310 308 308 310 309 308
314 315 315 315 316 315 314 314 315 315 307 304 309 313 314 314 314 315 317 315 314 314 309 305 306 310 310 311 313 313 312 312 312 312 311 310 310 308 309 310 309 306 305 305
314 314 315 315 315 315 314 313 313 314 314 307 306 310 312 314 315 315 315 315 313 305 308 304 309 305 308 305 305 310 311 312 313 314 311 311 311 310 307 306 304 302 301 301
313 313 313 313 313 313 312 308 312 312 314 306 309 308 309 312 312 312 312 313 311 312 309 305 306 308 309 309 311 310 310 311 312 313 311 310 309 306 305 304 304 303 303 301
311 311 312 312 312 312 311 309 309 311 312 301 307 306 301 305 307 307 308 310 309 311 311 307 308 308 312 306 315 312 310 309 310 310 309 309 306 305 302 301 301 300 300 301
309 311 310 311 309 308 307 308 310 310 312 303 307 306 304 305 302 301 300 300 302 308 310 304 306 306 304 310 312 309 309 309 308 308 305 304 303 301 300 299 299 299 298 299
306 307 308 305 305 305 305 307 308 308 307 305 301 307 309 304 302 299 299 300 304 301 303 304 306 304 310 309 309 308 307 306 305 302 301 301 300 299 300 299 298 299 297 297
305 305 303 298 302 303 304 304 299 298 296 298 302 300 306 306 300 301 301 299 302 305 303 302 305 308 307 307 307 307 303 303 302 301 302 301 298 296 296 296 296 294 293 294
301 299 297 301 302 302 298 299 301 300 301 298 298 300 304 301 304 303 299 302 301 303 297 304 297 302 302 302 302 301 301 301 300 298 296 295 295 295 295 293 294 293 292 291
301 301 301 301 301 299 302 301 299 301 301 298 300 300 302 299 301 300 299 300 299 302 295 301 302 297 299 300 298 298 296 296 296 295 295 295 295 294 294 293 292 292 292 292
301 299 298 300 298 303 301 302 302 300 300 299 300 301 299 298 297 299 297 300 299 290 300 301 295 298 298 298 298 298 297 296 295 295 295 295 295 295 293 292 293 292 291 292
295 296 298 299 297 297 296 297 298 298 298 298 298 299 297 294 291 295 298 294 291 296 300 295 293 296 296 296 296 295 295 292 290 293 295 294 293 292 293 291 290 290 291 292
293 293 294 293 294 294 296 296 297 296 296 297 296 295 293 290 290 287 289 291 298 297 293 290 291 294 294 294 294 293 290 289 289 294 293 293 292 290 292 294 294 292 292 290
290 291 289 292 294 295 295 296 297 295 293 289 291 291 289 289 287 289 288 290 292 290 286 288 290 293 292 292 291 292 292 292 293 294 294 293 292 291 291 293 292 291 290 290
288 287 291 289 291 288 295 291 296 296 295 289 287 289 292 288 285 288 291 289 288 287 288 289 290 292 292 291 292 292 292 292 292 292 292 291 292 292 289 290 291 292 291 291

GFSNW_925_thetae_003.txt.gz
Theta_e
313 315 314 314 314 319 325 318 315 323 321 318 311 313 315 314 317 316 317 317 318 320 319 320 320 321 319 316 317 318 316 313 314 317 314 315 317 317 315 318 317 313 310 318
313 314 314 314 314 318 320 317 316 319 319 313 306 315 317 316 317 317 318 318 318 318 319 319 319 319 317 315 317 318 315 312 313 314 313 313 318 317 316 311 308 315 312 314
313 314 315 314 314 318 322 311 312 313 311 311 314 316 317 318 316 317 316 317 317 317 318 316 318 319 318 315 317 314 314 314 313 315 313 315 318 317 316 314 307 314 315 316
313 314 315 314 314 319 321 310 311 315 312 313 316 316 318 319 319 316 315 317 317 317 316 316 320 318 317 316 315 315 313 316 315 314 315 316 317 318 318 317 315 317 316 314
314 315 315 315 315 321 316 315 315 311 315 316 314 311 317 319 317 318 317 318 317 318 319 317 320 319 317 317 315 316 313 312 316 315 315 316 317 316 315 315 315 313 312 312
314 314 314 315 316 321 317 316 315 310 307 308 310 311 317 317 317 316 315 315 314 313 318 316 315 314 314 314 315 313 314 308 309 310 311 310 312 311 314 313 311 311 311 310
314 314 314 314 319 320 318 318 311 307 307 301 310 316 316 316 316 317 316 313 310 313 312 311 309 307 307 309 310 312 307 306 306 307 313 315 313 311 310 311 311 309 310 312
315 315 314 314 316 320 318 319 314 305 305 306 313 315 315 314 313 316 316 317 312 310 306 306 305 304 303 303 313 313 307 309 311 317 315 311 314 312 312 311 311 311 313 312
315 315 314 314 314 319 319 319 316 308 305 309 315 314 314 308 309 308 316 313 311 306 300 303 304 305 307 312 310 309 306 300 305 310 315 317 311 308 309 312 314 311 313 311
315 315 315 314 314 316 321 320 318 314 304 310 313 310 310 310 307 309 305 315 308 306 307 308 303 307 309 311 305 304 303 307 310 310 311 308 307 307 309 314 312 308 310 310
314 315 315 315 315 314 318 319 318 316 306 310 316 315 313 311 308 307 309 309 305 306 308 304 306 299 305 309 308 307 308 308 306 307 310 311 308 312 313 311 308 308 307 306
314 314 314 315 315 315 315 318 318 317 314 311 317 318 317 317 313 309 307 310 307 305 308 306 300 306 307 303 314 308 312 309 307 310 309 307 306 311 309 309 308 307 307 309
314 314 314 315 315 315 314 316 316 315 302 308 311 312 315 316 318 317 310 300 309 306 305 303 305 311 305 315 313 312 312 310 307 310 311 310 310 310 310 308 308 309 305 303
314 314 314 315 315 315 314 313 314 313 305 303 307 311 313 314 315 316 317 314 312 309 303 303 306 309 309 310 313 312 313 312 312 313 313 311 310 309 309 309 305 302 301 300
314 314 314 314 315 315 314 313 312 313 311 305 305 309 311 312 313 313 314 315 311 303 306 305 308 304 307 304 305 309 311 312 312 315 312 311 312 307 305 304 302 302 301 301
313 313 314 314 314 314 314 309 313 312 312 305 309 307 308 310 310 311 311 311 309 309 309 305 306 308 309 309 311 310 310 311 311 312 311 311 307 302 301 301 301 302 302 301
312 312 311 312 312 313 311 310 309 310 311 302 306 306 300 304 305 304 305 307 307 309 308 307 307 308 311 305 313 311 310 309 308 308 309 308 304 302 301 300 299 297 297 298
310 310 311 311 310 311 309 310 309 310 311 304 307 306 303 304 301 301 299 300 302 306 309 304 304 304 303 310 310 309 307 306 306 306 305 304 302 301 298 298 298 297 296 296
307 308 308 305 306 306 306 309 309 310 308 304 301 307 310 302 301 298 298 299 304 300 302 303 305 305 311 309 308 306 306 306 305 301 301 300 299 299 297 295 294 295 294 292
306 306 304 299 302 304 304 305 301 299 297 298 302 301 306 306 299 300 302 298 303 306 303 301 304 307 305 304 301 302 302 302 300 299 300 296 294 293 292 292 292 293 292 291
302 299 297 301 302 302 298 300 302 300 302 298 298 299 304 301 304 303 299 302 301 303 296 303 299 300 301 298 298 297 297 297 295 295 295 294 294 293 293 292 293 293 292 290
302 301 301 301 301 299 303 303 299 301 303 298 300 300 301 298 301 301 299 300 299 300 295 301 299 296 297 296 296 295 295 296 296 296 295 296 296 295 293 292 292 293 292 291
300 300 298 301 298 304 304 304 302 300 299 298 299 301 298 298 298 298 296 299 298 291 297 298 295 296 295 295 296 296 296 294 293 293 294 295 295 295 294 292 293 290 289 289
294 295 301 301 300 300 297 292 292 297 297 298 298 298 297 294 292 293 297 292 289 298 299 294 291 294 293 292 293 293 293 290 289 291 292 292 292 292 293 292 291 290 291 292
294 290 293 295 292 295 296 296 297 296 296 296 297 296 293 292 289 291 288 291 295 297 292 288 289 293 292 292 292 292 289 289 289 291 291 291 291 290 290 291 291 290 291 290
290 290 288 293 296 296 295 297 297 295 295 293 293 286 286 288 285 287 291 289 290 289 284 286 288 293 292 291 290 291 291 290 290 291 291 291 290 289 289 290 290 290 290 290
286 286 291 284 291 287 294 293 296 295 295 294 286 288 290 286 283 286 289 287 286 284 286 286 289 291 291 290 290 290 291 291 291 291 291 290 290 290 288 286 290 291 291 291

GFSNW_925_thetae_006.txt.gz
Theta_e
312 314 314 314 316 320 325 313 313 321 320 314 308 312 314 314 316 315 316 316 318 319 318 319 319 320 318 314 316 318 315 311 313 315 314 315 315 316 313 311 313 311 309 314
312 314 314 314 314 320 321 315 314 317 315 311 305 314 316 315 316 316 316 317 317 316 317 318 318 318 316 314 316 317 314 311 311 310 312 312 317 316 314 309 308 314 311 313
312 313 314 314 314 320 318 310 314 312 310 309 313 315 316 317 315 315 315 316 315 316 316 315 318 318 317 314 316 313 312 312 311 311 311 311 316 317 315 314 316 314 314 315
312 314 314 314 314 319 317 309 312 313 311 312 314 315 316 318 317 315 314 316 316 316 316 316 319 317 316 314 314 314 312 316 313 313 313 313 315 316 315 315 314 317 316 313
312 314 314 314 315 320 315 314 314 310 312 314 313 310 316 319 317 316 317 317 317 317 317 316 319 318 316 316 315 315 310 311 314 313 313 313 314 314 314 314 314 314 314 314
312 314 314 314 317 320 316 313 312 311 305 306 309 310 315 316 315 314 314 314 313 312 316 314 315 313 313 313 315 312 313 306 309 309 310 309 309 309 312 313 311 311 311 310
313 314 314 314 319 318 317 316 309 307 307 301 309 315 315 315 315 315 314 312 309 312 310 309 306 305 303 308 311 311 306 304 305 308 312 317 311 310 310 310 309 308 308 307
314 314 314 314 317 318 319 317 312 305 305 304 311 314 314 313 312 315 315 316 310 308 306 306 304 304 302 303 309 310 306 307 310 316 315 312 314 311 311 310 309 309 309 311
314 314 314 314 314 320 318 316 313 307 305 308 312 313 312 307 308 307 315 311 309 305 299 302 303 305 307 311 310 306 305 300 304 310 314 316 310 308 308 311 311 310 312 311
315 315 314 314 314 318 319 318 317 312 304 308 311 309 310 307 306 308 304 313 306 305 301 306 302 307 307 310 304 302 304 306 315 315 313 310 307 306 308 314 312 310 308 310
314 315 315 315 314 315 319 318 317 315 304 308 314 312 311 309 307 307 308 308 303 306 309 305 306 297 304 307 308 306 306 304 302 306 310 310 306 310 313 310 310 309 308 306
313 314 314 315 315 314 316 318 317 316 311 309 316 317 315 313 311 307 303 309 306 304 305 305 300 303 301 305 314 306 310 308 310 312 308 306 307 311 308 308 308 307 308 304
314 314 314 314 315 315 314 316 315 314 299 307 311 312 314 316 317 315 309 299 306 305 303 301 302 304 302 313 311 306 311 310 311 311 310 311 312 310 308 306 307 303 302 301
314 314 314 314 315 315 314 314 314 313 303 303 306 310 312 313 315 316 315 312 309 305 300 301 303 309 309 310 312 312 311 311 312 311 313 311 309 307 305 304 303 302 301 301
314 314 314 314 315 315 314 314 313 313 311 305 304 309 311 311 312 313 314 313 308 304 306 304 308 303 307 303 305 309 309 311 310 313 310 312 312 307 305 304 303 302 301 299
314 314 314 313 314 314 314 308 313 312 312 304 306 306 306 308 309 310 310 310 307 306 308 304 306 308 308 308 310 310 309 309 310 312 311 310 307 304 302 301 299 299 298 297
313 313 312 313 314 314 313 309 309 311 311 300 305 304 298 303 304 302 304 305 304 306 307 305 306 306 310 305 313 310 309 308 309 307 308 306 302 302 300 300 297 296 295 295
312 312 312 313 312 312 310 310 309 311 310 303 306 306 301 303 300 301 299 299 302 306 308 303 304 304 302 310 309 307 306 306 305 303 302 301 301 300 297 294 294 293 292 293
310 310 310 307 308 306 307 309 310 311 308 306 301 307 310 301 301 298 296 298 304 301 302 303 304 305 310 308 302 301 300 303 304 300 299 298 294 294 293 293 292 291 291 291
306 306 304 299 302 304 306 306 302 301 298 299 302 301 306 306 299 301 302 298 303 307 303 300 303 306 304 298 299 299 298 298 298 298 296 295 295 293 293 292 291 291 291 291
303 299 298 301 302 302 299 300 303 301 303 299 299 300 304 300 304 304 299 303 301 299 295 303 302 300 299 295 294 293 294 294 294 295 295 294 293 293 293 291 292 292 292 290
303 302 302 302 301 299 304 303 299 302 302 298 300 300 301 298 300 301 299 301 299 301 294 299 296 295 296 295 296 295 294 293 293 293 293 293 293 294 293 292 292 292 292 291
301 301 298 301 298 304 304 302 302 302 299 298 298 300 298 297 297 298 298 298 296 291 295 295 294 295 293 292 293 293 294 293 292 291 292 292 292 292 292 290 291 291 290 290
295 297 302 300 300 301 300 299 293 292 297 298 298 297 297 293 296 295 294 292 291 298 295 292 290 293 292 291 291 291 292 290 288 290 291 291 290 290 290 290 290 289 288 289
295 292 297 298 293 293 297 296 297 295 295 296 297 295 293 293 292 292 289 295 295 294 291 287 288 292 292 292 292 290 288 288 288 291 290 289 290 289 289 290 290 289 289 289
291 289 288 292 296 295 296 297 298 295 295 293 291 288 292 290 287 289 292 291 291 288 282 285 287 292 292 291 290 290 290 290 289 290 290 290 290 289 288 289 289 290 290 288
287 286 290 283 286 289 290 295 295 295 295 295 291 289 289 285 284 287 287 286 285 283 284 285 288 291 290 290 290 289 290 289 290 290 290 290 290 289 287 285 288 289 289 290

GFSNW_925_thetae_009.txt.gz
Theta_e
311 313 314 314 317 320 324 311 318 317 321 314 308 313 313 314 316 315 316 316 318 318 318 319 319 320 317 313 315 318 315 315 316 316 314 315 316 316 314 318 316 317 317 318
310 312 314 314 317 319 320 315 316 315 315 315 309 314 315 314 316 315 316 317 317 316 317 319 318 318 315 314 316 317 315 315 315 311 314 313 318 317 313 312 313 319 321 318
310 312 313 314 316 319 316 311 318 313 310 309 314 315 316 317 314 315 315 315 315 316 317 317 319 318 316 314 315 313 314 314 313 314 311 313 316 316 315 317 320 318 318 317
310 312 313 314 316 319 315 310 314 312 313 315 314 314 315 317 317 314 314 317 316 316 316 317 319 317 316 314 314 315 315 319 315 314 314 314 315 316 316 317 318 319 318 317
311 312 313 314 317 319 314 315 315 310 311 311 313 310 317 317 316 315 317 317 316 316 316 315 317 317 316 316 314 315 311 315 314 315 312 312 314 314 314 315 316 316 316 317
311 313 313 314 318 319 314 312 310 312 305 307 312 312 315 316 315 314 314 315 314 312 316 314 314 313 312 313 315 314 314 314 313 314 311 312 314 310 313 314 313 314 314 313
312 313 313 314 319 317 317 313 308 310 310 305 311 314 314 314 314 316 313 312 311 311 310 308 307 304 305 309 311 311 309 310 310 316 313 318 314 310 311 313 312 311 310 310
313 313 314 313 318 318 317 314 310 307 306 306 311 313 313 312 311 313 314 314 309 307 308 309 308 308 305 306 309 309 308 310 313 315 316 314 314 313 311 312 312 310 312 312
313 314 314 314 315 318 317 314 311 307 306 311 311 312 311 310 309 310 313 310 307 306 304 308 310 312 309 312 310 306 307 304 314 313 318 319 314 308 308 310 315 312 312 313
314 314 314 314 314 319 317 317 315 310 307 308 310 312 312 308 308 310 307 312 309 306 307 311 313 316 307 314 308 305 308 308 312 314 315 315 310 308 307 316 316 310 310 311
314 314 314 314 314 317 318 316 315 313 305 309 312 310 310 309 308 312 309 311 307 307 310 311 311 309 310 310 309 308 310 312 310 309 312 313 306 309 314 313 311 310 309 308
313 314 314 315 315 314 317 317 315 314 310 310 315 316 312 312 310 309 304 310 308 309 308 305 305 308 302 307 316 306 313 311 313 312 313 308 307 311 311 308 309 307 306 304
314 313 314 314 315 314 315 316 315 314 302 307 311 312 313 316 315 312 312 303 307 306 305 305 305 310 305 311 310 310 310 308 313 311 313 311 311 310 308 306 305 304 304 302
314 314 313 314 314 315 314 315 313 313 302 304 308 309 311 313 314 316 314 310 307 303 303 302 304 308 308 309 313 313 313 311 312 311 312 311 310 310 308 305 304 303 302 301
313 313 313 314 314 315 314 314 313 312 312 307 305 308 309 309 311 314 314 310 307 306 306 305 309 306 308 305 306 310 311 313 314 314 312 312 311 309 305 304 303 301 301 300
313 313 313 313 314 314 314 308 313 313 312 303 308 303 303 306 308 310 309 310 307 308 309 305 307 308 310 309 311 310 309 310 311 312 310 309 306 304 302 301 300 297 296 295
313 313 313 313 313 313 312 309 309 312 312 301 305 304 299 302 303 301 303 305 306 309 308 305 306 307 310 305 312 310 308 307 308 306 307 304 302 302 299 296 295 294 294 293
314 313 313 313 313 313 311 310 311 311 309 304 305 306 301 302 301 303 299 302 304 307 309 303 305 305 304 310 308 303 302 303 304 302 302 302 297 296 296 295 294 294 294 292
313 312 311 308 309 308 309 310 311 310 307 306 302 308 310 301 301 299 299 300 305 302 303 303 305 306 310 304 301 302 300 302 301 298 295 296 296 296 296 295 295 294 293 292
310 307 306 299 303 306 307 308 303 301 298 300 303 301 307 306 300 302 304 299 304 307 304 300 304 306 299 297 298 299 299 299 298 297 297 296 296 295 295 294 294 293 292 291
304 299 298 301 302 303 300 300 303 301 303 300 300 300 305 300 305 305 299 303 302 305 301 304 304 304 299 296 295 294 294 294 294 295 294 293 293 293 293 293 293 292 291 290
303 301 302 302 301 299 301 303 300 303 304 299 301 300 301 298 300 301 299 302 300 300 296 302 303 298 296 296 295 295 293 292 292 291 291 291 291 291 291 291 290 290 290 289
302 300 298 301 298 304 305 306 304 304 300 298 299 300 298 297 298 299 299 299 300 293 298 300 297 296 293 292 293 293 292 292 291 291 291 291 291 291 290 289 290 289 288 289
296 301 303 301 302 301 297 297 297 295 298 298 298 297 298 294 297 296 298 294 293 299 297 297 294 293 292 292 292 292 292 289 288 289 290 290 289 289 289 289 289 288 287 288
294 295 300 299 293 295 297 296 297 295 296 297 297 295 296 293 294 293 293 296 297 296 296 293 292 292 292 293 292 291 289 288 288 290 290 289 289 288 288 289 289 288 287 287
292 290 292 292 293 296 297 297 298 295 294 293 293 292 296 295 293 294 294 294 293 294 290 290 290 292 292 292 291 290 290 289 289 289 289 289 289 288 288 289 289 289 288 287
288 288 288 288 288 293 295 295 296 295 296 296 292 294 295 289 291 292 290 290 290 289 289 287 289 291 291 290 289 289 289 289 289 289 289 289 289 289 288 287 289 289 288 287

GFSNW_925_thetae_012.txt.gz
Theta_e
311 313 314 316 319 322 325 320 325 318 318 324 320 322 320 316 320 319 321 321 322 323 322 323 323 323 321 318 319 320 319 321 318 317 318 318 319 320 319 320 319 321 322 318
310 312 314 315 320 320 321 324 324 316 318 330 327 319 319 319 320 319 321 322 321 321 322 324 322 322 319 319 320 321 319 320 316 317 320 319 321 319 319 319 319 321 324 319
310 312 313 314 319 319 317 323 333 323 319 318 322 322 321 321 318 319 319 320 320 322 322 322 323 323 320 318 319 313 316 320 318 314 314 316 316 315 317 318 322 319 319 318
310 312 313 314 318 317 317 322 325 320 328 323 322 321 321 321 321 319 319 320 321 322 323 322 323 322 320 318 315 319 320 319 319 317 316 316 316 316 316 317 318 320 319 317
310 312 312 314 317 317 318 324 324 318 319 319 321 319 321 321 319 320 320 321 320 319 319 317 320 317 317 315 319 318 318 319 317 317 315 315 316 316 315 316 317 318 317 317
310 312 313 315 317 317 320 315 314 322 312 319 324 322 321 320 320 319 319 320 320 320 318 318 319 318 318 318 318 319 320 320 319 323 315 316 321 317 315 315 316 316 317 315
311 312 313 315 317 317 318 316 316 327 324 321 322 319 320 320 319 321 318 318 322 317 315 315 315 314 315 317 317 317 316 319 316 322 319 324 316 314 314 315 315 314 314 314
312 313 313 314 318 317 316 312 316 320 318 320 318 320 320 319 318 319 318 318 315 316 317 320 321 316 316 315 313 315 316 318 318 319 318 316 315 314 314 314 315 314 315 315
313 313 313 314 318 317 315 312 311 316 314 323 317 319 319 321 322 321 318 314 312 315 319 320 323 320 315 315 315 310 312 313 321 318 319 320 317 313 311 313 317 314 314 314
313 314 314 314 317 317 317 315 313 316 323 315 316 321 320 318 320 322 319 318 317 315 319 322 325 321 314 317 319 316 314 313 317 317 319 317 314 312 312 319 320 315 312 311
313 314 314 314 314 318 317 315 315 317 318 316 315 314 317 316 319 324 318 320 318 318 316 318 319 319 318 316 314 315 318 320 317 316 316 318 311 312 317 315 313 310 309 308
313 314 314 315 314 315 317 319 314 313 319 318 315 316 313 316 316 318 317 319 318 321 320 314 312 313 310 320 320 313 317 315 316 315 318 314 314 315 312 312 312 308 308 307
313 313 314 314 315 314 315 316 314 314 316 317 319 319 314 315 314 314 321 316 316 316 314 317 314 314 316 316 317 319 315 313 316 315 314 314 314 313 313 310 307 307 305 304
313 313 313 314 315 314 315 315 313 313 310 311 317 310 313 312 315 316 315 314 311 311 313 309 310 315 315 315 318 317 316 315 315 315 315 314 313 312 311 307 305 304 302 302
313 313 313 313 314 314 314 314 313 313 319 319 317 310 308 309 312 316 315 315 316 314 312 306 313 316 315 312 312 316 315 315 315 316 314 313 313 308 307 306 303 301 300 298
313 313 313 313 314 314 314 318 314 313 313 316 320 310 309 308 311 314 315 315 316 315 315 314 315 314 317 310 314 313 313 313 313 313 310 310 308 306 304 302 301 298 297 297
312 313 313 313 314 314 315 316 311 312 313 311 315 313 306 304 308 307 310 310 314 314 316 312 316 316 313 312 313 313 312 306 307 308 308 307 306 305 300 298 298 298 297 296
313 313 313 313 313 312 313 311 312 311 310 308 311 309 310 305 308 307 302 307 310 311 313 306 312 310 311 313 312 306 305 304 305 305 306 305 301 299 299 299 297 297 296 295
313 313 313 311 311 309 310 310 311 310 311 311 308 310 311 305 304 303 304 306 311 307 306 307 309 309 313 310 305 304 304 306 303 302 301 300 298 298 297 296 295 295 295 295
312 310 308 300 304 308 308 309 310 306 305 304 309 309 313 309 304 306 308 304 310 311 307 304 304 308 299 300 302 302 303 302 301 300 298 296 295 294 294 295 294 294 293 293
306 299 299 301 303 303 301 302 305 302 304 302 301 302 306 304 310 309 303 305 305 309 307 308 308 309 303 301 299 298 298 296 295 294 294 294 294 294 295 294 293 293 293 293
302 301 301 301 301 299 303 303 300 302 308 301 303 302 302 300 303 305 301 306 304 309 302 304 306 305 301 299 298 297 295 294 293 293 293 293 294 294 293 293 292 292 291 290
301 298 296 299 297 306 308 308 306 306 303 301 301 302 301 300 300 301 304 307 306 300 301 305 305 302 300 298 297 296 295 294 292 293 293 294 294 292 291 291 290 290 290 290
299 299 303 304 304 304 304 305 306 301 302 301 300 299 302 298 300 301 305 300 300 303 303 305 302 299 296 296 296 295 294 292 291 292 293 292 291 291 290 290 290 289 289 289
298 300 303 302 297 299 299 299 300 298 299 300 300 299 301 299 299 299 299 300 302 302 303 301 299 296 296 296 295 295 295 292 291 292 292 291 290 290 290 290 290 290 289 288
296 295 298 296 299 299 298 299 299 297 296 296 299 300 302 301 300 300 301 301 301 301 300 299 296 296 295 295 295 294 292 291 291 292 292 291 290 290 291 290 289 289 289 288
296 296 293 295 298 302 300 300 298 296 298 301 299 302 301 295 299 299 297 299 299 298 297 296 295 295 295 293 293 291 291 291 291 292 292 291 290 289 289 290 290 289 289 288

GFSNW_925_thetae_015.txt.gz
Theta_e
311 313 314 319 319 320 322 322 325 324 324 325 327 327 322 317 321 322 323 323 323 324 324 324 324 324 324 320 321 322 320 321 320 318 320 321 321 322 320 321 319 320 322 321
311 313 314 319 319 324 325 323 326 323 325 332 332 323 322 322 322 322 323 324 324 324 325 326 324 324 321 321 322 323 320 322 320 319 322 321 320 320 318 318 319 319 327 321
310 312 313 317 319 321 323 325 332 325 325 324 324 324 323 323 321 322 323 323 323 324 324 324 325 325 322 321 321 314 318 320 319 319 317 316 316 316 316 317 321 321 320 319
310 312 313 316 318 318 322 325 328 325 329 327 325 324 323 323 322 322 322 323 323 324 325 324 325 324 323 320 316 320 321 320 319 318 316 315 316 316 316 316 316 319 319 318
310 311 313 316 317 316 323 323 325 323 326 324 324 321 323 322 321 322 322 323 322 322 324 320 322 320 318 317 319 319 319 322 319 319 317 315 316 315 315 316 316 317 317 317
310 311 313 316 317 318 323 321 322 325 317 325 325 324 323 322 322 322 321 322 321 323 320 320 320 320 319 318 319 320 321 322 319 322 319 318 323 319 315 316 316 317 319 317
310 312 313 316 317 319 323 322 322 330 327 326 325 322 322 322 322 322 321 320 322 321 319 318 318 318 318 319 320 319 322 321 322 324 320 327 319 316 316 316 316 315 316 316
311 312 313 316 317 317 321 317 322 325 329 324 323 322 322 322 321 322 322 320 320 319 320 322 320 317 315 318 317 318 319 321 320 323 320 317 317 316 316 316 317 315 317 317
311 312 313 315 318 316 320 317 318 322 321 328 322 323 323 325 325 324 321 318 318 320 323 323 324 323 317 319 318 314 317 319 323 320 321 321 319 316 314 315 318 317 316 315
312 313 313 314 317 317 322 320 314 321 328 320 321 324 324 322 323 324 323 321 321 320 323 322 327 322 317 318 320 315 317 317 324 319 321 318 315 314 314 318 320 316 315 314
313 313 314 314 315 317 321 319 314 323 323 320 319 319 321 322 322 327 323 322 322 324 320 322 324 322 320 319 316 318 318 321 318 318 320 319 314 314 319 317 317 315 312 309
313 314 314 314 314 317 318 320 314 319 322 322 320 318 318 319 319 321 322 321 322 322 324 322 323 324 316 321 321 316 318 318 319 318 319 315 314 315 315 315 315 312 308 308
313 313 314 315 314 314 318 320 318 320 324 321 321 320 317 318 318 318 323 322 320 321 321 322 317 318 319 318 321 320 316 316 318 318 315 314 314 314 314 313 312 308 306 307
313 313 313 314 315 315 317 319 316 319 317 318 322 313 317 314 318 319 319 319 318 319 319 312 311 321 319 320 319 319 318 317 318 319 316 314 315 313 312 311 308 306 306 304
313 313 313 314 314 315 317 317 316 316 322 322 322 315 313 313 316 319 318 318 319 320 316 312 317 321 321 318 317 319 315 316 320 320 315 315 315 312 310 309 308 304 303 302
313 313 313 313 314 315 319 320 318 314 319 320 318 316 313 313 315 318 318 318 319 320 320 314 319 318 319 316 317 314 314 314 314 316 314 312 309 309 308 306 304 302 301 300
312 313 313 313 314 317 317 318 315 314 317 319 318 320 311 310 314 314 316 315 317 317 317 319 318 318 316 316 317 313 313 312 310 310 310 308 308 307 304 302 301 300 299 297
312 312 313 313 313 313 315 313 312 313 316 316 316 315 313 309 313 314 309 313 314 315 317 312 315 316 316 315 314 314 311 309 308 307 307 309 306 304 302 301 299 297 297 296
312 312 313 313 312 312 315 312 312 312 316 317 312 313 314 310 308 307 308 309 315 311 310 311 314 314 316 314 313 311 310 309 308 306 305 303 302 300 298 297 297 296 296 295
312 310 309 303 307 310 310 311 314 312 310 311 310 313 314 311 307 307 309 307 314 312 310 305 305 308 309 307 308 307 307 306 304 304 302 299 297 296 296 296 296 295 294 294
306 300 299 301 304 306 302 305 311 309 307 306 310 311 311 308 311 309 307 309 308 312 310 311 311 311 310 306 305 305 303 302 300 298 296 296 296 296 296 296 294 294 293 293
302 301 301 302 300 300 308 307 301 304 309 303 303 304 308 304 306 305 301 307 306 313 307 308 309 309 307 305 303 301 299 297 296 295 295 295 295 295 295 294 293 293 292 292
300 296 296 298 297 305 308 308 308 307 302 300 301 301 300 300 301 302 305 308 311 304 305 306 309 307 304 303 301 299 297 295 294 294 294 294 294 294 293 293 292 292 292 292
298 299 304 304 305 305 306 308 306 302 302 301 300 300 302 300 304 304 308 304 304 305 305 308 307 305 303 302 300 298 297 293 292 293 293 294 294 293 292 291 291 291 291 291
300 300 304 303 300 299 298 298 301 300 301 302 304 304 305 303 304 304 302 303 305 305 307 307 303 302 301 299 298 296 296 295 293 293 294 293 293 292 292 292 292 292 291 290
298 299 301 299 302 300 299 299 299 299 300 301 302 304 305 304 304 303 305 306 305 305 304 303 299 298 297 297 297 296 294 293 293 292 293 293 293 292 293 292 291 291 290 290
300 299 298 299 301 301 298 301 299 298 300 304 303 304 305 299 303 303 302 304 303 302 302 299 298 296 296 295 294 294 293 293 293 293 293 293 293 292 291 292 293 292 290 289

GFSNW_925_thetae_018.txt.gz
Theta_e
311 313 315 318 318 317 320 325 324 327 321 322 325 330 324 317 321 323 324 323 322 323 323 324 324 324 325 321 321 322 318 321 328 319 319 319 320 321 320 330 323 329 327 321
311 313 314 318 319 318 325 323 329 326 327 332 338 325 323 322 322 322 322 324 324 324 325 326 324 326 322 322 323 324 320 324 327 322 323 321 319 319 318 319 323 322 324 321
311 312 314 318 319 321 323 328 331 324 325 328 326 326 324 324 323 323 323 324 323 324 325 324 325 325 323 322 320 315 320 320 319 323 318 316 316 316 316 317 326 324 323 319
310 312 313 317 319 320 319 328 329 323 328 327 325 324 323 324 324 323 323 323 323 324 325 325 325 325 323 321 316 319 321 321 320 319 316 316 315 315 316 316 317 319 319 317
310 312 313 317 317 317 322 329 326 326 326 326 325 322 324 323 322 323 322 323 323 324 326 323 324 323 321 320 319 320 320 324 322 320 317 316 316 315 316 316 316 316 317 317
310 312 313 316 317 317 324 324 325 326 322 326 328 327 324 323 323 323 322 322 323 325 323 322 321 320 320 318 321 320 322 327 323 325 319 319 326 321 317 316 316 316 319 318
310 311 313 316 316 321 327 326 324 333 331 328 325 324 323 323 323 322 322 322 325 322 318 318 319 319 320 319 320 320 323 322 322 324 320 324 318 315 316 316 316 315 315 317
311 312 313 317 316 319 323 321 327 328 324 327 324 323 322 323 322 323 323 322 321 320 320 325 318 320 316 319 318 318 320 323 320 325 321 318 316 317 316 316 317 316 318 317
311 312 313 316 317 319 322 316 323 327 324 331 323 323 324 326 327 325 322 320 320 320 327 324 323 327 320 321 318 316 319 323 325 319 322 320 319 316 315 315 318 318 317 316
312 313 313 314 317 319 324 321 319 328 331 323 324 326 327 324 326 326 323 322 322 322 323 319 332 326 318 322 322 316 316 319 321 320 320 319 315 315 315 317 320 317 316 314
312 313 313 313 316 317 324 319 316 327 327 322 322 322 324 323 325 330 324 324 326 329 319 323 327 323 324 322 319 318 317 319 317 319 319 320 315 315 317 318 317 316 314 311
313 313 314 314 314 316 321 322 318 322 326 324 322 320 320 319 321 324 325 322 324 325 325 325 325 316 316 320 325 316 321 322 324 320 320 317 316 315 315 315 316 313 311 310
312 313 314 314 314 315 321 322 320 322 328 323 321 321 319 318 320 322 326 328 321 324 323 321 316 313 320 318 323 320 316 315 324 321 317 315 316 315 314 313 311 310 309 308
312 313 314 314 315 315 320 322 319 321 318 312 325 316 319 316 320 321 321 321 321 322 320 312 311 314 320 322 321 323 320 317 318 319 317 317 316 314 313 311 310 308 308 306
313 313 313 314 315 316 319 320 319 319 324 318 325 318 316 316 318 320 319 320 322 322 315 309 314 323 325 322 319 322 317 316 319 321 317 317 316 313 311 310 308 308 304 302
313 313 313 313 314 316 321 321 320 316 321 320 317 318 316 316 317 319 319 319 321 322 320 315 319 319 323 317 318 315 313 313 314 315 315 314 311 309 308 309 307 303 302 301
312 313 313 313 314 317 317 318 315 315 319 317 315 321 313 312 317 317 319 318 318 319 321 321 319 321 318 312 317 314 313 313 313 312 311 311 309 308 306 304 303 301 299 297
311 312 313 313 313 314 315 314 312 316 319 319 317 316 315 311 317 316 312 315 316 317 317 315 315 318 314 316 315 314 313 313 311 310 309 309 308 307 304 302 299 298 297 296
311 312 313 313 313 315 317 313 313 314 318 320 309 313 314 312 309 308 310 312 314 313 312 311 315 313 314 314 313 314 313 311 310 309 308 308 305 303 300 298 298 297 296 295
311 311 309 303 308 311 311 314 317 315 317 314 310 314 315 312 308 309 309 308 314 312 311 307 307 310 312 312 311 311 311 310 308 307 306 302 299 298 297 297 296 295 295 294
306 301 299 302 305 308 306 311 314 311 312 310 310 313 312 310 310 309 308 308 308 313 311 313 312 311 310 310 308 308 308 306 305 304 300 297 297 297 297 297 296 294 294 294
303 302 302 303 300 300 310 307 304 307 313 305 305 307 310 307 310 308 304 308 306 311 308 309 310 310 309 308 307 305 304 300 298 297 297 296 296 296 296 295 294 294 293 292
301 298 297 300 297 305 307 308 307 307 301 301 301 302 302 301 303 302 303 307 309 305 308 308 309 308 306 306 304 302 298 294 295 295 295 295 295 294 293 293 292 292 292 292
299 300 304 304 306 305 304 304 303 300 300 300 300 300 302 299 302 301 307 305 306 308 308 307 310 306 304 303 303 300 297 291 293 294 294 294 294 294 293 292 292 292 292 292
301 301 305 303 300 299 298 296 299 298 299 299 300 300 302 302 303 303 304 305 308 308 309 306 306 304 303 300 300 297 296 293 293 295 294 293 293 293 293 293 293 293 293 292
300 299 302 300 302 300 298 297 298 299 299 300 302 302 305 305 304 305 307 308 308 309 307 306 301 300 299 298 297 297 296 294 294 293 293 293 293 293 293 294 293 292 291 291
300 299 300 301 300 300 299 300 299 299 300 302 303 305 303 301 305 305 304 306 305 305 304 301 299 298 298 296 295 294 294 294 294 294 293 293 293 293 293 293 293 293 293 292

GFSNW_925_thetae_021.txt.gz
Theta_e
311 313 314 317 317 316 317 326 321 327 324 320 322 325 327 316 321 322 323 323 322 323 322 325 325 325 323 320 321 320 317 319 316 320 318 318 319 320 320 315 320 315 315 316
311 312 315 317 317 317 322 324 326 327 328 319 319 325 323 322 321 322 322 324 324 323 325 324 327 325 322 322 320 321 319 319 318 321 322 320 317 318 318 320 313 316 310 312
310 312 314 318 318 317 323 326 322 324 324 324 328 327 323 324 322 323 323 323 323 324 324 324 326 324 323 320 317 315 319 319 317 318 317 315 315 315 314 317 315 316 316 318
310 312 314 317 318 319 321 325 325 320 319 319 323 325 324 324 323 322 322 322 323 324 324 324 326 324 323 321 315 319 318 319 319 318 316 315 314 314 313 314 314 314 313 317
310 312 314 317 317 319 321 328 328 322 321 318 324 322 324 324 323 322 323 322 322 323 324 323 325 323 321 321 317 319 318 318 317 316 317 315 314 314 315 314 315 316 315 317
311 311 314 316 316 316 324 326 325 325 323 321 323 323 324 324 323 322 323 322 321 318 320 318 318 317 317 319 319 319 320 313 312 317 316 315 313 316 315 315 315 315 315 316
311 311 314 316 316 321 325 325 327 320 319 324 324 325 324 323 322 322 323 321 319 319 315 312 312 311 313 319 317 320 315 315 310 309 307 305 317 314 315 315 314 313 315 314
311 312 314 317 317 322 322 323 327 317 313 325 325 322 323 321 322 322 322 321 318 316 319 312 310 309 306 312 316 317 318 311 306 310 313 312 316 316 315 315 314 316 316 314
312 312 313 317 318 321 317 318 326 321 314 318 325 322 321 321 322 321 321 319 319 320 310 306 310 313 313 316 317 313 316 310 308 311 307 306 312 315 314 314 312 316 315 312
312 312 313 316 317 323 322 315 322 328 319 321 322 323 321 322 321 319 320 321 320 317 307 313 312 314 316 317 315 309 312 313 307 305 303 309 314 314 314 312 310 315 312 310
312 313 313 314 316 322 323 316 323 324 317 319 321 321 322 323 320 315 318 314 313 308 314 311 311 310 311 314 315 312 308 309 307 311 313 311 313 314 311 310 314 313 310 309
312 313 313 313 315 318 323 319 321 322 321 320 320 319 319 320 322 319 318 314 320 316 313 308 310 312 314 312 312 314 315 312 311 311 310 310 313 312 313 312 312 310 308 309
312 313 313 313 314 318 322 320 322 323 314 317 319 319 318 318 320 322 318 316 319 320 317 311 313 309 311 309 311 315 314 315 311 313 315 315 313 312 311 309 308 308 308 308
312 313 313 314 314 319 321 321 320 320 312 308 317 317 318 316 320 320 321 320 320 317 309 308 310 307 314 308 310 309 312 315 315 311 314 314 313 312 310 309 308 308 308 307
312 313 313 314 315 318 317 316 317 320 319 310 310 318 315 316 319 319 320 320 317 313 307 306 307 304 309 303 306 309 315 313 311 309 313 313 312 310 310 309 308 307 306 301
313 313 313 313 314 317 321 318 319 318 321 310 311 315 315 315 317 319 319 318 317 316 310 304 310 317 310 309 310 313 314 313 312 313 312 311 309 308 308 308 307 304 301 299
312 313 313 313 314 318 316 315 315 316 319 305 309 312 309 311 315 312 314 315 313 314 311 307 305 309 313 307 310 312 313 311 311 310 309 309 308 307 307 306 302 301 297 295
312 312 313 313 313 314 316 313 314 318 317 309 311 311 306 311 305 307 308 304 309 313 310 307 307 307 304 310 313 313 312 311 310 309 308 307 306 306 303 301 297 296 294 294
311 312 313 313 313 315 315 312 313 315 316 308 304 307 307 307 306 303 303 307 306 307 306 307 309 307 312 312 312 312 311 309 308 308 307 307 307 306 298 296 295 294 293 293
311 311 311 306 309 311 311 312 307 304 303 305 306 305 310 307 303 304 305 301 306 310 306 305 305 309 307 308 309 309 308 309 308 307 307 303 297 296 295 295 295 294 293 293
309 302 299 304 308 309 303 307 308 307 306 306 306 304 308 304 305 305 302 305 304 309 304 307 308 308 306 306 307 306 306 306 303 299 298 297 296 295 295 294 293 293 293 293
303 303 303 304 300 300 308 307 304 306 309 302 304 304 306 302 306 303 302 307 304 309 305 307 308 304 306 305 305 304 298 297 297 297 296 296 296 295 294 294 293 293 293 292
302 299 298 302 298 305 307 309 306 306 300 300 300 302 299 300 301 301 303 307 308 302 306 305 302 306 305 304 299 295 294 293 294 294 294 294 294 293 293 292 292 292 292 292
298 300 303 303 304 303 301 302 302 299 298 298 298 299 301 298 302 301 306 303 302 307 305 300 304 305 303 301 297 294 292 290 291 292 293 293 293 293 293 293 292 292 292 292
298 300 303 301 298 297 297 296 297 296 297 298 299 299 300 301 302 301 301 303 306 306 306 302 301 300 298 296 294 292 291 290 292 294 293 293 293 293 293 293 292 293 293 293
298 297 299 298 300 299 298 297 297 297 296 296 298 301 304 302 302 303 305 306 306 304 301 298 296 296 295 295 294 294 294 293 293 293 293 293 293 293 293 293 293 293 293 292
298 298 297 298 298 297 297 297 297 298 298 301 301 303 301 298 302 303 302 304 301 299 297 295 295 295 294 293 293 294 294 294 293 293 293 293 293 293 293 292 292 293 293 293

GFSNW_925_thetae_024.txt.gz
Theta_e
312 313 315 315 315 315 317 320 317 327 325 311 317 322 325 319 319 320 321 322 323 320 320 324 324 324 321 320 320 317 316 316 315 320 317 317 317 319 316 313 316 313 312 313
312 313 316 316 316 316 318 318 322 327 327 311 311 320 322 320 320 320 321 322 322 322 323 325 325 323 320 317 318 320 316 315 315 319 319 318 317 317 318 315 310 314 309 311
311 313 316 317 317 318 324 320 319 318 318 316 318 325 321 322 321 321 321 322 321 322 323 323 324 323 322 317 315 314 317 317 315 318 319 314 314 314 316 315 312 314 312 314
311 312 316 318 317 317 319 321 320 314 314 315 322 323 321 323 322 321 321 321 322 322 323 324 324 322 321 319 314 317 315 317 317 315 314 314 314 313 312 313 312 313 312 314
311 312 316 317 318 317 320 325 324 317 313 314 319 321 322 322 322 321 322 321 321 321 322 321 323 321 320 319 316 318 316 315 313 313 316 315 313 312 313 314 313 314 315 317
311 313 316 316 318 319 320 321 323 317 317 313 318 320 321 322 321 321 321 320 318 317 319 316 315 315 316 317 316 319 316 310 308 310 313 312 311 314 315 314 313 314 313 313
311 313 316 316 315 318 326 325 322 316 316 318 318 323 322 321 320 322 321 318 316 318 314 310 308 309 313 316 316 316 312 311 305 305 303 302 311 312 313 313 314 314 313 311
311 313 316 316 319 321 323 323 323 313 309 320 322 321 321 320 319 320 321 320 315 313 313 307 308 307 308 311 315 317 313 305 306 303 309 306 313 315 314 313 313 315 313 311
312 313 316 317 321 320 319 324 326 312 312 315 322 319 320 318 318 317 319 317 317 312 304 303 309 310 307 315 316 312 312 305 303 309 301 302 306 314 312 311 312 315 313 310
312 312 315 316 322 321 316 319 325 321 315 318 320 318 319 317 316 316 318 319 318 310 301 311 305 314 312 315 312 308 309 304 306 297 300 306 307 313 311 312 310 313 311 309
312 312 313 316 320 321 317 321 324 321 313 318 319 318 320 319 315 313 315 313 310 308 307 304 312 304 309 311 313 310 309 309 306 303 301 309 309 312 311 309 311 311 309 307
312 313 313 314 317 322 318 321 322 322 315 317 318 318 318 320 318 315 313 311 314 311 309 308 311 305 311 307 312 311 311 308 309 310 310 308 309 311 309 310 310 308 307 307
312 313 313 313 318 322 318 321 322 319 308 313 316 318 317 320 320 319 315 311 317 316 309 307 304 304 306 310 311 314 311 312 310 311 312 311 311 312 311 310 308 307 308 308
312 313 313 315 319 320 318 319 320 316 306 305 314 316 316 317 319 320 320 317 316 310 305 305 306 304 308 305 306 307 308 313 313 309 312 312 312 311 308 307 306 308 308 307
312 312 313 315 318 317 317 318 319 321 312 310 308 314 315 316 318 319 319 317 313 308 306 305 306 300 306 302 302 306 312 312 310 309 310 310 311 308 307 307 308 308 306 297
312 312 313 314 317 319 320 314 316 320 318 306 307 310 311 313 317 317 316 316 313 310 306 304 305 311 306 309 314 310 313 313 311 312 312 311 308 307 308 308 307 304 297 294
312 312 313 313 315 319 314 310 314 318 315 304 308 306 307 310 312 308 310 311 310 311 306 304 307 305 310 306 310 311 311 311 311 309 308 308 307 307 308 307 302 295 294 293
312 313 313 313 315 316 315 312 316 318 313 303 305 304 303 309 302 305 304 302 306 309 310 306 306 304 303 311 311 311 311 311 310 308 308 306 306 307 301 297 295 294 292 292
311 312 312 312 312 312 314 312 314 314 313 306 301 305 307 304 304 301 300 302 305 304 306 305 306 306 310 310 310 311 310 309 308 307 306 306 307 299 296 295 294 293 293 292
311 311 309 306 307 309 311 312 305 302 303 302 303 303 306 306 301 303 303 300 304 309 306 305 305 309 306 305 307 307 307 307 307 308 308 302 297 296 296 295 294 293 292 292
311 303 300 306 308 309 301 306 306 306 306 305 303 302 307 301 305 306 299 304 304 308 302 304 303 306 304 305 305 304 306 302 301 301 298 296 296 295 295 294 293 293 292 292
306 305 304 305 301 301 308 306 304 305 308 301 304 303 305 302 302 303 302 305 303 307 302 307 308 304 304 300 297 297 297 297 296 296 296 296 295 295 294 293 292 292 292 292
303 300 299 303 298 306 310 311 306 306 300 300 300 304 299 300 301 301 303 307 307 302 307 307 304 306 300 296 295 294 294 294 294 294 294 294 293 292 292 291 291 291 291 291
298 301 303 303 303 302 301 302 302 298 297 298 298 299 300 298 302 301 306 303 302 307 305 299 304 305 302 296 294 293 291 290 291 292 293 293 293 293 292 292 292 292 292 291
298 296 302 299 296 296 296 296 297 296 296 297 298 298 300 300 301 301 301 303 305 304 304 302 299 298 296 294 293 291 291 290 292 292 292 292 292 292 292 292 292 292 292 292
296 297 298 297 298 299 298 297 297 296 295 295 297 300 303 301 301 302 303 304 303 302 300 298 295 296 294 294 293 293 292 292 292 292 292 292 292 292 291 292 292 293 292 291
298 297 296 297 297 297 298 296 296 297 298 300 299 299 299 297 300 302 302 301 301 299 297 294 294 295 294 292 292 293 293 293 293 293 292 292 292 292 292 291 292 293 293 293

GFSNW_925_thetae_027.txt.gz
Theta_e
311 312 313 313 312 314 319 315 314 326 322 310 313 320 324 321 319 319 321 321 320 319 320 323 322 322 320 318 320 315 316 314 315 319 315 316 316 317 313 309 314 311 310 312
312 312 315 313 313 315 320 315 322 326 319 309 311 316 322 319 319 319 321 321 321 321 323 323 323 322 319 315 317 318 315 314 315 318 317 315 318 316 315 311 309 314 308 310
312 313 316 314 314 315 321 316 318 316 316 311 313 320 321 321 319 321 320 320 320 320 323 321 322 322 320 314 313 313 314 315 313 316 316 314 313 313 315 313 311 312 310 312
312 313 317 315 315 317 322 317 316 314 315 318 321 320 320 321 321 320 319 320 321 321 323 323 322 322 320 316 314 314 313 315 316 313 313 313 313 312 312 313 312 312 311 312
312 315 317 316 316 320 319 321 319 314 310 313 318 319 322 321 321 321 321 319 320 320 319 319 322 320 318 315 315 316 313 313 311 314 314 313 313 311 309 309 311 312 312 315
312 315 316 317 316 317 317 318 320 314 312 313 315 318 321 321 320 320 319 319 317 316 318 316 314 314 315 315 315 317 312 309 306 306 310 308 306 308 312 313 312 311 313 312
313 316 316 317 316 316 322 324 317 315 314 311 313 320 320 320 319 321 319 316 316 316 310 308 308 308 312 315 315 313 310 307 300 303 302 302 308 309 311 311 312 313 312 311
314 316 316 316 318 318 323 323 318 311 308 316 320 320 320 318 317 319 320 318 314 310 307 306 308 305 307 310 313 313 310 304 305 303 305 305 309 313 312 312 311 312 311 309
313 315 317 318 317 318 321 324 318 312 314 318 320 319 318 317 316 316 319 316 313 308 301 303 305 306 307 313 316 311 307 302 303 305 300 300 305 312 311 310 311 312 310 309
313 315 318 321 320 320 321 323 323 317 314 316 319 317 317 314 313 314 318 318 316 307 300 301 304 311 308 313 311 309 308 302 303 296 299 304 305 311 310 311 307 311 310 309
312 314 316 320 318 316 319 322 323 319 312 317 317 317 317 315 313 313 313 312 309 303 306 303 305 301 308 310 311 311 310 311 309 305 303 310 307 310 311 308 309 310 308 307
312 313 315 319 319 318 321 321 320 319 314 316 317 316 317 318 314 313 310 313 311 309 305 302 305 303 309 305 310 309 310 307 308 308 309 306 306 310 308 308 310 309 307 306
312 313 315 320 321 319 318 321 319 317 308 313 314 316 317 318 319 317 312 308 312 311 305 307 303 303 304 309 309 311 310 308 307 309 309 309 307 309 310 309 309 306 306 306
312 313 317 319 320 317 318 319 317 313 303 305 312 315 315 316 319 320 317 314 311 306 303 303 304 301 305 303 306 307 308 310 310 308 309 311 311 310 309 307 306 307 307 306
312 313 316 316 317 317 318 319 319 317 310 308 305 312 313 315 318 318 317 313 310 307 304 303 306 299 304 303 301 307 309 310 308 309 309 310 309 309 306 306 306 306 304 298
312 312 314 316 315 315 314 310 316 318 314 306 308 308 309 312 315 315 314 313 310 307 306 303 303 307 305 309 313 310 310 311 307 309 308 308 309 305 305 306 307 303 296 294
312 312 313 314 317 317 311 307 314 317 312 303 308 306 305 308 309 305 308 308 308 309 306 304 304 304 308 306 310 310 310 309 310 309 307 309 307 307 307 306 299 296 294 293
312 313 314 314 314 314 312 314 316 315 310 301 304 302 303 307 304 306 302 303 305 305 307 305 307 303 303 309 310 310 310 309 310 307 307 307 305 306 301 295 294 294 293 292
312 312 312 312 312 310 311 313 314 314 310 304 301 304 307 302 304 301 300 302 306 303 305 305 305 305 311 311 309 310 309 310 309 307 306 305 304 298 295 295 294 293 292 292
311 310 309 301 307 309 311 311 302 300 302 300 302 301 305 306 301 302 302 301 304 310 304 305 305 309 305 304 304 305 305 306 306 306 305 297 297 296 296 295 294 293 292 291
310 302 301 307 307 308 300 304 304 306 309 304 302 302 306 301 305 304 298 304 303 308 301 307 305 306 302 298 296 298 298 300 298 299 298 297 296 296 295 293 292 292 292 291
307 306 305 305 299 299 304 303 303 305 308 301 304 303 305 301 300 303 302 303 303 306 302 307 306 302 297 295 295 296 297 297 297 297 296 295 295 295 294 293 292 292 291 291
306 302 299 303 300 308 311 311 307 306 300 300 300 303 299 300 300 302 303 307 307 301 307 308 305 298 298 297 297 297 297 296 297 297 296 295 294 292 291 291 291 291 291 291
299 301 304 304 303 301 301 302 302 297 297 298 298 299 301 298 302 301 306 303 302 307 306 299 302 301 300 295 293 292 291 290 291 291 291 291 292 292 292 292 292 292 292 292
298 298 301 299 296 296 296 296 297 295 296 297 299 299 300 300 302 300 301 303 304 302 298 300 297 295 294 293 293 292 291 290 291 291 291 291 291 291 291 291 292 292 292 292
296 296 298 297 298 299 298 297 298 296 295 295 297 300 301 301 300 298 298 300 298 297 299 297 295 294 293 295 294 292 292 292 292 292 292 291 291 291 291 291 292 292 292 291
297 298 296 296 297 298 297 296 296 296 297 300 298 297 299 297 300 301 301 300 300 298 297 294 295 295 293 293 293 294 293 292 292 291 291 291 292 292 291 290 292 292 292 291

GFSNW_925_thetae_030.txt.gz
Theta_e
309 311 312 312 312 313 317 309 313 325 322 310 310 318 322 321 318 317 320 319 318 317 319 321 320 320 319 316 319 315 314 312 315 318 315 315 315 316 311 308 312 310 310 311
310 311 312 313 312 314 319 318 321 322 314 310 310 314 320 319 318 319 320 321 320 320 321 322 321 321 318 314 316 315 313 314 316 315 312 313 316 315 311 308 308 313 308 309
310 312 312 314 312 315 317 316 320 315 311 309 312 316 321 320 318 320 318 319 319 320 322 319 321 321 319 313 313 313 312 313 313 315 313 313 314 315 313 311 309 310 310 310
310 312 314 314 312 315 319 313 316 315 317 318 312 316 319 320 320 319 317 319 320 320 322 322 321 321 319 313 313 314 311 314 314 313 312 312 311 311 313 313 311 312 310 310
311 313 316 313 313 316 318 320 315 308 310 316 317 316 319 319 320 320 320 319 319 319 319 318 320 318 317 312 315 315 311 312 310 315 312 311 312 310 309 309 309 310 310 310
312 314 316 314 314 318 315 317 315 311 309 313 315 317 320 319 319 319 317 317 316 317 318 315 313 312 312 313 314 314 310 308 307 309 307 305 306 308 309 309 309 308 311 309
312 315 316 315 315 318 319 320 315 313 309 309 316 318 319 319 318 319 318 315 315 314 308 307 307 308 311 314 313 310 307 305 299 302 301 303 307 308 309 309 310 308 311 310
315 315 316 316 315 318 324 322 316 310 305 309 315 318 318 317 316 318 318 317 312 308 305 307 311 306 308 309 311 307 306 303 303 302 304 304 307 309 311 311 310 310 310 310
315 315 316 316 316 317 322 322 319 312 311 315 316 317 316 315 315 315 318 314 310 305 299 303 306 310 311 312 315 309 305 301 303 300 301 300 304 307 309 310 311 309 309 308
315 316 316 316 316 317 321 323 320 314 314 315 316 316 316 312 312 313 315 316 315 306 299 300 303 307 306 310 310 309 307 301 302 296 298 303 303 309 309 311 309 309 308 307
315 318 320 317 317 318 320 320 321 316 311 316 316 316 314 313 312 312 312 312 309 303 306 303 303 301 307 309 309 311 310 311 311 303 299 309 305 311 311 309 307 309 307 305
314 317 319 319 320 319 321 319 317 317 313 314 315 315 315 316 312 311 309 313 311 309 305 298 301 305 307 305 309 308 310 307 306 307 308 306 304 308 307 306 307 308 307 306
315 318 320 318 319 320 320 319 317 317 308 312 313 315 316 317 317 314 311 306 309 308 303 301 302 303 301 306 307 310 308 305 305 308 308 306 305 305 308 307 308 308 307 305
316 319 319 319 318 319 319 316 312 312 303 306 311 314 313 315 318 318 314 311 307 303 301 301 301 301 303 301 304 305 307 307 308 306 307 307 308 308 307 308 306 306 305 305
316 316 318 318 318 317 316 317 315 313 308 308 306 310 311 314 316 315 313 310 309 306 304 303 304 296 302 302 300 306 307 309 307 307 306 308 307 309 307 307 306 306 304 301
314 316 316 317 316 315 312 309 317 313 313 307 309 306 307 311 313 312 311 311 307 306 306 303 302 304 304 309 311 309 308 307 306 307 307 306 307 306 305 305 305 302 297 295
312 314 315 316 315 311 307 306 313 314 310 304 307 305 304 306 307 304 306 307 306 307 306 302 303 305 306 304 308 309 308 308 308 307 307 310 307 308 305 304 297 295 293 293
313 313 314 314 314 314 313 312 315 313 308 300 303 303 303 305 304 306 302 303 305 306 306 304 305 304 303 310 308 308 308 308 308 307 306 305 305 303 295 294 294 294 293 293
313 314 313 312 312 309 311 313 313 313 308 302 299 304 306 302 303 300 302 303 308 303 305 306 304 305 310 307 304 304 305 306 306 306 304 300 298 295 295 295 295 294 292 292
311 310 309 303 307 308 310 310 302 300 299 302 303 299 305 306 301 302 301 301 305 310 305 305 306 307 302 296 295 297 299 302 305 306 298 295 296 297 297 295 295 293 292 293
309 301 303 307 307 307 298 301 302 304 304 303 302 302 306 301 306 306 297 305 303 309 301 308 305 306 300 295 297 297 297 297 297 297 297 297 296 295 293 292 293 294 293 291
308 306 306 305 300 300 304 303 303 305 306 301 304 303 304 301 298 303 302 302 302 304 300 306 305 299 295 297 297 298 297 297 296 295 294 293 293 294 294 295 293 292 291 291
306 301 298 301 298 308 310 311 308 306 300 300 300 303 299 300 300 301 303 307 306 300 306 307 304 298 299 299 298 297 296 296 296 295 295 295 294 293 292 290 290 291 290 290
299 302 307 304 304 302 301 303 302 297 297 298 298 300 301 298 303 301 307 303 302 307 306 299 301 299 299 292 291 291 290 289 291 291 291 290 291 291 291 291 291 291 291 291
298 298 301 299 296 296 296 296 297 295 296 297 299 299 300 301 302 300 301 302 300 298 297 299 297 295 293 293 294 292 290 288 290 290 290 291 291 291 291 291 291 291 291 291
296 296 298 297 299 298 298 297 297 296 295 295 298 301 300 299 300 299 300 299 295 296 298 297 295 294 293 294 295 292 293 292 291 291 291 290 290 290 290 291 291 291 291 291
297 298 295 296 297 298 297 296 296 295 297 300 296 297 298 295 297 298 298 295 297 297 295 294 294 294 293 294 293 293 292 291 291 291 290 290 290 290 290 289 290 289 290 290

GFSNW_925_thetae_036.txt.gz
Theta_e
302 306 311 313 309 310 312 315 320 323 321 326 327 322 319 321 321 322 319 319 319 320 321 322 319 320 320 320 321 323 321 324 326 323 319 319 320 322 321 319 318 321 322 317
301 302 307 312 309 311 314 318 323 318 315 327 325 320 320 324 320 322 322 321 321 322 323 323 323 324 320 319 320 323 321 324 326 324 321 320 321 321 319 318 320 320 328 316
302 302 303 311 309 312 316 319 325 325 320 318 322 320 320 322 321 322 322 323 324 325 325 324 326 325 320 317 319 312 317 323 323 323 322 321 322 321 319 319 320 317 319 315
302 303 307 310 309 311 318 321 322 323 326 320 320 320 320 322 324 322 322 324 324 325 327 325 326 324 318 318 316 319 321 323 321 318 317 317 317 318 319 318 318 319 316 315
302 305 309 309 310 312 320 322 322 319 323 318 319 319 320 322 323 323 323 325 324 325 326 324 326 324 321 322 319 321 318 322 319 320 317 316 317 317 316 318 318 318 318 317
302 307 311 308 311 313 320 321 315 320 315 318 319 320 321 321 325 322 321 324 325 326 324 322 323 320 320 319 322 322 321 321 319 318 314 314 321 318 317 317 318 318 319 318
306 310 309 308 311 315 320 322 318 324 321 318 316 318 322 323 323 325 321 322 325 319 317 318 318 319 318 317 316 316 318 318 317 320 313 327 313 312 313 317 317 316 316 315
310 309 307 310 311 315 323 319 320 321 323 319 317 320 323 323 322 323 323 320 318 317 317 323 323 324 324 320 315 314 314 316 317 327 316 314 312 311 311 313 313 314 314 314
309 307 309 311 312 314 321 318 314 321 323 320 317 321 323 325 326 324 319 314 313 313 318 324 329 328 324 322 321 314 312 314 320 316 332 335 314 312 313 314 315 312 315 315
307 309 310 312 312 314 321 318 315 321 326 317 321 321 324 323 324 325 318 316 317 314 323 335 330 326 315 320 320 320 321 320 325 320 327 319 313 310 313 316 315 314 315 316
309 311 312 314 312 315 321 319 316 323 324 321 320 319 321 320 324 327 319 320 319 320 329 331 324 329 317 317 315 319 321 324 325 317 327 326 311 314 319 317 316 313 315 316
311 313 314 315 312 314 320 320 316 318 322 321 316 315 316 317 317 322 319 324 321 323 326 323 320 322 314 320 324 314 320 319 320 318 319 313 312 316 315 314 315 315 315 315
314 314 315 314 313 317 319 319 317 319 322 320 322 320 316 316 316 315 322 318 319 318 316 320 320 322 319 322 321 318 315 312 317 315 314 314 313 313 312 312 313 313 313 313
315 315 315 314 314 317 319 318 316 318 319 318 321 314 315 312 316 317 315 317 312 312 315 321 316 324 313 319 316 318 315 313 315 316 315 313 313 312 312 313 314 313 313 313
318 316 315 314 315 318 316 314 312 314 319 318 321 314 312 313 314 314 314 315 317 319 320 317 324 314 315 311 313 317 312 315 317 318 312 313 314 313 312 313 314 313 313 309
319 316 315 315 317 315 316 320 313 312 313 323 321 312 313 313 314 314 315 316 317 318 320 313 313 309 316 318 320 313 312 312 312 315 313 314 313 312 311 310 308 307 306 303
318 316 317 318 317 315 315 316 312 310 310 319 316 319 311 310 313 310 315 314 316 318 314 310 312 312 315 313 322 308 307 308 310 310 312 314 309 307 303 301 300 299 298 296
314 314 313 312 312 313 315 310 310 307 311 316 317 315 318 309 313 313 308 313 316 312 310 310 312 310 312 316 304 304 305 306 309 304 308 306 302 301 300 298 296 295 295 293
311 311 311 311 312 317 314 309 309 308 313 317 309 320 319 308 307 307 310 312 313 309 312 312 314 310 311 301 301 302 302 303 304 302 303 301 300 298 296 295 295 295 295 295
309 309 312 313 309 308 308 310 315 313 310 308 306 306 310 310 310 309 310 309 312 314 311 308 312 302 299 299 299 299 300 302 301 302 300 298 297 297 297 297 296 296 297 297
310 313 311 308 307 309 310 311 313 312 312 308 306 309 310 306 311 309 306 311 309 314 312 314 311 305 299 299 299 299 299 299 299 299 298 298 298 297 297 297 296 296 296 295
309 310 306 306 308 311 310 309 308 311 311 306 309 307 307 305 306 308 307 308 307 310 306 312 310 301 300 299 299 299 298 298 298 298 297 297 297 297 296 295 294 293 291 290
307 308 306 312 307 314 318 314 312 311 304 303 304 307 306 304 307 306 308 309 311 306 309 310 304 300 298 299 298 298 297 296 296 295 295 294 293 292 291 292 291 290 291 291
303 307 309 309 312 308 307 308 307 300 300 302 305 304 306 304 307 305 312 305 306 310 310 308 301 301 298 297 297 296 294 291 293 293 292 291 291 291 289 289 289 289 289 289
302 304 306 303 299 299 298 297 299 298 297 301 304 303 306 304 306 304 307 308 310 308 308 303 300 297 297 296 294 294 293 292 293 293 291 289 289 291 290 289 288 286 286 285
299 300 301 299 301 300 299 298 298 297 298 298 301 304 309 305 306 307 308 310 308 304 301 298 295 297 297 295 295 295 293 292 292 292 291 290 288 288 288 287 284 283 284 283
299 300 297 299 299 299 298 297 297 295 299 303 305 307 305 302 305 305 304 305 303 300 298 296 297 297 297 294 294 291 292 292 291 290 287 286 285 284 284 284 282 282 282 281

GFSNW_925_thetae_039.txt.gz
Theta_e
302 303 302 303 310 314 310 317 320 319 319 318 324 327 324 320 321 323 320 320 319 319 320 320 319 318 320 322 322 322 323 322 322 322 322 322 322 323 323 324 320 321 325 320
302 302 302 305 309 312 312 320 323 321 317 322 330 324 323 321 321 324 321 319 319 320 321 322 320 319 324 323 324 322 324 320 321 323 323 322 322 321 321 321 321 321 329 320
300 302 302 305 309 311 314 321 326 322 324 318 325 326 323 321 323 322 321 319 320 320 320 321 322 322 323 322 323 313 320 320 321 323 321 323 325 323 322 321 324 320 319 318
299 300 301 303 308 311 314 321 321 322 326 325 326 324 322 321 323 323 323 322 322 322 323 322 325 324 323 322 317 320 323 324 322 321 321 321 321 320 321 321 321 323 319 318
298 301 302 302 304 310 313 324 322 322 322 323 326 323 323 320 322 324 324 320 322 323 324 325 325 326 325 324 323 324 322 324 323 324 322 321 321 320 319 318 319 319 318 317
299 301 300 302 302 308 313 320 320 325 325 326 324 324 321 320 324 325 324 322 322 324 326 327 326 325 324 324 326 326 325 324 323 321 318 318 322 320 318 318 318 319 320 319
300 300 300 302 304 306 315 321 322 327 328 328 322 321 320 321 325 325 325 325 325 325 322 323 323 322 322 322 322 324 325 325 323 322 318 326 316 314 314 316 317 317 317 316
300 300 301 301 307 308 313 319 322 324 331 324 320 321 321 322 325 325 326 323 323 323 324 325 325 326 325 321 319 317 319 321 322 328 319 317 315 313 314 314 315 315 315 314
300 302 302 303 309 310 309 315 323 324 330 326 319 319 320 326 328 327 322 321 319 320 326 329 327 326 322 325 324 316 316 318 321 319 328 330 319 315 315 315 317 314 314 314
301 304 306 307 310 308 310 319 321 322 323 319 320 320 323 322 325 327 323 322 321 320 330 334 331 328 322 325 326 323 324 324 327 324 329 324 317 314 315 317 319 316 315 315
306 307 309 310 308 310 310 322 322 325 326 323 324 320 321 325 324 329 324 324 323 325 329 334 330 332 323 322 320 323 324 328 326 327 327 326 314 315 317 320 315 316 316 315
308 310 308 308 309 311 312 323 321 324 325 324 321 320 320 321 323 325 323 325 325 326 328 331 331 327 319 327 324 318 323 322 324 321 321 316 314 314 315 315 315 315 315 316
307 307 308 310 311 312 314 323 323 323 325 323 324 323 319 318 321 321 326 326 324 325 326 327 329 327 326 326 326 322 319 317 318 317 315 315 314 314 314 315 315 315 315 315
309 310 311 313 313 312 315 322 323 323 324 324 324 319 319 317 320 321 321 323 321 322 324 329 320 326 321 326 322 320 319 317 317 317 316 315 314 315 316 315 315 316 316 316
311 312 314 314 314 312 316 318 317 319 324 324 323 319 317 318 319 319 319 320 321 322 325 321 328 321 322 319 320 322 316 318 320 320 316 317 317 316 314 315 314 313 314 312
314 314 314 314 313 313 317 324 315 315 321 325 327 319 318 318 319 319 321 322 322 324 324 323 320 315 323 324 323 317 314 314 314 317 315 316 314 309 308 307 306 306 305 303
315 314 314 313 313 316 319 318 316 315 318 323 323 322 317 316 318 318 321 321 321 323 322 317 321 319 320 318 324 313 311 311 312 311 313 315 308 307 305 303 300 299 297 296
315 314 313 315 314 315 316 308 310 312 316 320 320 319 322 316 320 318 316 321 322 317 315 315 316 316 318 323 311 309 309 311 308 308 308 307 305 303 301 300 299 298 296 295
313 314 314 315 317 320 314 308 310 310 317 320 311 319 318 313 313 314 315 318 317 314 316 316 316 315 318 309 308 307 306 307 306 305 304 302 301 301 300 299 299 298 297 297
312 314 316 320 313 308 310 313 319 318 315 313 311 313 317 315 315 313 314 312 316 317 314 313 317 310 304 303 302 303 303 305 304 303 302 300 301 300 300 300 298 298 298 298
316 318 316 311 309 314 315 315 318 317 315 310 310 314 314 310 314 310 311 313 314 316 315 317 314 311 303 301 302 301 302 303 303 302 301 300 300 299 298 298 297 296 295 294
311 312 310 311 313 316 314 312 311 314 313 308 310 309 309 308 311 311 311 310 310 314 311 317 315 304 300 300 301 300 300 301 300 300 299 298 298 297 296 295 294 293 293 292
312 312 308 315 310 317 315 312 312 312 307 306 309 309 309 308 309 310 310 315 315 309 313 312 307 302 300 300 300 300 299 298 297 296 296 295 293 293 293 293 292 293 293 292
310 310 310 310 314 308 307 309 309 301 302 306 308 307 311 308 309 309 312 307 308 311 312 311 304 300 300 300 299 299 296 294 295 294 293 293 293 292 291 290 289 289 289 288
303 306 309 305 300 299 299 298 301 299 300 306 306 308 310 308 309 308 308 309 312 312 312 305 301 300 300 299 298 296 294 294 294 294 292 291 292 292 291 289 287 286 285 285
300 300 302 300 302 301 300 299 299 298 300 303 308 310 313 309 308 308 314 314 313 307 304 301 299 299 299 297 297 296 294 294 294 294 292 290 289 290 289 286 284 284 284 283
303 300 297 300 299 299 298 297 297 296 301 306 306 313 308 305 308 308 308 309 305 300 299 298 298 297 298 297 295 293 294 294 293 291 290 288 287 286 285 285 284 282 283 281

GFSNW_925_thetae_042.txt.gz
Theta_e
303 303 302 303 304 305 311 313 317 317 319 321 318 325 323 321 324 322 321 320 319 319 320 319 317 318 319 320 321 322 322 323 327 324 322 322 321 322 323 335 325 327 332 324
302 302 302 303 304 306 311 315 319 319 320 322 321 320 322 322 323 323 322 322 320 319 320 320 319 320 325 325 321 322 323 324 326 322 322 323 322 320 320 322 327 326 335 325
299 301 301 303 303 307 311 317 322 322 323 319 318 322 322 324 324 321 322 322 319 320 322 322 322 321 324 324 324 315 323 323 321 324 320 322 324 322 320 322 332 326 325 319
299 301 301 303 302 305 312 318 320 322 324 324 319 325 322 324 324 321 322 321 319 321 322 322 321 321 325 323 317 320 323 321 320 318 319 320 322 322 321 321 322 325 324 320
300 301 302 302 302 306 310 319 321 322 321 322 320 322 326 324 322 321 323 322 321 321 322 320 321 323 326 323 324 323 323 325 324 325 323 321 321 320 319 319 320 318 319 320
298 300 301 301 301 306 310 313 318 322 321 323 321 325 325 325 324 323 321 322 323 324 324 325 327 326 327 324 326 326 325 328 329 329 321 318 321 320 319 318 319 319 320 320
298 299 300 300 301 303 307 312 320 324 325 322 322 324 325 325 323 326 324 325 325 326 325 325 325 325 325 326 325 325 327 329 332 331 319 326 318 316 314 315 314 315 316 316
298 299 300 301 300 302 303 308 319 327 325 321 321 323 326 327 324 325 326 326 326 326 327 329 327 327 322 323 321 322 324 327 328 330 324 320 318 316 315 315 315 315 314 314
298 298 300 301 300 300 303 303 306 318 326 324 322 325 326 325 328 327 325 325 326 326 332 335 331 332 325 325 322 317 318 324 330 325 330 327 321 315 315 315 320 316 315 316
298 299 300 301 300 301 301 305 306 313 327 325 323 323 325 326 325 328 325 323 324 325 335 328 337 332 322 328 329 323 325 327 326 326 330 327 318 315 315 321 324 317 316 316
299 300 300 300 301 302 301 308 309 314 325 325 324 323 324 325 320 326 326 328 326 334 334 339 336 332 330 327 323 325 326 330 327 331 327 326 315 315 319 321 318 317 316 317
300 300 300 301 301 301 304 309 310 313 323 327 323 322 322 324 325 328 327 329 327 328 332 333 337 326 322 330 330 320 327 325 330 326 327 319 315 315 316 317 316 317 317 316
300 300 301 303 303 305 306 309 312 324 326 325 325 325 321 321 323 324 328 333 325 328 330 332 333 323 331 326 332 328 320 319 324 321 316 316 315 315 317 316 317 316 316 316
302 301 304 306 306 307 309 309 315 325 325 322 325 321 320 320 322 323 326 328 327 329 331 335 320 325 326 333 328 328 321 319 318 318 318 316 318 318 316 316 316 315 315 312
306 307 308 307 308 308 309 311 316 319 326 324 324 320 320 320 321 321 324 326 328 329 328 317 332 326 328 326 326 330 318 319 325 326 318 319 317 312 312 311 310 309 310 306
307 307 308 309 309 310 312 320 318 321 322 326 325 319 321 320 321 321 323 325 327 327 327 328 323 319 328 325 329 319 317 316 316 319 316 316 311 308 307 306 305 304 303 301
309 310 311 313 313 313 316 319 315 319 322 324 321 322 318 320 320 321 323 324 325 326 324 322 324 321 323 320 330 317 313 313 314 312 314 311 310 307 304 302 300 299 299 298
311 312 313 314 314 314 315 310 312 315 319 323 320 315 322 318 323 320 319 325 323 320 317 317 321 319 324 327 315 313 311 311 310 309 309 307 305 303 302 301 299 299 298 297
313 313 314 315 315 320 313 312 316 313 317 322 312 320 320 316 316 315 317 320 318 316 318 318 319 316 320 316 312 310 309 310 308 306 305 304 303 302 301 300 299 299 298 299
313 314 316 317 316 310 310 315 318 320 318 314 313 316 319 316 316 315 315 313 317 320 315 314 318 311 307 306 306 306 307 306 305 304 303 302 301 301 300 299 299 297 297 295
317 320 316 312 311 314 316 318 319 317 317 311 313 315 316 313 315 313 313 314 316 317 316 316 314 313 306 303 304 304 305 305 304 303 302 301 300 299 299 298 296 294 294 292
315 314 312 313 316 315 312 310 312 316 314 308 312 313 311 311 313 312 313 310 312 316 313 317 316 306 303 303 303 303 303 302 301 300 300 299 298 297 296 295 294 293 292 290
313 312 308 316 310 315 317 314 313 310 307 306 310 309 310 309 310 310 309 311 315 313 314 313 309 302 302 302 301 301 300 300 299 298 296 295 294 294 293 292 292 293 291 289
310 310 309 312 310 308 306 308 306 301 301 306 307 308 309 309 308 310 311 308 309 312 314 313 304 301 301 301 301 299 297 295 296 295 294 293 292 291 290 289 288 287 287 286
304 306 307 304 300 299 299 298 300 299 301 306 309 309 310 308 309 310 307 310 312 312 313 307 301 300 301 300 298 295 295 294 294 293 292 292 292 292 289 286 286 285 283 283
300 300 302 300 302 301 299 299 299 298 301 306 310 311 310 309 309 309 313 313 314 308 304 300 300 300 300 299 296 295 295 296 294 293 291 290 290 290 288 285 283 284 283 282
300 300 296 299 299 299 298 297 297 297 302 306 309 312 309 306 309 309 307 307 304 301 299 298 299 298 298 297 295 295 295 295 293 292 291 289 287 286 286 285 283 283 283 281

GFSNW_925_thetae_045.txt.gz
Theta_e
299 301 300 304 302 302 306 312 316 314 313 317 317 319 319 319 321 322 324 321 321 319 318 320 317 318 317 317 320 321 322 322 326 326 322 321 319 321 323 319 321 320 317 318
299 300 300 303 303 303 307 314 316 314 315 313 316 317 318 319 322 321 324 322 321 320 319 322 319 319 324 322 320 321 322 321 323 323 322 322 321 320 319 320 320 321 317 318
298 300 300 302 303 303 308 314 316 317 316 310 312 317 317 319 320 321 322 323 321 321 320 320 321 324 324 323 320 315 322 323 321 320 318 318 322 321 320 319 317 319 318 320
298 299 300 303 303 303 308 313 315 319 322 317 314 315 316 319 322 321 322 324 321 321 321 321 321 325 324 323 317 321 321 321 319 318 320 320 320 321 321 321 321 320 319 320
298 299 300 302 303 303 306 315 316 319 320 319 319 316 317 319 320 322 323 323 321 320 320 320 321 324 325 323 321 321 321 322 321 323 322 319 317 318 318 317 317 318 317 318
298 298 298 300 303 303 306 309 313 318 318 320 320 318 318 318 321 322 322 321 322 320 320 320 324 319 322 322 322 320 323 322 318 323 315 315 313 316 316 317 317 316 317 315
297 296 297 302 303 303 305 308 313 320 319 321 320 317 316 320 321 324 322 320 322 322 321 321 321 320 323 324 323 322 323 323 316 316 313 312 316 314 313 313 313 312 312 311
297 297 301 302 302 302 304 306 311 319 312 320 320 316 317 320 321 322 324 325 323 321 323 323 323 319 316 322 322 321 324 318 318 314 315 317 316 314 315 314 314 313 313 312
298 299 302 302 302 302 303 303 303 306 319 320 319 316 317 321 323 323 325 324 320 324 326 320 323 322 322 323 319 318 319 319 312 315 316 312 317 314 314 313 316 315 314 314
298 299 300 299 300 301 303 303 303 305 315 319 316 316 320 323 322 322 324 324 324 323 312 320 317 319 322 322 320 316 312 314 312 309 311 316 318 314 314 312 314 315 314 314
298 298 298 299 300 300 301 302 304 305 312 316 319 317 319 322 320 319 323 323 323 323 321 319 316 316 317 320 324 319 316 317 311 316 319 320 313 314 314 316 313 313 313 313
298 299 299 298 300 301 300 302 303 304 310 315 317 321 322 320 318 322 321 325 324 325 324 320 315 322 313 317 317 320 320 321 318 318 317 317 312 315 314 314 314 314 314 314
299 298 297 298 300 300 301 302 305 307 311 310 313 322 322 320 320 320 321 322 324 326 324 321 319 318 314 313 315 318 319 318 318 314 317 314 317 315 315 314 314 311 309 308
299 299 300 300 300 301 302 303 305 309 309 305 319 321 320 323 322 319 323 326 326 324 322 313 311 315 320 313 317 317 317 315 317 315 317 316 313 313 312 310 309 305 303 303
300 300 300 300 301 301 302 304 306 308 310 318 321 319 320 322 323 323 325 324 322 320 312 308 316 318 315 313 312 313 316 317 312 314 315 314 310 307 306 305 305 304 302 300
298 299 301 301 303 305 306 310 307 308 312 318 317 317 319 321 321 323 323 322 322 321 315 312 316 317 313 310 309 316 314 313 314 316 311 308 305 303 302 302 301 300 299 298
300 302 303 304 307 308 310 315 315 313 310 316 314 316 317 318 319 316 319 320 318 319 316 313 314 315 314 309 312 314 313 311 311 310 308 307 305 303 300 299 299 298 297 296
304 305 307 308 308 309 310 311 312 312 319 313 313 312 315 316 316 312 314 318 315 313 314 312 308 310 304 310 312 311 311 309 307 306 306 304 302 300 299 298 297 297 296 296
309 311 311 309 309 314 315 314 316 314 317 310 307 314 316 313 312 310 311 311 313 313 309 313 309 311 313 313 310 309 309 307 305 304 303 302 301 300 298 298 297 296 295 295
309 312 314 309 313 310 313 316 311 310 309 307 309 310 313 313 307 308 308 304 309 312 310 310 310 307 305 304 305 306 306 304 302 302 302 301 301 300 299 298 297 295 294 292
313 313 310 311 312 314 307 305 307 308 306 305 308 311 313 310 309 309 305 308 306 308 308 308 309 309 305 304 304 303 305 304 303 302 301 300 298 298 297 295 293 291 290 289
314 312 312 312 311 307 305 306 306 306 307 305 308 308 310 306 309 306 306 309 303 310 309 310 309 305 302 303 302 303 302 301 300 300 299 299 298 295 294 293 291 289 287 287
310 307 304 310 304 308 307 306 310 308 303 304 304 306 304 304 304 305 307 310 305 304 310 310 305 303 302 302 301 301 300 298 297 295 294 293 292 292 291 290 289 287 284 284
305 304 307 306 308 304 302 304 304 299 299 302 304 304 304 302 305 304 309 306 307 310 310 306 302 302 301 301 299 299 297 294 294 293 291 290 289 288 287 286 286 285 283 283
300 301 304 301 299 299 298 297 299 297 299 302 304 304 304 304 306 305 305 307 309 306 305 304 301 301 300 298 295 294 293 292 293 292 291 290 288 286 285 284 283 282 281 281
298 298 302 300 301 301 299 298 299 297 297 299 300 304 306 307 305 308 309 305 306 305 301 300 300 300 297 295 294 294 294 292 292 291 290 289 287 285 283 284 283 281 281 281
298 298 296 297 298 297 297 296 297 296 299 304 303 307 306 303 307 306 303 303 301 299 299 299 298 297 294 293 294 293 293 292 290 290 288 286 286 285 283 282 282 282 280 280

GFSNW_925_thetae_048.txt.gz
Theta_e
299 297 299 303 302 303 303 306 311 313 313 315 313 319 317 316 318 319 321 323 324 319 317 317 317 317 316 317 319 320 319 321 322 321 321 320 320 320 321 317 318 318 315 316
297 296 296 300 302 303 304 307 311 312 314 316 312 315 317 317 318 321 321 323 322 319 317 318 317 316 321 321 318 319 320 321 323 323 321 321 323 320 318 320 316 318 316 317
297 296 295 299 300 304 304 308 312 314 315 313 312 313 317 318 316 316 318 320 321 322 320 318 318 322 323 321 319 318 319 319 320 320 319 317 320 320 317 316 315 317 317 318
297 296 297 298 301 304 304 308 310 312 317 316 314 312 314 318 317 316 319 321 321 322 320 319 320 324 322 321 317 320 318 319 318 317 318 319 319 319 319 319 318 317 317 317
297 297 298 297 301 303 303 308 312 313 315 314 315 313 313 315 315 316 317 321 321 321 320 318 319 323 321 320 320 319 318 318 319 320 318 317 317 316 316 317 317 317 317 317
296 297 297 298 300 303 303 305 309 313 313 315 315 315 313 314 313 315 314 319 320 322 320 317 317 319 320 320 318 319 319 319 315 319 313 315 315 316 315 316 315 316 314 313
295 296 297 298 300 303 304 304 309 316 315 317 316 315 314 314 314 314 318 315 318 319 318 318 317 316 321 321 321 319 318 318 312 314 311 315 317 315 314 312 312 310 310 311
295 295 297 299 299 300 304 305 308 313 313 316 318 317 315 315 314 316 316 321 320 318 320 320 320 316 318 320 318 321 320 314 315 312 314 316 316 312 311 312 314 312 312 313
295 296 299 299 298 299 303 304 305 306 314 315 318 318 316 316 316 315 321 323 319 323 319 314 319 320 322 323 320 317 316 313 314 313 313 313 314 313 311 312 314 313 313 315
296 298 297 296 297 299 303 303 304 305 310 314 317 319 317 314 316 318 322 323 323 319 310 315 315 318 320 320 318 313 312 312 312 306 309 311 313 312 312 311 311 313 312 312
297 297 297 297 298 302 303 302 302 303 307 310 314 315 313 314 316 319 319 321 320 317 316 318 315 311 316 317 318 315 315 314 309 311 310 314 315 313 313 310 312 311 311 311
297 298 299 300 303 302 302 302 302 302 306 310 309 310 310 312 314 318 317 319 321 321 321 317 314 318 310 315 319 318 318 313 314 315 314 314 314 314 312 312 313 313 312 312
297 298 301 302 302 302 301 303 303 303 305 309 311 313 317 319 320 320 319 317 321 322 320 319 317 316 311 315 312 317 317 318 318 314 316 316 314 313 311 309 306 305 306 306
298 298 298 298 300 300 300 301 304 304 309 307 311 315 319 321 319 320 319 318 320 319 317 313 312 313 315 310 316 314 315 314 314 316 314 313 311 309 306 304 303 302 301 301
298 298 298 299 300 301 300 300 304 308 310 311 310 315 320 322 321 322 325 319 319 314 310 309 316 314 314 310 310 310 314 313 312 312 314 311 308 305 305 304 303 301 299 298
297 298 298 299 300 300 302 303 302 305 306 310 311 314 318 320 321 321 321 321 320 319 315 312 315 315 310 310 308 314 313 312 312 313 308 305 303 301 301 300 299 298 297 296
298 299 299 300 300 301 304 305 308 303 306 309 311 314 317 318 317 315 319 317 314 318 315 312 312 315 311 305 311 313 311 308 307 305 304 304 303 301 299 298 297 296 295 294
298 298 299 300 300 301 304 306 311 308 308 309 312 314 314 315 314 316 314 314 312 313 313 309 305 309 301 309 311 310 307 307 306 304 304 302 299 298 297 296 296 295 295 293
298 299 302 304 304 307 305 308 307 309 311 311 306 314 316 311 310 308 308 308 311 310 309 309 310 307 308 310 310 307 306 305 303 301 300 299 298 297 297 296 295 294 292 291
301 303 307 306 307 307 307 307 310 310 307 305 307 308 313 311 305 307 308 305 309 312 310 309 306 307 304 304 304 304 303 302 301 300 299 298 298 297 296 295 294 292 291 289
306 310 308 311 310 309 309 307 306 306 304 303 307 309 312 309 309 308 302 307 302 311 311 309 310 308 305 304 304 304 303 302 301 300 299 299 298 297 295 293 291 289 288 288
311 311 311 309 308 304 306 305 303 306 307 305 307 308 309 305 306 305 305 308 302 310 308 311 309 305 304 306 304 304 302 301 300 299 299 297 296 294 292 290 288 287 286 285
311 305 303 308 301 307 301 305 307 306 303 303 303 306 303 304 304 304 306 304 305 302 308 304 305 303 302 302 301 300 298 297 296 295 294 293 292 291 289 286 285 285 284 281
302 301 304 304 305 302 302 303 303 299 299 302 301 303 305 300 306 304 310 307 307 305 307 305 303 302 301 300 298 296 295 293 293 292 291 289 288 287 287 285 284 283 281 280
298 300 303 300 299 299 298 297 299 297 298 300 303 302 304 304 305 304 305 307 308 302 303 303 301 300 299 296 295 293 292 291 291 290 288 287 286 285 284 283 282 282 281 280
296 297 301 299 301 300 298 298 299 298 297 297 299 303 304 305 305 306 306 304 308 305 301 300 300 297 295 294 294 293 292 291 290 289 287 286 285 284 283 282 281 281 281 279
296 297 296 297 298 298 297 296 297 296 299 304 301 306 305 302 306 304 302 302 300 299 298 298 296 295 294 293 292 292 291 290 290 289 287 285 283 283 283 282 280 280 280 279

GFSNW_925_thetae_051.txt.gz
Theta_e
298 299 302 301 301 301 304 303 307 311 313 316 313 315 316 315 317 317 319 321 323 323 315 316 315 316 315 312 315 316 317 317 319 319 319 319 318 318 319 317 318 316 314 315
298 299 302 301 301 301 304 304 306 312 312 316 315 313 314 316 317 318 318 321 322 320 317 316 316 316 316 318 316 318 318 319 319 319 317 319 322 320 319 317 313 317 316 317
298 298 301 299 299 302 303 305 307 312 313 313 314 314 315 317 315 316 316 317 319 321 320 316 317 317 322 318 317 317 317 319 318 319 318 317 321 320 317 317 316 316 315 316
298 301 300 299 299 301 303 305 305 309 313 314 316 313 314 317 317 315 315 315 317 320 322 318 318 322 322 319 316 317 317 319 317 316 316 316 317 317 317 318 316 317 316 316
298 300 299 299 298 302 303 305 308 309 311 311 314 314 314 315 316 315 315 316 320 317 320 320 319 321 320 320 319 318 316 317 316 320 317 317 318 316 315 315 316 316 316 315
298 299 297 298 299 300 303 302 305 308 310 311 312 314 312 313 315 315 314 314 315 316 320 318 316 317 318 317 318 316 316 317 314 317 313 315 315 314 315 315 314 314 314 312
298 298 297 296 298 299 302 302 306 311 309 312 312 311 313 312 313 314 313 313 313 315 317 317 316 316 318 319 318 317 316 314 310 312 311 313 315 313 314 313 311 309 310 310
299 298 297 297 297 300 301 301 305 311 304 313 312 312 312 312 312 313 313 313 313 312 318 319 320 315 318 318 318 320 316 312 312 313 314 313 316 311 311 312 313 312 310 310
298 297 297 297 298 299 299 300 304 306 311 313 314 313 313 313 312 312 312 312 315 320 317 313 320 322 322 323 318 315 314 312 314 308 314 316 315 313 310 311 313 311 311 311
297 297 297 298 298 299 299 302 304 305 308 311 314 315 315 312 312 313 312 318 321 318 310 314 315 316 319 320 318 316 313 311 315 307 311 312 311 311 310 312 311 311 311 312
296 296 295 297 296 298 300 299 303 304 306 307 311 311 314 313 313 314 314 320 318 314 317 315 312 309 316 315 316 315 318 316 310 309 308 317 311 311 310 309 310 310 310 310
295 295 296 297 296 298 299 301 302 302 303 307 305 306 307 309 311 312 314 316 318 317 318 313 311 313 306 314 317 315 316 316 316 314 313 312 313 312 311 310 311 310 310 309
296 298 298 298 299 298 297 301 303 302 303 304 306 310 312 312 311 315 316 314 318 319 315 313 314 315 311 314 312 316 316 314 315 315 316 315 312 308 307 308 307 307 308 304
296 297 297 297 297 297 298 302 303 302 306 306 309 310 314 315 319 318 317 316 317 315 314 310 310 312 314 309 315 316 316 314 314 314 313 312 309 305 304 303 302 301 300 301
297 297 297 297 299 300 302 302 302 302 303 310 311 310 312 318 320 319 318 318 316 312 310 307 312 314 315 311 313 313 312 315 314 313 313 312 309 304 303 302 301 300 299 298
296 302 302 301 301 300 300 301 300 304 306 308 309 310 312 317 319 318 316 317 315 313 311 309 314 313 312 314 315 314 312 312 310 313 311 305 303 301 300 300 298 297 297 296
298 298 299 300 300 300 301 302 303 303 306 308 307 308 310 318 316 312 316 313 312 314 313 308 311 314 309 301 311 312 310 307 305 304 304 303 301 300 298 297 296 295 294 293
298 298 299 300 300 300 300 302 303 303 307 307 308 310 311 314 315 315 312 313 312 313 312 308 306 309 300 311 310 308 306 305 304 303 303 301 298 297 296 295 295 294 293 292
299 299 300 300 299 300 302 304 304 306 305 306 304 311 313 311 311 308 307 311 311 310 310 310 312 307 312 308 308 307 306 306 301 299 298 298 297 296 295 295 293 292 290 290
297 301 302 303 301 304 305 306 307 307 308 308 306 308 312 312 305 307 306 304 309 312 310 308 309 309 305 303 304 303 302 300 299 299 298 297 296 296 295 294 292 291 289 289
300 303 304 306 306 306 304 304 306 305 305 304 306 308 312 308 309 308 303 307 305 314 312 313 310 310 306 303 303 302 301 301 301 300 298 297 297 296 293 291 290 289 288 287
303 308 307 307 308 305 306 304 303 305 307 304 307 307 308 305 306 304 304 307 302 312 307 310 312 305 304 304 302 302 301 301 300 299 299 297 295 293 291 289 288 288 286 284
310 305 302 306 301 307 306 308 307 306 302 303 303 306 302 303 303 301 300 302 304 303 310 311 304 303 304 303 302 300 300 299 298 296 295 293 291 289 288 287 286 285 283 282
301 305 303 304 304 302 302 303 303 299 299 300 302 303 304 300 304 302 301 305 305 300 302 303 303 303 301 299 298 296 295 294 293 293 291 289 287 286 286 285 283 281 281 281
299 301 302 301 299 299 298 297 299 298 298 299 302 302 302 304 305 302 304 306 308 300 300 303 301 299 297 296 295 293 292 292 291 290 289 287 286 285 284 283 282 280 280 280
297 296 300 298 301 299 298 298 299 298 297 296 297 299 300 305 303 305 305 300 302 304 301 299 297 296 295 294 293 293 291 290 289 288 287 286 285 284 282 282 280 280 279 279
297 297 296 296 297 298 297 296 297 296 299 303 299 305 305 302 304 303 301 301 300 299 298 296 295 294 294 293 291 291 290 288 287 286 285 285 283 281 281 281 280 279 279 278

GFSNW_925_thetae_054.txt.gz
Theta_e
300 300 299 301 304 302 302 304 304 306 308 315 315 317 314 315 317 316 317 319 321 322 314 314 314 314 314 311 312 314 316 313 315 318 318 316 316 317 316 317 318 315 313 314
301 300 299 299 302 302 302 304 302 309 309 312 314 315 315 314 316 316 316 318 320 320 318 315 314 314 314 312 313 315 316 315 315 315 315 318 320 318 317 315 312 316 315 316
301 299 299 300 303 301 302 304 303 310 309 310 311 314 315 314 315 315 315 316 316 320 320 316 315 315 317 315 313 316 315 316 314 316 315 315 321 319 317 317 315 316 314 315
301 300 299 299 302 301 302 303 303 308 311 309 312 311 313 314 315 314 314 316 316 319 321 318 316 319 321 318 317 316 315 316 316 314 314 315 315 316 315 316 315 317 316 314
301 300 299 299 302 302 302 303 303 308 308 307 310 313 313 313 314 315 315 316 316 315 318 318 319 320 319 319 315 316 314 316 315 318 316 315 318 316 314 314 315 314 314 314
300 299 299 299 302 302 303 301 304 307 308 309 308 311 312 312 314 314 314 313 314 314 316 316 317 316 316 317 318 316 314 314 313 318 313 315 315 315 314 314 313 314 315 313
300 299 299 300 301 301 300 301 304 308 307 310 308 308 312 312 312 314 314 314 313 313 315 315 315 315 315 316 317 314 313 313 309 311 311 314 316 313 313 313 312 310 308 310
299 298 298 301 301 300 301 301 303 307 306 309 309 309 309 310 311 313 314 313 312 310 312 312 316 316 318 318 316 318 313 310 311 314 314 313 314 311 311 312 311 309 308 309
298 299 300 299 300 300 301 302 302 306 309 309 309 309 309 311 310 310 311 311 310 314 314 311 315 319 321 322 319 314 312 310 312 308 312 313 312 312 308 309 311 309 309 310
299 300 299 299 299 299 301 301 301 304 306 308 310 310 310 309 310 309 309 310 313 314 304 309 313 317 318 319 320 317 313 309 310 305 310 313 312 311 309 312 312 308 309 309
299 299 298 299 299 299 300 300 300 302 306 306 309 307 310 310 310 308 309 314 314 311 314 313 315 309 316 316 317 318 320 317 310 308 309 318 310 309 311 309 309 308 309 308
299 298 298 299 299 299 300 299 300 302 304 306 304 304 305 306 309 310 309 311 313 313 315 310 307 310 306 313 318 313 320 317 317 316 316 312 310 310 309 307 309 309 309 307
298 298 298 298 299 298 298 298 299 302 304 305 305 306 309 309 309 310 311 311 315 315 312 310 310 313 309 312 313 316 314 312 314 314 315 314 313 309 308 309 309 308 307 303
296 296 295 295 296 296 299 299 299 301 302 302 307 308 309 312 313 311 311 313 315 312 311 308 309 310 312 309 314 315 314 314 314 313 313 312 311 306 305 303 303 302 300 300
296 296 295 295 296 296 298 298 298 302 302 306 305 306 307 311 313 315 314 314 314 310 308 305 311 311 312 307 309 311 312 314 314 314 314 313 311 304 303 303 301 300 299 297
296 295 297 296 297 297 297 300 300 302 302 302 306 307 308 311 317 317 315 315 312 311 310 305 310 311 313 311 311 314 312 311 312 314 311 305 303 300 300 300 298 298 297 296
296 297 297 296 297 297 301 301 301 304 304 305 302 304 307 315 316 313 314 311 311 312 309 306 310 311 310 300 311 312 310 308 307 304 304 303 303 301 297 297 296 295 293 293
297 297 297 299 298 300 300 302 302 305 306 306 302 307 308 312 315 315 312 311 310 311 309 304 305 307 300 312 310 307 305 304 303 302 301 302 298 296 295 294 294 293 292 291
299 300 300 300 299 299 299 302 302 304 303 304 302 309 311 307 310 307 310 309 310 308 308 309 309 306 312 311 307 305 304 305 300 299 298 298 296 295 295 294 293 292 291 290
299 299 300 299 300 303 304 305 305 305 304 306 305 305 308 311 304 306 306 304 309 313 311 308 305 310 305 304 304 303 301 299 299 298 297 296 296 295 294 293 292 291 291 291
300 300 300 302 303 302 303 304 306 304 306 304 304 306 309 307 310 307 301 306 306 313 312 313 311 313 307 303 303 302 300 300 300 299 297 297 295 294 292 291 291 290 290 289
301 302 303 304 306 304 304 305 302 305 307 303 306 307 307 304 306 305 304 308 305 314 307 311 313 307 304 303 302 301 300 299 298 298 296 295 294 292 291 290 289 288 286 284
299 304 302 305 300 307 304 306 306 306 302 302 303 305 302 302 304 302 303 306 309 304 310 313 307 304 303 302 301 300 299 298 297 296 295 292 291 290 289 288 286 285 284 282
300 302 302 303 303 302 302 303 304 299 299 300 301 302 303 300 304 301 308 305 305 308 309 303 303 302 301 300 299 297 296 294 293 292 291 290 289 287 286 285 283 283 282 281
298 299 302 301 299 298 298 297 299 297 297 299 302 302 303 303 304 302 304 307 307 302 298 302 300 299 298 297 295 294 293 292 290 289 288 286 286 284 283 282 281 281 280 280
296 296 299 297 299 298 298 297 299 297 297 297 299 302 305 305 303 304 304 303 303 303 300 298 296 295 294 294 293 292 291 290 289 287 286 285 284 283 281 280 279 279 279 279
296 296 293 295 296 295 296 295 295 294 299 303 301 304 303 302 303 302 300 299 299 298 296 295 294 294 293 291 290 290 289 288 287 286 285 283 282 281 281 280 279 279 278 278

GFSNW_925_thetae_057.txt.gz
Theta_e
304 304 302 301 301 301 304 303 305 302 303 309 312 313 313 313 315 316 317 318 320 321 314 315 315 315 315 311 314 316 317 318 321 320 318 316 318 321 320 325 321 318 319 320
304 304 302 301 301 300 303 304 304 303 304 308 311 312 313 313 315 317 317 318 318 320 319 315 315 314 313 312 315 318 318 317 319 317 317 319 321 319 318 317 317 320 326 323
305 304 302 301 300 301 302 303 305 306 306 307 309 311 312 315 313 315 316 317 316 319 319 317 315 315 315 313 314 315 316 317 319 319 318 318 322 321 318 321 323 323 320 321
305 304 302 301 300 301 302 302 305 306 308 306 308 310 311 312 315 313 315 316 317 319 318 319 316 319 320 317 317 316 319 320 317 315 314 316 318 320 319 320 321 323 322 317
305 304 302 301 300 302 301 302 304 304 308 306 307 310 312 312 313 314 315 317 316 317 318 318 318 317 319 319 316 316 315 319 317 317 315 315 316 316 317 318 317 317 316 317
304 303 302 300 300 302 301 301 301 304 307 308 306 309 310 312 312 313 313 314 315 315 316 316 315 316 318 319 318 318 317 318 318 320 315 316 319 318 316 316 315 318 319 319
304 302 301 300 300 301 301 301 302 306 306 308 307 306 310 311 312 313 312 314 314 313 312 313 315 315 315 317 317 317 317 316 315 318 313 323 320 313 314 317 316 313 312 312
303 302 300 300 300 299 301 301 303 306 303 308 308 306 309 311 312 313 313 313 313 311 312 313 314 316 319 318 317 316 314 314 315 321 320 317 314 313 315 317 317 313 313 310
302 301 300 300 300 302 301 301 302 304 307 308 307 307 306 311 311 311 312 311 311 312 312 311 315 321 321 322 319 313 311 312 320 313 320 322 319 313 310 312 317 312 311 312
302 300 300 300 300 301 301 301 302 303 306 307 308 309 308 308 309 311 310 312 312 312 309 314 317 317 320 325 321 319 317 314 319 314 321 318 312 312 310 319 319 312 311 312
301 300 300 300 300 301 301 301 301 303 306 306 308 307 309 309 309 310 309 312 312 312 313 314 315 315 318 320 318 319 320 319 319 314 318 322 312 309 316 318 310 312 311 312
300 299 299 300 301 301 300 300 301 301 304 306 304 304 305 306 309 309 309 311 312 313 315 313 312 315 311 318 320 315 322 319 321 319 322 316 311 315 311 309 313 311 312 310
299 299 299 301 301 301 300 299 299 300 303 303 305 306 308 307 307 308 313 310 313 313 313 314 316 316 313 318 317 318 315 315 318 317 316 315 313 312 310 310 311 309 310 307
300 299 299 299 299 299 299 299 300 300 303 303 305 306 307 307 308 309 309 312 313 312 313 311 311 316 313 316 318 318 316 317 316 316 315 314 314 312 310 308 307 305 304 303
299 299 299 298 297 298 298 298 298 299 301 303 304 304 305 307 309 310 310 311 314 313 312 309 315 312 313 310 313 315 315 316 318 320 317 318 317 313 307 307 306 304 302 300
298 298 297 297 298 298 298 298 299 298 300 303 304 304 307 309 312 312 312 313 314 314 314 311 312 311 315 316 319 316 314 312 314 316 314 307 305 303 304 304 302 301 301 299
296 296 295 296 298 297 297 298 299 299 300 304 303 306 306 308 313 314 315 315 315 314 314 310 314 314 313 309 320 315 312 311 309 306 307 307 304 306 301 300 299 297 296 295
295 295 296 296 296 297 298 300 301 299 301 304 303 304 308 310 314 315 312 313 313 311 313 306 313 310 307 314 312 310 308 306 306 305 303 305 300 298 297 296 296 295 294 293
296 296 297 297 298 295 297 301 301 301 303 304 302 307 312 308 309 308 309 309 311 309 310 311 313 311 317 314 311 309 306 307 304 300 299 299 300 298 296 296 295 294 293 293
297 298 299 299 298 300 302 301 303 303 303 305 305 303 309 310 307 308 308 306 310 314 313 310 311 314 308 305 306 305 303 301 300 300 299 298 298 297 296 295 295 294 293 292
298 300 299 298 301 301 301 303 304 302 305 304 304 303 309 308 312 309 303 307 306 315 313 316 316 314 310 305 305 302 301 300 301 300 299 298 296 296 294 293 293 292 291 289
301 302 302 302 302 301 302 305 303 305 305 304 306 306 307 305 306 309 305 308 306 315 307 311 315 308 304 304 302 301 300 300 299 298 297 296 294 293 292 291 290 288 286 285
300 303 301 303 300 304 306 308 307 307 303 303 304 305 303 303 303 303 305 308 309 305 310 313 307 304 302 302 301 300 299 298 296 295 293 292 291 290 290 288 287 286 284 284
298 300 303 302 302 301 301 304 304 299 299 300 301 302 304 300 304 303 309 306 304 311 313 307 304 300 300 299 298 297 295 293 293 292 291 290 289 287 286 286 285 284 283 282
297 298 302 301 299 298 298 297 298 297 297 299 302 302 303 303 304 304 306 309 307 304 304 303 299 298 297 296 294 293 292 291 290 289 287 286 285 285 284 283 283 282 281 281
295 293 294 295 297 295 295 295 297 295 296 297 300 303 306 306 304 305 303 306 303 302 300 298 296 295 294 293 292 291 289 288 288 286 285 284 283 283 282 281 280 280 280 279
296 294 290 291 292 292 292 292 293 293 298 303 302 300 299 301 302 300 299 298 297 295 295 294 293 292 291 290 289 289 288 287 286 285 284 282 281 281 281 280 279 279 278 278

GFSNW_925_thetae_060.txt.gz
Theta_e
305 305 304 304 303 302 302 302 304 304 304 305 308 312 312 311 313 317 318 319 321 323 316 315 315 317 317 317 318 319 320 320 321 321 321 321 322 323 324 324 323 324 325 322
303 306 305 304 303 302 303 303 304 305 305 306 307 310 312 311 313 315 318 318 319 322 323 317 316 316 317 317 318 319 320 320 321 321 321 322 322 322 322 322 322 323 329 322
303 302 305 304 303 302 303 304 305 306 306 307 307 309 310 311 311 314 316 317 318 319 320 321 318 317 317 317 318 318 319 320 320 321 319 319 321 321 321 321 324 321 323 321
303 303 305 305 303 302 302 304 307 306 305 307 307 308 310 311 312 313 316 318 318 318 319 322 321 318 321 316 317 318 320 320 320 319 318 318 318 318 319 320 320 320 321 319
303 303 303 304 303 302 302 304 307 308 307 307 308 309 310 310 311 312 315 316 317 318 320 320 320 319 322 322 320 320 320 320 321 320 319 318 318 318 318 319 319 322 321 321
303 303 304 304 302 302 301 301 305 308 307 307 307 310 308 310 311 313 313 315 317 318 317 317 317 316 317 318 321 322 321 321 322 321 320 320 322 321 319 319 321 322 322 321
303 303 302 304 302 301 302 302 305 308 308 308 306 306 307 308 310 312 313 314 315 314 313 313 315 316 316 318 321 322 323 322 323 322 321 331 320 320 320 320 320 321 320 320
303 303 302 303 302 301 301 302 305 306 310 307 307 306 306 308 310 311 312 315 314 314 313 314 312 316 318 320 320 322 322 323 325 331 324 321 319 317 320 321 321 321 321 320
303 303 302 303 301 301 301 302 303 308 309 308 306 307 306 309 312 313 312 313 315 315 317 317 313 312 314 322 323 318 319 320 325 321 326 332 320 320 319 319 323 320 319 318
303 303 303 302 301 301 301 302 304 306 307 306 307 309 308 308 311 314 313 315 315 314 317 322 320 315 317 321 325 324 322 321 327 325 328 324 320 317 316 322 324 320 319 319
302 303 302 301 300 302 301 302 303 306 307 307 308 307 308 309 312 315 314 316 315 317 318 318 319 325 318 321 320 323 324 325 327 325 331 330 316 315 320 322 321 320 319 319
303 302 301 300 300 301 301 302 302 304 307 308 306 306 308 307 309 312 315 312 314 315 316 318 317 324 322 318 321 321 326 323 326 323 325 323 317 321 319 319 320 318 319 318
302 301 300 301 301 300 301 302 302 303 306 306 307 307 308 308 308 310 311 312 311 314 314 317 319 326 321 328 322 320 319 318 323 322 321 320 319 317 317 316 317 316 316 316
300 300 300 301 300 300 301 302 302 303 305 306 306 306 306 307 308 309 311 312 316 317 317 318 318 323 316 322 319 322 321 320 320 323 322 318 318 319 318 316 314 314 314 314
300 300 299 300 300 300 300 301 302 303 304 305 306 305 304 307 310 311 311 314 317 320 321 313 319 319 321 319 319 322 319 320 324 325 322 323 322 320 320 317 315 314 313 312
299 299 300 300 298 299 299 301 300 301 301 303 306 305 305 305 306 311 313 313 314 317 318 320 318 317 320 325 322 319 317 318 320 321 320 320 314 311 315 316 315 312 311 310
299 299 298 299 298 299 300 300 301 299 302 303 303 307 307 304 306 313 314 315 315 315 316 318 319 320 318 322 323 318 319 319 319 317 315 317 313 316 310 310 310 307 308 306
298 298 297 297 296 297 299 302 298 299 302 304 306 308 308 310 311 315 316 318 316 317 317 317 319 318 319 322 319 318 317 318 315 315 313 313 311 309 307 306 305 305 304 303
297 298 297 296 298 299 300 301 299 300 303 304 304 308 312 310 312 311 310 311 314 311 313 317 318 319 320 316 316 317 317 317 318 313 309 308 309 308 305 304 304 304 301 300
297 297 299 299 299 299 300 300 301 301 303 304 305 305 307 310 310 310 312 312 315 314 312 314 313 320 317 316 315 315 315 314 310 310 309 308 307 306 304 304 303 302 300 299
298 299 301 300 298 300 303 303 303 305 306 306 306 306 310 311 317 314 311 311 309 317 314 319 319 318 315 308 312 311 310 308 308 307 307 306 306 304 302 300 300 298 297 295
300 301 301 299 301 303 304 304 306 306 305 308 308 307 309 310 312 314 310 313 310 320 309 312 318 309 305 305 306 305 305 304 303 303 303 302 301 300 299 297 295 292 289 287
300 303 303 303 301 303 306 306 307 308 307 307 307 309 309 309 310 308 309 313 313 306 312 315 307 303 302 302 302 300 299 297 296 294 294 294 293 292 291 290 288 288 287 286
300 302 304 305 305 303 303 306 307 302 304 306 306 305 309 305 309 307 314 309 308 314 317 309 304 301 299 298 296 295 294 293 292 291 290 289 289 288 287 286 286 285 285 284
297 298 300 301 299 297 296 298 300 298 299 302 304 304 307 305 308 307 309 312 310 307 305 302 299 298 296 294 293 291 290 289 289 288 288 287 287 286 285 284 284 283 283 282
294 291 292 293 295 294 294 293 295 295 296 299 302 304 309 308 309 306 305 309 302 300 298 296 296 293 292 291 290 289 288 288 288 287 287 286 285 284 283 282 282 282 281 281
294 292 289 289 290 290 291 292 291 292 297 303 303 302 301 303 302 300 297 297 296 296 295 293 292 292 291 290 289 288 288 287 286 285 284 284 283 283 283 283 281 281 280 279

GFSNW_925_thetae_063.txt.gz
Theta_e
306 305 305 305 305 304 303 304 306 304 305 306 309 309 311 312 311 312 315 320 315 319 321 317 317 318 319 317 318 320 320 321 324 323 320 320 323 323 324 326 324 324 326 326
303 305 305 305 305 304 304 305 305 305 306 308 311 308 310 310 312 311 314 318 320 320 322 320 317 317 319 318 319 320 320 320 323 322 323 322 322 324 324 324 324 325 332 325
302 303 305 305 305 304 303 304 305 307 308 308 309 308 308 310 311 312 314 315 318 322 324 322 320 318 317 319 319 319 321 320 322 323 322 321 321 321 322 323 328 324 323 322
302 303 302 305 305 304 303 304 307 307 309 310 309 308 308 308 309 312 313 315 316 321 322 321 322 319 319 318 317 319 320 321 320 320 320 320 320 320 320 322 322 324 322 321
302 302 303 306 305 304 303 304 307 308 309 309 309 309 308 308 309 311 314 315 315 317 321 321 322 320 320 318 319 320 320 322 321 320 319 319 319 318 319 318 318 319 319 319
301 302 302 302 305 304 303 303 305 309 308 310 310 311 307 307 309 310 311 312 315 317 320 319 318 318 318 320 322 320 322 324 323 324 320 320 324 319 319 319 319 319 320 320
302 302 303 304 303 303 301 304 306 309 309 310 311 308 308 307 309 310 311 312 315 316 315 314 315 316 316 317 318 322 321 322 325 327 326 329 321 320 320 320 319 319 320 319
303 302 303 303 302 303 301 303 307 309 311 309 307 308 308 307 309 309 311 313 313 315 314 315 314 316 317 317 318 320 324 324 327 330 328 321 320 320 320 320 320 320 319 319
302 302 303 303 302 303 302 304 305 309 311 309 308 308 308 309 309 310 311 313 315 315 316 316 313 315 315 319 319 319 321 325 329 327 327 329 321 320 320 320 324 321 320 320
302 303 303 303 301 302 302 304 305 308 309 307 308 309 308 308 310 312 312 316 317 316 319 322 316 313 310 317 324 325 325 327 331 328 328 323 320 320 320 325 325 320 320 320
302 302 303 303 303 301 302 304 305 308 308 308 308 309 308 308 310 313 312 316 317 319 320 318 316 322 314 315 317 325 325 327 331 328 332 331 320 319 322 324 322 322 322 321
303 303 303 302 302 301 302 305 305 306 309 309 308 310 308 309 308 311 312 315 314 315 315 318 317 324 324 316 324 320 327 324 327 325 325 323 320 322 321 322 323 323 323 321
303 303 302 303 302 300 302 304 304 305 308 309 309 308 309 309 309 310 314 315 313 314 314 316 319 321 318 325 320 318 321 321 325 325 323 322 322 321 321 321 322 322 321 321
303 303 303 301 300 302 303 303 304 305 307 309 309 307 307 308 309 310 312 313 313 314 316 318 321 321 313 320 316 317 316 317 320 320 319 318 322 322 321 321 321 320 318 319
303 303 302 300 301 301 302 303 303 304 306 308 309 307 306 305 305 309 311 314 314 315 317 319 318 313 312 316 318 318 315 316 323 324 319 323 322 322 323 323 322 319 318 318
300 300 300 300 300 302 302 302 303 304 305 306 307 306 307 306 306 308 312 313 315 316 317 319 314 312 316 323 321 317 314 314 316 319 319 320 322 317 317 321 321 320 318 317
299 299 300 300 300 301 303 304 303 302 303 304 305 306 306 306 306 307 312 312 314 315 316 318 318 317 317 323 322 315 315 316 316 317 318 320 320 319 316 316 318 315 316 315
300 299 299 299 299 301 302 301 300 302 304 304 304 307 309 307 308 310 313 314 314 313 315 316 318 319 320 321 316 315 315 315 316 317 319 319 318 315 314 313 313 313 313 312
298 298 298 299 300 302 302 299 301 304 304 305 305 308 311 311 311 311 314 314 316 314 318 318 317 319 321 317 315 315 315 317 317 317 318 318 315 315 314 312 311 312 310 309
296 298 300 301 301 300 300 302 303 303 304 306 305 307 311 308 311 314 313 316 317 316 318 316 318 320 316 314 313 317 317 316 317 317 317 315 314 314 312 310 309 309 307 306
301 302 301 300 300 302 303 303 304 304 304 305 306 308 308 305 307 314 313 316 314 318 318 319 317 318 311 308 310 311 312 312 312 312 311 310 311 312 309 308 307 305 304 301
301 301 299 300 302 302 304 305 305 305 306 308 309 308 304 302 297 311 309 315 312 319 312 313 315 306 303 304 304 303 305 306 307 306 307 306 306 305 303 300 294 291 289 288
303 303 302 303 303 306 306 304 307 309 309 309 310 309 306 304 308 311 313 317 316 310 313 312 306 302 300 299 299 297 296 296 296 295 295 293 291 290 290 290 288 287 286 285
302 304 304 306 305 303 302 300 306 303 305 308 310 309 310 307 311 308 314 309 310 315 316 309 301 299 298 295 294 293 291 290 290 289 289 289 289 288 288 287 287 286 286 284
297 298 298 299 298 297 296 295 299 297 299 307 308 307 308 307 309 307 308 312 312 307 306 301 298 296 294 292 291 290 289 289 289 289 289 288 287 287 287 286 285 285 284 283
294 291 294 293 297 295 293 293 294 293 294 304 306 305 312 308 309 308 305 308 302 301 298 296 295 293 293 292 291 290 290 290 289 288 287 286 286 286 285 284 284 283 282 282
293 293 289 290 291 291 290 292 292 291 297 304 304 304 301 304 304 300 296 297 295 295 295 293 293 292 291 290 290 289 288 288 287 287 286 286 285 284 284 283 282 281 280 280

GFSNW_925_thetae_066.txt.gz
Theta_e
304 305 304 305 306 305 304 304 306 305 305 308 308 309 310 309 308 311 312 313 313 314 316 319 318 318 319 317 318 319 320 323 325 322 321 321 321 323 327 330 329 329 332 327
303 304 305 306 306 305 305 304 305 304 306 309 308 309 308 309 309 311 312 313 314 318 320 319 321 318 319 319 318 319 321 321 324 324 323 322 320 322 323 325 326 328 333 327
302 304 305 305 306 306 305 304 305 307 307 308 309 309 308 309 309 309 312 313 314 317 320 321 322 320 318 321 321 319 321 322 323 327 326 323 322 321 325 326 331 329 329 326
302 302 302 303 306 306 304 303 306 308 308 308 310 308 308 309 308 309 311 313 313 316 318 319 320 321 318 318 319 320 323 324 323 320 321 321 322 321 320 320 324 328 325 322
301 301 301 303 305 306 305 300 307 308 307 308 308 309 310 309 308 308 309 313 314 316 320 318 317 318 319 320 319 320 321 324 323 324 321 321 321 321 320 320 320 321 322 323
301 300 300 300 302 306 305 301 305 308 307 309 309 310 311 309 309 308 309 310 314 316 317 321 320 319 319 320 322 321 322 323 323 324 321 321 321 322 320 320 321 320 321 321
301 300 300 300 301 303 303 302 306 310 310 310 310 308 308 309 309 310 308 310 315 315 315 318 318 317 317 318 319 320 325 324 322 327 323 326 321 321 319 320 320 319 319 319
302 301 300 300 301 302 303 303 307 309 311 310 309 308 310 309 310 309 310 310 311 317 317 319 318 317 318 319 318 319 320 327 326 327 326 323 320 321 321 321 321 320 320 320
302 301 301 301 302 302 303 303 305 309 312 310 308 309 309 310 311 310 310 310 315 317 318 317 319 320 319 318 319 318 319 326 328 330 326 328 324 321 320 321 323 321 320 322
302 302 302 302 302 303 300 304 305 309 310 310 310 310 310 310 310 312 311 311 316 318 319 319 319 318 316 318 323 322 323 325 327 326 327 326 322 321 320 324 325 323 322 322
302 302 302 302 303 303 301 304 304 308 309 309 308 309 310 310 311 312 312 313 315 318 320 320 318 321 316 314 315 323 324 326 327 327 326 328 322 321 321 323 325 325 324 323
302 303 302 303 303 303 301 304 304 307 309 309 308 308 308 310 310 312 312 313 315 315 317 317 318 327 325 316 314 317 324 323 325 325 326 326 322 323 322 324 327 325 326 324
302 303 303 303 303 303 303 304 305 306 308 309 310 311 310 310 310 310 313 315 313 316 317 317 318 320 318 326 322 317 323 324 325 325 323 323 324 321 322 322 323 323 323 323
301 302 303 303 302 301 304 304 306 306 308 309 309 308 310 310 310 310 311 313 313 314 318 320 321 321 319 322 319 318 317 321 324 324 323 321 320 320 322 322 323 322 321 320
303 302 303 302 302 303 304 304 304 305 308 308 310 308 307 308 309 309 310 312 314 314 316 323 319 317 319 317 317 319 316 316 320 324 320 324 323 323 321 321 322 323 321 320
303 302 303 301 301 301 303 304 303 304 304 307 310 309 308 307 307 308 310 310 312 316 315 318 316 315 316 326 318 314 315 314 313 316 319 320 321 320 318 318 320 321 321 319
301 302 301 300 300 302 304 304 303 303 305 307 308 308 307 307 307 309 309 310 312 315 315 317 316 316 314 318 320 314 315 314 315 317 317 319 319 321 318 316 317 318 318 318
301 301 301 301 301 301 303 303 303 303 304 305 306 307 309 308 309 310 310 312 312 314 315 316 318 318 320 321 315 316 315 315 315 315 316 318 320 319 317 315 315 315 316 316
299 301 301 301 302 303 302 302 304 304 305 305 306 308 310 308 308 310 313 313 314 312 316 315 317 318 319 317 315 316 318 317 318 318 318 317 318 317 315 314 313 313 313 312
300 301 302 303 301 300 301 303 304 303 303 305 307 306 309 309 309 311 311 312 313 314 313 313 316 317 314 308 311 312 313 314 315 317 318 316 316 315 314 312 311 311 310 309
302 302 302 301 301 304 304 303 304 304 304 304 305 307 308 306 308 307 306 306 309 315 316 316 317 317 306 303 304 304 305 308 310 311 311 311 311 312 311 303 297 296 295 293
302 300 300 302 303 303 304 305 306 304 305 307 308 308 307 303 304 307 309 309 310 316 315 318 314 304 301 299 300 297 299 300 299 301 301 300 299 298 296 294 291 289 287 286
303 303 301 304 304 304 304 304 305 308 308 309 310 307 305 305 304 305 307 311 314 310 313 307 302 299 298 296 295 293 292 292 292 291 291 291 290 289 288 287 286 285 284 284
303 304 303 304 303 302 300 299 300 299 301 304 309 308 308 305 306 304 310 307 305 314 314 305 299 297 295 293 291 291 290 289 289 289 289 288 288 288 287 286 285 285 284 283
297 298 299 298 297 296 295 295 297 295 294 299 307 306 307 304 305 304 307 311 307 304 303 299 296 295 293 292 291 291 290 290 289 289 288 288 287 286 286 285 284 283 282 282
293 291 294 292 296 293 293 293 294 292 292 295 303 305 308 307 307 305 302 304 298 297 296 294 293 292 292 292 291 290 290 289 288 287 287 286 285 285 284 283 283 283 282 282
293 293 290 290 290 290 292 291 292 291 293 303 304 302 302 304 301 297 295 296 294 292 291 290 291 291 290 290 289 289 288 287 287 286 286 285 284 283 283 283 281 281 280 280

GFSNW_925_thetae_069.txt.gz
Theta_e
303 303 304 304 304 305 306 306 305 303 304 306 305 306 306 307 307 308 308 310 310 312 313 314 318 318 317 316 317 316 316 321 322 319 318 320 319 320 325 327 328 328 324 325
302 303 303 304 304 305 306 306 304 304 304 306 305 306 306 307 307 308 308 308 309 310 312 314 320 319 318 317 316 317 318 322 323 321 321 319 319 320 321 326 326 327 323 324
303 303 304 304 304 305 306 302 304 305 306 305 304 305 306 308 307 309 309 308 308 310 313 313 321 322 318 318 317 318 318 320 321 321 324 322 321 321 320 322 322 324 325 325
302 303 304 302 303 305 306 301 304 304 308 306 306 305 306 306 308 307 308 309 309 310 313 316 319 323 323 318 319 318 318 320 319 319 322 323 322 321 319 321 324 325 324 324
300 300 302 302 303 304 306 299 305 304 305 307 306 306 308 308 308 308 308 308 309 310 313 315 320 322 322 320 317 317 318 320 320 320 321 321 323 321 319 319 318 319 323 324
300 300 300 301 303 305 307 300 303 305 305 307 307 306 307 309 308 307 307 307 308 309 310 317 319 318 318 319 319 317 319 320 322 322 320 321 321 320 321 321 318 318 318 317
300 301 300 301 302 302 302 299 303 306 307 307 307 306 306 307 308 308 308 306 308 307 315 318 318 318 318 317 319 318 322 320 321 322 319 323 319 319 320 320 319 317 317 317
301 301 301 301 302 302 303 299 304 305 307 305 308 306 307 306 306 309 307 308 306 307 316 317 319 319 319 317 318 320 319 323 320 323 322 321 321 319 320 320 319 317 317 316
302 302 302 302 301 302 302 299 302 305 307 307 306 307 306 307 306 307 308 308 305 309 313 315 318 321 320 320 319 317 318 319 322 321 322 322 321 320 319 319 319 318 318 318
302 302 302 302 301 301 301 300 300 305 307 307 307 308 308 307 307 307 307 307 310 313 309 313 313 315 317 318 318 318 315 317 318 319 324 322 321 319 319 321 318 319 319 318
302 302 302 302 301 301 301 301 300 304 307 307 308 308 308 308 308 308 307 308 309 310 314 313 312 308 316 315 319 319 319 320 319 319 323 324 320 319 320 318 317 319 320 321
302 302 301 302 301 301 301 300 302 305 308 308 309 308 308 309 309 309 307 308 311 311 313 315 312 312 308 312 310 318 321 320 321 321 320 319 319 320 319 321 321 321 321 320
302 302 302 302 301 302 300 302 304 306 307 306 306 308 307 307 310 310 310 307 312 313 313 315 313 311 312 311 311 310 319 318 321 320 320 321 321 321 320 319 320 320 319 318
303 301 302 301 302 301 302 304 303 305 306 305 308 307 308 308 310 310 311 312 312 310 311 314 313 309 313 312 314 313 319 320 322 321 320 319 318 318 317 318 319 319 318 318
302 302 302 302 302 302 302 304 304 304 306 304 308 308 305 309 309 310 310 310 311 309 311 312 313 312 312 312 314 314 314 317 320 318 319 318 318 317 316 316 317 318 319 318
303 302 303 302 303 302 304 303 304 303 306 308 307 307 307 307 308 308 309 309 310 310 309 309 313 312 313 305 310 313 312 312 311 311 314 317 319 318 316 316 317 316 315 318
302 302 302 302 303 303 303 303 303 304 304 306 305 306 307 307 307 306 308 308 309 309 313 312 314 313 312 303 311 313 312 313 313 313 315 315 317 317 314 314 314 313 313 313
302 302 301 302 302 303 302 303 304 303 305 306 302 305 307 307 306 306 306 307 307 309 311 310 313 314 310 309 312 311 314 315 314 315 313 313 317 314 313 312 311 311 311 310
301 300 301 301 302 302 302 303 304 304 305 304 301 304 305 307 306 306 307 307 303 309 309 311 313 312 312 311 309 308 308 311 313 314 313 314 314 313 311 310 310 309 308 306
301 301 301 301 301 301 302 302 303 303 303 304 302 303 306 307 306 303 304 300 304 308 307 310 309 308 304 302 303 302 303 304 305 311 312 311 311 308 303 300 300 299 296 291
302 300 301 300 302 304 302 300 302 303 302 303 302 304 305 302 306 305 302 305 304 306 305 309 310 305 302 298 298 297 299 300 299 300 300 300 303 300 297 293 291 290 288 286
301 300 301 302 302 302 302 302 302 302 303 302 302 302 303 298 303 304 303 307 305 308 306 306 307 298 296 295 294 293 293 295 295 295 294 293 292 291 290 288 287 286 285 284
303 303 300 302 298 303 302 302 300 302 300 302 300 304 299 300 302 300 305 306 310 306 308 302 298 296 293 292 292 290 290 290 290 289 289 288 287 287 286 285 284 284 283 282
300 300 295 297 297 297 294 296 297 297 297 296 298 297 302 301 302 302 308 306 305 308 304 298 295 293 292 291 290 289 289 288 288 287 287 286 286 285 284 284 283 283 282 282
292 292 296 293 294 293 293 293 295 294 293 294 302 303 304 303 305 303 304 307 301 297 296 295 292 292 291 291 290 289 289 288 287 286 285 284 284 283 283 282 282 281 281 281
289 288 289 288 288 285 290 291 292 292 291 293 297 303 305 304 299 299 297 298 294 292 291 290 291 290 289 289 288 288 287 286 285 284 284 283 283 282 282 281 281 281 281 280
292 289 286 287 288 288 289 290 290 290 293 299 300 296 299 300 296 294 293 291 289 288 287 286 286 288 287 286 286 285 285 284 284 284 283 283 282 282 281 281 281 280 279 278

GFSNW_925_thetae_075.txt.gz
Theta_e
299 299 300 301 302 302 303 305 306 305 304 303 303 305 302 304 305 306 305 306 307 309 309 310 313 314 313 310 316 314 312 315 317 317 316 317 317 318 324 323 329 324 320 324
299 299 300 301 301 302 305 305 303 304 304 306 305 304 304 302 305 305 306 307 307 307 307 309 312 313 313 314 318 314 314 316 317 317 316 317 318 316 317 322 324 325 324 325
299 300 300 300 301 302 304 298 303 304 305 304 305 305 305 303 302 304 306 306 306 307 307 308 309 312 314 319 318 319 318 315 317 318 317 317 319 319 319 320 323 324 324 323
300 300 300 301 301 302 303 297 302 303 305 305 305 305 305 305 304 303 303 303 305 305 307 308 309 310 314 314 318 318 316 317 316 316 316 320 320 319 320 319 319 321 321 323
301 301 301 301 302 302 303 297 302 303 304 305 305 306 306 306 304 305 304 306 306 305 305 306 307 310 314 318 319 319 317 318 318 317 316 318 320 320 319 318 319 319 320 321
299 299 299 299 301 303 303 301 299 305 306 306 306 305 305 306 305 304 303 305 306 306 306 305 306 307 313 318 319 319 320 317 317 319 319 321 320 319 318 319 319 319 320 319
298 298 299 299 299 300 303 302 302 304 306 306 306 305 304 305 305 304 305 304 304 304 304 306 305 304 310 316 318 318 319 319 315 318 319 323 319 318 318 319 320 320 318 316
299 299 299 299 299 299 300 303 303 304 306 306 306 306 305 304 304 304 304 305 304 303 304 306 308 309 313 314 315 317 318 320 320 320 319 318 319 319 320 321 321 319 319 317
300 300 300 300 300 299 300 301 302 304 305 306 305 306 305 304 303 303 305 305 304 303 304 306 308 311 313 316 317 315 317 318 319 318 319 318 316 316 317 318 321 318 316 317
301 301 301 300 301 300 300 301 301 301 303 303 304 306 306 304 303 303 304 304 304 304 304 307 308 310 313 315 315 317 315 314 318 319 321 317 315 317 317 324 319 317 317 317
301 302 301 301 301 300 301 300 300 298 300 302 304 304 304 304 304 303 303 306 304 304 305 308 306 303 309 310 312 315 316 316 311 315 318 321 317 319 320 317 316 318 317 316
302 302 302 301 301 301 301 300 299 300 302 304 303 304 304 304 304 304 304 305 305 305 305 305 304 305 300 308 310 312 315 314 314 317 316 315 317 319 318 317 317 317 317 316
301 301 301 302 300 301 301 300 300 300 302 301 301 306 305 304 304 305 305 304 307 307 304 306 307 307 305 306 306 308 309 314 316 317 317 318 318 318 318 318 317 316 315 316
301 301 302 301 302 301 301 299 300 300 301 302 305 305 307 306 305 305 305 306 308 307 306 305 304 305 307 305 307 307 307 314 316 317 316 317 316 315 315 316 317 315 315 316
302 302 301 302 301 301 300 300 300 301 301 301 304 306 306 308 309 308 308 308 308 308 306 305 305 306 309 308 309 309 309 312 313 311 312 315 313 313 315 317 317 314 316 316
302 301 301 301 301 300 301 302 299 300 302 300 305 305 305 306 308 307 308 308 307 307 305 304 307 309 308 303 308 309 308 307 307 311 310 311 313 312 314 315 312 314 312 312
302 302 302 302 301 301 301 301 301 301 301 299 305 308 306 306 305 305 306 307 307 308 307 307 307 308 307 304 306 308 306 304 305 307 306 312 314 315 313 313 310 306 303 301
302 302 301 301 300 300 302 302 302 302 299 301 305 306 307 305 305 305 304 305 304 307 308 304 309 308 309 311 303 303 303 302 305 302 301 308 309 309 309 309 307 301 298 295
301 301 301 299 300 302 303 302 302 302 303 299 299 303 308 303 303 303 303 301 300 300 303 305 304 307 306 300 300 299 298 300 300 300 304 304 304 302 301 302 299 295 293 290
302 300 299 298 301 303 302 303 302 301 299 299 299 300 307 303 303 303 303 298 300 303 303 303 305 302 296 294 295 294 294 295 297 299 301 297 300 295 293 293 292 290 289 287
300 300 298 300 301 301 299 298 299 298 299 298 298 301 304 300 304 304 299 299 302 302 303 304 306 298 294 292 293 292 292 293 293 295 294 292 292 292 290 288 286 286 285 285
300 300 300 299 295 294 296 294 297 301 303 301 301 300 299 298 301 303 302 304 303 303 302 302 297 293 292 290 290 289 289 289 288 289 289 288 288 287 287 286 284 283 282 281
298 296 294 294 290 290 296 296 300 298 297 295 299 302 295 297 300 301 304 307 307 301 298 295 292 290 290 289 288 286 286 285 285 285 284 284 284 283 283 282 281 281 280 280
292 291 287 288 287 290 291 293 293 294 293 293 296 300 300 299 301 302 306 301 297 296 294 292 291 290 288 287 286 285 284 284 283 283 282 282 282 281 281 280 280 279 279 278
287 287 287 288 287 286 287 290 292 291 291 293 299 300 300 300 298 294 294 291 290 291 290 290 289 288 287 286 284 283 283 283 283 282 282 281 281 280 280 280 279 279 278 277
285 284 285 284 283 285 285 287 288 288 289 292 296 300 296 291 289 289 290 290 289 286 286 286 286 285 285 284 284 283 283 282 282 281 281 280 280 279 279 278 278 277 276 276
285 283 279 275 278 280 283 285 285 285 290 291 293 290 290 293 290 289 287 283 284 283 283 283 282 282 282 281 281 281 282 282 282 281 280 280 279 279 278 278 277 276 275 275

GFSNW_925_thetae_078.txt.gz
Theta_e
297 297 298 299 299 299 301 303 304 305 305 306 303 305 303 302 303 304 303 306 306 307 307 308 312 313 313 311 315 317 311 311 314 314 314 313 313 315 319 321 324 320 319 320
298 298 298 299 299 300 302 304 304 305 305 307 305 304 304 302 303 304 305 306 306 306 306 307 309 311 312 315 316 318 318 316 313 315 314 314 317 316 318 321 321 323 323 322
298 299 299 299 299 300 302 298 303 304 306 305 306 305 304 305 301 302 304 306 305 306 307 306 308 308 308 310 313 318 317 320 315 314 313 313 317 316 317 320 319 320 321 321
299 299 299 299 300 300 302 298 301 303 304 306 305 305 304 305 304 302 302 303 305 305 306 306 306 306 306 311 315 317 317 319 315 315 313 313 318 318 318 318 317 319 319 321
300 300 300 300 300 300 302 297 301 303 302 305 306 305 305 306 305 304 303 303 304 304 305 305 305 306 308 309 316 317 317 318 316 316 314 314 315 316 316 317 318 318 317 317
298 298 299 301 300 301 302 299 299 304 304 304 306 306 305 306 305 304 304 303 304 305 305 303 303 303 304 305 307 314 318 315 316 318 317 317 319 317 316 317 317 318 320 317
297 297 298 298 301 301 301 300 301 304 306 305 306 305 305 306 305 305 304 304 304 304 303 304 304 304 305 306 306 307 315 315 314 316 317 320 317 315 316 317 316 316 317 317
298 298 298 298 298 298 302 301 302 303 305 306 305 305 305 304 305 305 304 304 303 303 302 305 306 305 309 310 310 312 314 316 317 320 320 317 316 318 319 319 318 316 317 317
299 299 299 299 298 298 299 298 301 303 304 305 305 306 305 305 305 305 304 304 303 303 304 306 309 309 309 313 316 313 312 315 318 317 322 322 315 314 316 317 319 317 317 318
300 300 300 299 299 299 299 299 298 300 303 304 305 306 306 304 304 304 303 304 304 304 305 308 309 308 309 312 316 316 317 316 320 319 319 319 316 315 316 320 319 317 318 318
301 301 300 300 300 299 300 300 298 299 300 303 304 304 304 303 303 304 303 305 303 304 306 308 308 303 307 309 309 315 314 314 316 317 319 320 315 319 321 316 316 318 317 317
301 301 301 301 301 300 300 300 300 299 302 303 303 303 303 303 303 303 304 305 303 303 304 303 303 303 298 307 308 309 311 312 313 314 315 313 314 318 317 317 317 317 316 316
301 301 302 301 301 301 300 300 300 300 301 300 301 301 303 304 303 303 304 302 304 303 303 302 304 304 303 305 305 307 305 310 312 313 313 315 315 315 318 317 317 316 315 315
302 301 301 301 302 301 301 299 300 300 300 301 300 301 301 304 304 303 304 304 306 305 305 304 302 304 304 303 305 305 304 308 311 312 312 312 313 315 316 316 316 315 313 314
302 301 301 302 301 301 300 300 299 299 299 298 299 305 305 305 305 303 304 307 307 306 306 301 303 304 307 305 306 307 308 309 310 309 310 310 311 311 312 313 314 316 314 315
302 300 301 301 301 300 299 300 299 299 300 301 302 305 306 307 306 304 304 305 306 306 305 303 305 306 306 302 306 307 305 305 306 308 307 306 307 307 309 312 312 309 306 306
301 302 301 301 300 300 300 301 300 300 301 301 303 306 306 306 306 306 307 307 307 308 307 305 305 307 306 301 304 305 303 301 301 304 302 307 305 306 307 308 305 300 297 295
301 301 301 300 300 301 302 302 300 300 299 299 302 306 306 305 303 304 305 305 305 306 308 307 307 307 307 309 301 300 298 298 301 299 300 303 301 299 300 300 299 295 292 291
301 300 300 300 300 301 302 301 300 300 300 302 300 306 308 302 302 303 301 300 303 299 306 307 307 307 302 297 297 296 295 295 297 297 300 298 297 295 294 295 295 293 291 288
300 300 298 298 298 302 301 300 301 301 301 297 302 300 306 302 303 302 297 298 301 304 304 304 304 298 294 292 293 292 292 293 294 297 298 295 297 292 289 289 288 288 287 286
298 297 296 300 300 300 300 299 300 299 301 300 301 301 305 299 302 304 300 298 298 300 302 306 302 295 292 291 290 289 289 290 290 292 292 291 291 290 288 286 285 284 284 283
300 300 299 296 294 294 297 295 299 301 303 299 303 300 299 298 301 302 303 303 302 302 301 298 294 292 290 289 288 286 286 286 286 286 287 287 287 287 286 284 283 282 280 279
296 294 291 292 287 288 294 294 297 297 295 295 298 299 296 296 300 302 304 306 304 297 294 292 291 290 288 287 286 285 284 284 284 283 283 283 283 283 282 282 280 280 279 278
290 289 286 285 284 288 289 291 293 293 293 293 296 299 300 298 301 300 302 295 294 292 289 289 289 288 286 285 284 284 283 283 282 282 281 281 280 280 279 279 279 278 278 277
286 285 284 285 286 285 286 287 290 289 290 293 299 301 299 295 294 292 292 289 288 290 287 287 286 285 285 284 284 283 282 281 281 280 280 279 279 279 278 278 278 277 276 275
284 282 283 282 282 283 283 285 286 286 287 291 295 297 293 291 289 287 287 289 286 284 284 283 284 283 283 283 283 282 282 281 280 280 279 278 278 277 277 276 276 275 275 274
285 282 281 278 278 278 281 283 283 283 286 290 290 286 287 289 285 285 284 281 283 282 281 280 280 280 280 280 280 279 280 280 280 279 278 278 277 277 276 276 275 275 274 273

GFSNW_925_thetae_081.txt.gz
Theta_e
296 296 297 296 297 298 299 300 302 302 303 305 302 306 304 302 303 303 302 305 306 307 307 308 309 312 311 314 315 317 316 315 314 313 314 313 314 315 317 324 325 323 322 322
296 297 297 297 297 298 299 301 301 302 304 304 304 306 305 303 302 303 305 305 305 306 306 305 307 310 310 313 313 313 312 319 317 314 312 312 314 316 316 317 320 324 328 323
297 297 297 297 298 298 299 300 302 302 304 303 305 305 307 306 303 302 304 305 305 306 307 307 307 307 307 307 306 315 313 315 320 319 316 315 315 317 317 319 322 321 322 321
298 298 299 298 298 298 300 299 300 302 304 304 305 305 305 305 305 303 302 303 305 306 306 306 306 306 306 306 309 316 315 312 313 317 316 318 318 315 316 320 320 322 321 321
299 299 298 298 299 299 301 298 302 301 303 304 305 305 305 305 305 303 303 303 303 304 306 306 305 305 306 306 307 306 311 315 316 317 317 318 318 317 314 317 317 318 318 320
298 298 299 300 299 299 300 300 299 303 304 305 306 306 305 305 305 304 303 303 303 304 305 305 305 304 304 304 305 306 307 315 318 317 317 317 319 317 316 316 317 318 320 319
299 298 298 297 298 300 300 298 301 304 306 304 306 306 305 305 305 306 305 304 304 304 303 304 304 304 305 305 305 305 309 312 315 317 318 324 318 316 316 317 317 318 318 318
298 298 298 298 297 298 301 300 301 302 304 304 304 306 306 305 306 306 305 304 304 304 304 305 306 307 307 307 306 307 308 309 316 319 321 317 319 319 320 319 319 317 317 317
298 298 298 298 298 297 296 299 300 302 303 304 304 305 306 306 306 306 305 305 304 304 306 308 309 309 309 311 312 308 307 308 316 318 320 319 318 317 317 318 322 318 318 318
299 299 299 298 298 298 297 297 297 297 302 303 304 305 307 305 305 305 305 305 305 304 308 307 307 307 307 308 313 314 313 315 316 316 318 319 317 316 317 321 322 318 319 319
301 300 300 299 299 298 299 297 298 296 299 301 304 304 305 304 304 305 304 305 305 306 308 308 310 309 308 307 307 314 316 317 317 316 319 320 316 319 321 320 318 319 318 318
302 301 300 300 300 299 299 299 299 297 299 302 302 302 303 303 304 304 304 305 304 305 306 307 308 308 306 309 309 307 310 314 316 317 318 315 314 318 318 318 319 320 319 318
302 301 301 301 300 300 299 299 298 298 298 300 301 301 303 303 303 303 305 304 305 304 305 306 307 307 306 310 309 307 307 309 314 314 312 313 313 313 314 315 317 318 317 316
302 302 302 301 301 301 300 299 299 299 300 302 301 300 300 303 304 303 303 304 305 305 306 307 306 308 305 308 308 308 307 308 311 312 311 313 312 312 312 312 311 312 315 315
302 302 302 301 301 301 301 300 299 299 301 301 301 303 302 300 303 303 303 304 307 308 307 306 309 306 309 307 307 309 308 310 312 312 310 311 311 310 308 309 311 312 314 314
302 302 301 301 302 300 299 298 298 299 300 301 302 302 306 304 302 304 304 305 307 308 307 307 306 307 309 311 311 307 304 303 302 306 304 304 305 306 303 306 302 299 300 302
302 302 301 301 301 299 300 300 299 299 299 302 300 303 305 306 306 305 305 305 307 308 308 308 307 308 308 306 309 303 300 298 299 300 300 306 305 303 300 301 298 295 293 292
301 301 301 300 299 300 302 300 298 299 299 300 301 304 306 304 305 307 306 307 307 307 308 308 308 308 307 307 299 298 296 296 299 297 297 300 299 297 295 297 297 294 292 290
300 299 299 299 300 302 300 299 299 300 300 300 301 305 307 302 301 301 302 303 305 301 306 308 308 307 296 294 294 293 293 294 294 295 297 297 296 293 291 292 292 291 289 288
300 300 299 298 300 300 300 300 301 300 301 299 301 302 305 304 300 302 302 299 304 306 305 305 300 295 293 291 291 290 290 290 291 293 296 294 294 291 289 288 288 287 286 286
299 297 297 301 300 299 299 300 302 301 301 299 301 301 305 300 304 305 301 303 302 305 306 306 300 294 291 289 289 287 287 287 288 288 290 290 290 289 288 286 286 285 283 282
299 297 295 294 292 294 298 300 300 301 302 298 302 300 301 300 300 303 304 304 303 305 298 296 293 291 288 287 286 285 285 285 285 285 286 286 286 286 285 284 283 281 280 279
294 292 290 292 287 288 293 296 297 297 294 295 299 300 298 299 301 303 305 305 302 296 294 291 290 288 287 285 285 284 283 283 283 283 282 281 281 281 281 280 279 278 277 276
289 289 285 283 283 288 288 289 292 292 292 292 296 300 301 298 299 298 298 294 295 293 291 289 287 286 285 284 283 283 282 281 281 280 280 280 279 278 278 278 277 276 275 275
285 284 284 285 285 285 285 286 289 287 288 293 299 297 295 292 292 292 292 291 289 289 287 286 285 284 284 283 282 282 281 280 280 279 279 278 278 277 277 276 276 275 274 274
283 281 283 282 284 283 283 284 285 285 285 289 292 293 291 290 288 287 286 288 286 284 283 283 283 282 281 281 281 281 280 280 279 278 278 277 276 276 275 275 274 273 273 272
283 281 281 279 280 280 281 282 282 282 286 288 288 287 287 288 286 284 284 283 282 282 281 280 280 280 280 279 279 279 280 279 278 278 277 277 276 276 275 275 274 273 272 272

GFSNW_925_thetae_084.txt.gz
Theta_e
296 296 297 297 296 296 297 299 302 301 303 303 303 307 305 304 304 304 304 306 308 308 308 308 308 308 311 312 312 315 317 319 316 314 315 315 315 316 318 321 318 321 322 323
297 296 297 297 296 296 299 300 300 301 303 305 304 305 307 305 304 305 305 304 305 306 307 307 308 308 310 310 310 312 313 320 320 316 315 314 315 315 316 318 319 322 328 323
297 297 297 296 297 297 298 300 302 302 303 303 306 305 305 309 305 304 305 306 306 307 308 308 307 308 307 309 308 310 309 311 317 321 320 320 320 318 317 318 323 320 321 320
297 298 297 297 297 297 298 299 301 301 304 303 303 305 305 306 307 304 304 305 306 307 308 308 309 308 308 307 308 310 311 311 310 311 313 314 316 318 319 319 318 322 320 319
299 299 298 299 298 298 299 299 301 302 302 303 304 305 305 306 304 306 305 305 305 306 308 308 308 308 308 308 308 309 309 315 315 316 314 315 318 317 318 319 318 318 318 319
296 298 299 299 298 299 300 298 299 303 303 304 305 306 307 306 306 305 305 305 306 306 306 306 307 307 307 307 307 309 310 312 313 315 315 316 318 319 320 319 318 318 320 319
298 298 297 297 299 299 299 298 300 302 303 304 304 304 305 305 305 306 306 305 306 305 305 306 306 307 307 307 308 308 309 311 313 314 316 319 317 318 321 320 318 317 317 318
298 298 298 298 297 298 300 299 301 302 304 304 305 304 306 305 307 307 306 306 305 305 305 308 308 309 308 308 308 309 309 310 312 313 317 316 317 314 320 323 320 318 318 318
296 297 297 297 298 298 297 300 300 303 305 306 303 305 305 306 307 308 306 305 305 305 307 310 309 309 309 309 311 309 308 309 312 313 318 316 315 314 317 317 325 321 321 322
298 298 298 298 298 298 297 295 298 300 303 302 303 304 306 306 307 307 306 307 305 305 308 310 309 308 307 309 311 312 311 311 313 313 317 316 317 317 317 326 326 321 321 321
300 300 299 299 298 298 298 297 297 297 301 303 303 304 304 305 307 307 307 307 305 305 310 309 309 308 307 307 307 316 313 312 313 312 318 317 315 316 319 319 321 320 321 321
299 299 300 301 299 299 298 298 297 296 299 302 302 302 304 304 305 306 307 306 307 307 308 309 309 311 311 308 310 307 309 316 318 316 314 313 312 314 315 315 317 317 319 321
300 301 301 301 300 299 299 299 298 296 297 300 301 301 303 304 305 304 306 306 306 307 307 308 309 309 308 311 310 309 308 310 312 312 313 312 312 313 312 313 314 315 316 316
301 301 302 302 301 300 299 299 298 298 300 301 303 301 302 304 304 304 305 305 305 306 306 308 310 309 308 310 309 309 309 309 309 310 310 313 310 312 311 310 311 311 314 317
301 301 302 302 300 300 300 299 298 299 301 302 302 302 302 303 304 304 304 305 306 308 308 309 310 308 310 310 310 309 310 311 312 313 310 311 312 310 308 308 307 305 308 315
301 301 302 302 300 301 300 298 298 299 300 302 303 303 305 302 303 305 305 306 306 307 307 309 309 309 310 312 311 308 306 304 305 308 304 306 308 308 304 305 304 301 302 303
301 301 301 302 301 300 300 302 299 299 300 303 304 305 304 304 303 305 307 306 306 307 308 309 309 310 309 311 313 303 300 300 302 300 301 307 305 302 300 301 302 299 298 297
302 302 301 301 300 299 301 300 299 299 300 302 304 305 305 305 306 307 306 307 306 306 308 309 309 309 310 308 299 297 296 297 299 297 297 300 299 297 297 298 299 299 296 295
301 299 299 299 298 300 300 299 299 300 301 303 302 306 307 305 304 304 305 305 307 303 309 309 309 305 301 294 294 294 292 292 293 294 296 296 296 294 292 293 295 296 293 292
299 299 299 299 301 299 299 299 301 301 302 302 304 304 306 304 305 305 303 304 308 310 308 305 303 297 292 291 291 290 289 289 290 293 295 294 294 292 290 289 290 290 290 288
300 299 300 299 299 301 301 302 303 302 302 301 303 303 306 301 307 306 302 308 307 309 308 308 302 297 291 289 288 288 287 287 288 288 289 289 290 289 288 287 286 285 285 284
299 297 294 294 294 299 303 303 303 304 304 302 303 302 300 302 302 305 305 307 307 308 300 302 299 292 289 288 287 287 286 286 286 285 286 286 286 286 285 284 282 281 279 278
294 294 292 294 291 295 299 301 301 301 296 297 300 303 302 302 304 304 306 307 303 299 298 295 292 289 288 287 286 286 285 284 284 283 283 282 281 281 281 280 278 278 276 276
293 292 290 291 291 292 291 293 294 294 294 294 299 303 303 301 302 301 302 297 299 299 297 293 289 286 286 285 284 284 283 282 282 281 280 280 279 278 277 276 276 275 275 275
289 290 291 290 287 288 288 288 291 289 288 295 302 300 299 297 297 296 297 297 294 293 292 289 287 285 284 284 283 282 281 281 280 280 279 278 278 277 277 276 276 275 275 274
286 285 289 287 289 289 288 287 289 287 288 294 296 298 297 293 292 292 291 293 292 288 287 285 285 283 283 282 282 281 280 280 279 279 278 277 277 276 275 274 274 273 273 273
285 285 284 285 285 285 285 285 285 285 291 294 294 294 292 291 291 289 287 287 286 285 284 283 282 282 281 281 280 280 280 279 279 278 277 277 277 276 276 275 274 273 273 272

GFSNW_925_thetae_087.txt.gz
Theta_e
297 297 297 298 296 295 296 299 301 301 303 305 304 304 306 305 307 305 305 307 309 309 308 309 309 310 311 312 313 316 318 320 318 315 315 315 315 315 315 318 320 320 321 322
297 297 297 297 297 296 298 299 301 301 303 305 305 303 304 307 306 306 305 305 305 306 307 308 309 309 310 310 310 312 311 319 319 317 315 315 316 317 317 318 319 320 327 323
297 297 297 296 296 296 298 301 303 302 304 304 306 305 304 305 307 308 305 306 306 306 307 308 310 309 309 310 309 308 309 310 313 318 320 318 318 316 317 318 322 320 320 320
297 297 297 297 297 295 298 300 302 302 305 304 304 304 305 306 305 307 306 307 307 307 307 308 310 310 310 310 309 309 310 311 311 311 311 312 316 316 317 318 318 320 319 319
298 298 298 297 297 297 298 299 300 301 302 302 304 304 304 304 306 308 307 307 306 306 307 307 310 311 311 311 310 311 312 314 313 314 312 313 313 314 315 316 317 318 318 319
298 298 298 299 298 297 298 298 299 302 302 303 303 304 305 304 305 305 306 306 306 306 307 307 308 308 309 309 310 311 312 313 314 314 311 316 318 314 315 318 319 319 319 318
298 298 297 298 299 298 297 297 299 301 304 304 305 303 303 304 305 306 307 306 306 307 308 307 308 308 308 309 309 308 311 311 312 315 312 313 312 318 318 320 320 322 321 319
298 298 296 297 297 298 299 298 300 302 304 303 303 304 304 304 305 306 308 307 307 307 308 308 309 310 309 310 310 310 309 311 315 315 314 312 311 315 315 317 317 322 324 318
297 297 297 297 298 297 299 298 299 303 304 305 302 303 303 306 306 307 307 307 307 307 308 311 310 312 311 312 311 310 310 310 313 313 313 316 319 316 317 318 324 321 323 324
296 297 297 297 297 298 298 297 297 301 305 304 304 305 305 306 307 307 309 308 307 307 310 311 311 312 309 311 311 315 313 313 313 313 313 314 317 317 318 322 323 316 319 324
297 297 298 297 297 297 298 299 297 298 301 304 305 304 304 305 307 309 309 308 307 306 310 310 310 311 309 309 309 315 314 314 315 313 312 315 314 317 321 318 318 318 320 320
299 299 299 299 298 298 298 299 298 297 299 302 303 304 305 305 304 307 307 306 307 308 310 309 310 311 311 309 311 311 315 313 315 312 312 316 313 317 314 313 315 316 317 318
300 300 300 299 299 299 299 299 299 296 296 302 302 304 303 305 305 305 307 307 306 308 308 310 311 311 310 313 311 312 310 313 316 315 314 314 313 313 312 311 311 311 313 318
301 301 301 301 300 300 299 299 299 298 300 303 304 303 303 303 305 306 306 305 306 307 309 311 311 311 308 310 310 311 311 311 311 310 314 313 313 311 310 310 310 308 309 315
302 301 301 301 301 301 299 299 298 299 301 304 303 303 303 304 305 305 306 306 307 309 309 309 310 309 310 310 311 311 312 312 314 317 312 312 312 310 307 307 308 306 306 308
301 302 301 301 301 301 300 297 298 299 300 304 305 304 305 304 305 305 307 307 307 308 309 310 309 309 310 312 312 307 305 305 306 307 305 307 307 308 304 305 306 305 304 303
301 302 301 301 302 301 298 302 300 299 301 303 305 305 305 304 305 307 307 306 307 308 306 309 310 310 310 311 312 303 300 300 302 301 303 307 303 302 300 300 303 304 302 300
301 301 302 302 301 298 300 302 300 299 301 302 305 306 306 304 306 307 307 307 306 307 308 310 310 309 311 308 301 298 296 297 299 298 299 300 299 299 297 297 297 301 300 298
302 302 301 298 298 300 302 299 300 300 302 304 304 305 307 305 306 306 307 307 307 305 308 309 310 308 304 296 295 294 293 293 294 295 297 298 298 297 296 295 294 295 295 293
299 299 298 297 301 299 299 299 300 302 303 304 305 304 308 305 305 307 306 307 308 311 308 307 310 299 294 292 292 291 290 290 291 293 296 295 296 295 294 291 290 290 289 289
301 301 299 299 300 301 302 303 304 304 304 304 304 305 306 301 307 308 307 308 309 310 308 310 306 299 293 292 291 290 289 289 289 288 289 290 291 291 291 289 286 285 284 283
300 298 296 297 301 303 305 304 304 303 304 303 304 304 304 303 303 307 305 308 308 310 303 308 303 293 291 290 289 289 288 287 287 286 286 286 286 287 287 286 283 281 280 279
299 298 295 298 296 301 305 304 304 305 299 300 302 303 304 302 303 307 308 309 306 303 306 300 295 290 288 288 287 287 285 284 284 284 283 282 282 282 281 281 279 279 278 278
295 296 294 296 297 296 295 297 298 295 295 296 298 303 302 302 303 305 303 301 303 304 303 296 291 288 287 286 285 285 284 282 282 282 281 280 279 279 278 278 278 277 277 276
292 294 295 293 291 291 291 292 294 291 291 296 301 301 301 300 300 300 301 301 300 298 296 292 288 286 285 285 284 283 283 282 282 280 279 279 279 278 278 277 277 276 276 276
290 289 293 292 295 293 292 291 292 290 292 296 301 302 300 297 298 297 296 299 297 292 290 288 286 284 284 283 282 282 281 281 280 279 279 278 277 277 276 276 275 275 274 273
289 289 287 290 290 289 288 288 289 290 294 298 298 297 295 295 295 292 289 291 289 287 286 285 284 283 282 282 281 281 281 280 279 279 279 278 278 277 277 276 275 274 273 272

GFSNW_925_thetae_090.txt.gz
Theta_e
297 297 296 297 296 297 296 298 301 300 301 305 305 306 303 304 304 306 307 309 309 312 311 311 311 310 314 313 313 314 316 319 320 315 314 313 313 311 311 314 317 320 321 321
297 296 297 296 296 296 297 299 300 300 304 305 304 303 303 303 304 306 306 309 306 307 306 308 308 310 311 311 311 311 310 315 318 316 315 315 316 316 315 315 316 318 323 323
297 297 297 296 296 296 297 300 302 301 304 304 304 304 303 303 303 306 307 308 308 306 305 306 308 309 310 311 310 308 308 310 312 316 319 316 318 319 315 317 320 319 319 318
297 297 297 296 296 296 297 299 302 301 304 305 303 303 303 306 305 304 306 309 309 307 305 305 307 308 309 311 311 310 310 311 310 310 309 310 311 312 317 318 317 319 319 318
298 298 297 297 296 296 297 299 299 300 301 303 303 303 303 303 303 306 307 307 308 307 309 308 308 310 311 312 311 311 312 316 313 313 312 312 311 311 312 315 315 315 316 317
298 298 298 298 297 296 298 298 297 300 301 302 303 304 304 303 303 303 305 308 308 307 308 307 309 309 310 311 310 311 312 313 314 314 312 312 315 314 312 312 314 315 319 321
298 298 298 298 298 297 297 297 298 300 301 302 302 302 302 303 304 304 305 307 309 308 308 309 308 308 308 308 309 309 311 311 313 315 314 314 312 311 317 316 317 318 317 317
297 298 299 298 298 298 297 297 298 301 302 301 302 303 305 304 304 304 305 306 308 308 309 309 308 309 309 309 310 309 310 310 314 315 314 312 312 311 314 317 317 319 322 322
296 297 298 299 297 297 299 296 297 301 302 302 300 302 302 305 306 306 306 308 308 309 309 309 309 311 311 312 311 310 310 310 313 314 314 314 316 319 318 317 320 319 317 318
296 296 297 297 297 297 297 298 297 299 301 302 302 304 304 304 305 307 307 308 309 308 309 309 309 309 309 313 314 313 313 314 314 315 314 313 314 316 316 321 320 317 319 317
297 296 296 297 297 297 298 299 297 298 298 302 302 303 305 306 307 308 308 309 307 306 309 309 309 311 313 310 310 316 314 315 315 314 313 314 317 316 320 317 316 316 316 315
300 298 296 296 297 297 298 299 298 298 298 300 300 303 304 305 305 307 307 309 307 308 308 309 310 312 314 310 311 312 316 313 316 312 313 316 313 315 312 312 312 311 312 313
301 300 298 298 298 298 297 298 299 298 297 299 301 302 303 305 306 305 307 306 307 309 309 310 311 312 311 313 311 314 313 312 316 313 313 315 314 312 310 310 310 308 308 310
301 301 300 300 299 299 298 299 299 298 299 301 302 303 303 303 304 306 306 307 307 307 309 310 311 314 311 311 312 312 313 313 314 314 314 314 312 310 307 307 308 307 307 307
301 301 301 301 300 299 299 299 299 299 301 303 302 304 304 304 304 304 305 307 307 309 308 310 310 309 311 311 312 313 310 311 314 316 309 311 310 305 304 305 306 306 305 305
300 301 301 301 301 300 300 295 299 299 300 303 305 304 305 305 305 306 307 307 308 307 308 309 309 309 311 312 312 305 303 304 304 305 304 306 304 303 301 302 302 304 303 301
301 300 302 301 301 301 298 301 300 299 300 303 305 305 305 305 306 307 308 307 307 306 306 309 309 310 310 311 312 302 299 301 300 300 302 304 301 301 300 299 299 302 300 298
301 301 302 301 301 299 299 301 300 299 301 303 306 306 307 305 307 308 307 307 307 307 307 308 309 309 309 307 300 297 295 297 298 297 299 300 300 300 299 297 297 299 296 294
301 302 302 297 297 297 300 300 300 301 302 303 306 307 309 306 307 307 307 306 305 306 306 308 309 310 302 297 295 294 293 293 294 295 298 297 298 297 296 294 293 293 292 290
299 299 297 296 301 299 300 299 300 300 302 304 306 305 308 306 305 306 306 306 306 309 308 309 308 298 294 293 292 291 291 290 291 292 293 292 293 293 293 291 289 288 287 286
301 300 300 300 300 301 301 302 304 303 304 305 305 305 306 304 307 306 308 307 307 308 309 310 307 299 294 293 292 290 289 288 288 288 288 288 288 289 290 288 286 284 283 282
301 299 297 299 302 303 304 304 304 304 304 305 306 306 306 304 302 308 306 308 308 309 306 309 302 294 291 290 289 288 287 286 286 285 285 284 284 285 285 284 282 281 280 279
300 299 298 300 299 304 305 303 304 304 302 301 302 304 304 303 301 304 308 308 308 305 308 299 294 290 288 287 287 286 284 284 283 283 282 281 280 280 280 280 280 279 279 278
298 299 296 299 298 297 296 297 298 295 297 298 299 303 305 301 304 303 305 303 305 307 305 295 290 288 287 286 285 285 283 282 282 281 280 279 279 278 278 278 277 276 276 275
294 295 296 294 294 293 294 295 295 293 293 295 300 302 303 302 301 302 302 302 301 298 295 290 288 286 285 284 284 283 282 282 281 280 279 278 278 277 277 276 276 276 276 275
290 290 295 293 296 293 291 291 292 292 293 294 298 302 301 299 300 299 298 302 296 293 290 288 286 284 284 283 282 282 281 281 280 279 278 277 277 277 276 275 275 274 274 274
291 290 289 293 292 291 290 290 290 291 295 299 300 298 298 298 296 292 291 292 290 288 286 285 284 284 282 282 282 281 281 280 279 279 279 278 278 277 276 276 275 274 273 273

GFSNW_925_thetae_093.txt.gz
Theta_e
297 297 297 297 296 297 297 297 297 299 300 301 300 301 302 302 302 303 304 308 308 313 311 311 313 314 316 314 312 314 310 318 319 318 316 315 310 309 310 311 313 314 316 316
296 296 296 295 296 297 297 298 296 298 301 297 300 302 303 303 303 302 304 307 308 308 308 309 310 311 312 312 311 309 309 313 318 315 315 317 318 312 311 311 311 312 317 317
297 297 297 296 295 296 296 297 295 297 300 301 304 303 304 303 302 302 302 305 306 307 308 307 308 308 311 311 309 309 309 310 311 314 314 313 312 312 313 318 317 314 313 312
297 297 297 297 296 295 296 295 297 300 299 300 303 302 303 304 304 304 303 306 306 307 309 309 306 308 311 311 311 311 310 310 311 311 310 310 310 310 310 310 319 321 319 318
298 298 297 297 296 295 296 296 298 299 299 300 303 303 302 303 303 305 305 305 305 307 307 309 309 309 311 313 311 312 313 315 315 315 313 313 312 312 311 311 311 313 315 314
298 298 298 298 297 296 296 296 297 298 298 300 301 302 304 304 303 303 304 305 306 307 308 308 308 307 309 310 311 310 312 313 313 315 313 313 313 312 312 312 312 311 314 320
298 299 299 298 298 297 296 297 297 298 297 298 298 299 301 302 303 304 304 306 306 306 308 307 307 307 308 310 310 309 310 312 311 314 312 313 313 311 312 318 319 319 321 320
297 297 298 299 298 298 297 296 297 298 297 298 299 300 302 303 304 304 305 306 306 306 308 308 307 307 308 309 308 308 309 310 309 313 313 313 312 318 319 319 321 318 317 316
298 297 296 297 299 298 298 296 297 298 299 298 299 300 300 303 303 303 305 306 305 307 306 304 307 308 311 311 310 309 309 309 310 310 314 312 317 315 316 316 321 317 317 317
299 299 296 296 298 298 297 296 297 297 299 299 299 299 300 302 303 303 304 307 307 306 307 305 306 307 307 311 315 311 311 311 310 310 313 312 316 315 316 322 318 314 314 315
300 301 298 296 297 298 298 297 296 296 297 299 301 302 302 302 302 304 304 304 305 306 305 305 304 304 309 312 312 312 311 314 311 309 313 312 313 315 318 312 311 310 310 312
300 301 299 297 296 297 298 298 298 297 297 299 298 299 300 302 304 305 304 306 305 304 304 305 306 305 306 312 310 312 313 311 310 310 311 312 312 311 310 309 308 307 308 309
300 301 300 297 296 297 297 298 298 297 297 297 296 298 298 299 302 304 304 302 305 306 305 306 307 307 309 309 310 312 313 313 314 311 314 314 311 309 308 307 307 305 305 306
300 300 300 300 297 297 297 298 299 298 298 297 298 299 300 300 302 304 304 305 305 305 305 305 306 309 310 311 312 310 312 311 315 314 313 309 306 305 304 305 305 305 303 303
299 300 301 301 298 297 297 298 298 298 298 299 300 301 301 303 302 304 305 305 305 304 304 304 307 308 309 309 310 308 307 306 309 309 303 308 304 302 302 302 301 303 301 300
300 300 301 301 299 298 299 295 298 299 298 300 301 302 303 304 304 304 304 304 304 305 306 305 308 308 309 310 309 302 301 302 300 301 301 302 302 300 299 300 300 300 298 295
300 300 300 301 301 299 297 299 299 299 299 301 300 303 303 305 304 303 303 304 305 306 305 305 307 307 308 307 306 299 297 298 297 296 299 301 300 299 297 296 297 296 294 291
301 300 301 301 301 299 298 299 301 299 300 301 302 303 305 304 305 306 304 306 306 304 305 305 308 308 307 301 296 295 294 295 294 294 296 297 298 297 294 293 294 293 291 289
300 300 301 299 296 297 299 299 299 300 301 300 298 301 307 304 304 304 305 304 304 303 303 305 306 303 298 296 294 293 291 291 291 292 292 292 293 293 293 290 289 289 288 286
300 299 296 296 299 299 299 299 297 300 300 301 303 303 305 305 304 304 304 303 305 307 304 306 299 295 294 293 291 290 289 289 288 289 289 289 289 290 289 288 286 286 284 283
299 299 298 300 299 299 299 299 301 300 300 299 301 303 303 302 304 303 301 304 304 303 305 306 302 297 294 290 288 287 287 287 286 286 285 285 285 286 286 284 283 282 281 280
300 299 299 300 300 301 302 299 300 300 301 301 299 301 303 301 302 303 302 305 304 304 305 306 295 292 289 288 286 285 284 284 284 282 282 281 281 282 281 281 280 279 279 278
299 299 298 300 297 301 300 301 300 302 300 301 301 303 301 300 299 302 304 304 305 299 301 293 290 288 287 286 285 283 283 282 281 280 279 278 278 277 278 276 276 276 275 276
296 295 289 293 296 294 294 296 296 294 295 296 298 301 301 300 301 302 304 302 300 304 298 289 288 286 285 284 284 282 281 281 280 278 278 277 277 276 276 275 275 274 274 274
292 293 294 292 291 292 291 293 294 292 293 295 298 300 301 299 297 300 299 300 295 293 288 287 285 284 283 282 283 281 280 278 277 277 276 276 275 275 274 274 273 273 273 272
290 289 293 292 292 289 288 288 289 291 292 293 295 300 298 297 296 295 290 297 290 288 287 284 282 281 281 279 280 279 280 278 278 277 276 275 274 274 273 273 273 273 272 272
290 289 288 290 290 289 288 289 289 290 293 298 298 298 298 297 295 291 290 288 286 284 283 282 281 280 279 280 280 279 279 278 277 277 277 276 275 275 274 273 273 272 272 271

GFSNW_925_thetae_096.txt.gz
Theta_e
297 297 296 295 297 297 297 296 291 297 299 299 301 296 301 301 301 301 302 305 306 308 312 310 311 312 312 311 312 314 311 317 319 317 316 315 313 310 314 317 318 317 317 318
297 297 295 295 296 297 297 296 293 298 300 299 299 300 302 301 302 302 302 305 306 307 308 311 310 311 309 309 311 313 310 313 317 315 318 316 317 316 312 317 310 311 313 315
297 297 296 296 296 296 296 296 294 293 297 300 302 300 300 301 302 302 302 302 303 306 306 308 308 309 308 308 310 313 309 309 311 314 311 313 315 315 311 313 318 316 315 314
297 297 297 297 296 296 296 294 292 295 300 298 301 300 303 302 302 303 303 303 304 304 307 307 308 309 309 310 311 312 311 309 312 313 311 310 310 312 311 311 312 317 320 319
298 298 298 297 296 295 296 293 291 295 298 299 301 301 303 301 301 302 304 304 305 304 306 307 307 309 309 310 311 310 312 313 313 313 312 312 313 312 311 312 311 312 315 316
298 298 298 298 297 296 295 295 296 296 297 299 298 300 302 302 302 303 303 303 304 306 305 307 308 308 308 309 310 309 310 312 310 314 312 312 313 312 312 311 319 319 317 321
298 298 298 298 298 297 295 296 295 295 296 296 297 297 298 299 299 303 304 304 305 305 306 306 306 308 308 309 309 308 309 310 309 313 309 310 312 314 318 319 319 317 317 317
298 298 297 297 299 298 296 296 296 296 294 296 297 298 299 299 301 302 302 303 304 305 307 307 307 306 307 307 308 308 308 309 309 311 310 311 312 316 318 318 319 317 316 317
298 299 299 297 297 299 298 296 296 297 297 297 297 298 299 299 299 300 302 304 304 305 303 306 307 308 309 311 310 307 308 308 309 309 313 312 317 316 314 316 321 312 313 314
299 300 300 299 296 298 299 297 296 297 298 297 298 298 299 299 301 301 301 302 305 305 304 307 306 306 307 308 313 311 309 308 310 310 311 312 315 315 314 314 315 310 310 313
299 300 300 299 297 297 299 296 296 296 297 298 299 298 299 300 301 302 301 302 303 305 308 305 303 302 306 310 312 313 311 311 311 310 311 312 312 313 314 311 310 308 308 310
299 299 300 300 298 296 298 297 297 296 297 298 297 298 298 299 301 302 304 304 305 304 303 303 303 303 304 310 311 310 313 311 310 310 309 312 309 309 308 307 306 305 305 305
300 300 300 300 299 296 298 297 297 296 297 297 297 297 297 298 299 300 301 302 303 305 303 305 304 305 306 309 311 311 313 312 312 312 313 311 308 306 305 305 304 303 301 301
300 300 300 300 300 296 297 297 297 297 298 299 295 297 297 298 298 301 302 301 303 304 305 304 302 305 307 309 311 310 309 308 310 312 307 306 303 302 302 301 301 301 298 297
299 299 300 300 300 297 297 297 298 297 298 297 298 298 299 300 299 300 302 303 304 305 305 299 302 305 307 306 308 306 305 305 306 305 302 306 302 299 300 299 300 297 297 295
299 298 299 300 300 297 298 297 297 298 298 300 296 299 300 301 301 302 303 303 304 305 303 301 303 306 307 308 307 301 299 299 300 300 298 300 299 297 296 298 295 293 291 290
299 300 299 299 300 297 297 297 298 297 298 299 299 298 299 302 302 301 301 302 301 304 304 303 305 306 306 305 303 297 297 296 296 295 298 300 297 294 293 294 293 291 288 286
301 300 300 300 300 297 297 299 301 298 299 300 300 301 302 303 303 305 304 304 304 305 304 305 307 307 305 298 295 294 293 295 292 293 293 294 294 292 291 290 291 289 287 285
301 300 300 299 294 295 298 300 299 298 299 299 299 299 304 301 304 305 304 303 304 301 304 304 306 299 295 295 293 291 290 290 289 290 290 290 291 291 290 288 287 287 286 284
300 298 295 296 298 298 299 297 297 297 300 301 301 301 303 302 303 303 303 302 304 306 304 302 297 294 292 290 289 288 288 287 287 288 288 287 288 288 286 284 284 284 283 282
298 298 298 299 299 297 296 298 300 300 299 296 298 302 303 301 303 304 300 304 303 305 304 306 299 295 291 287 286 286 285 285 284 283 282 283 284 285 284 282 281 280 280 279
299 299 299 299 298 299 301 299 299 297 299 299 296 300 302 301 299 303 302 301 302 301 303 300 292 290 288 286 285 284 283 282 281 280 280 279 281 281 280 280 279 279 277 276
299 297 297 298 295 298 294 302 302 301 298 300 301 302 297 298 299 301 303 303 302 301 296 291 288 287 286 284 283 282 281 280 279 279 278 277 276 276 276 274 274 274 274 274
295 293 287 289 292 289 290 294 293 292 294 296 298 300 299 299 299 300 303 301 301 300 293 285 286 285 284 283 282 281 279 278 277 275 275 274 274 274 274 274 274 273 272 272
291 290 289 288 288 287 288 290 291 292 292 295 299 299 299 296 293 297 300 296 292 290 285 283 283 283 282 282 281 280 278 273 273 275 273 274 274 273 273 273 273 272 272 272
288 287 290 290 285 285 285 286 287 290 290 292 295 293 292 290 288 289 287 292 286 282 281 281 281 278 278 278 279 276 276 275 275 274 274 273 272 272 272 272 272 272 271 271
288 286 286 288 287 286 284 285 287 288 291 293 295 292 293 293 289 287 286 283 281 282 282 279 277 279 278 276 277 277 277 276 275 274 273 273 273 273 272 272 272 271 271 271

GFSNW_925_thetae_099.txt.gz
Theta_e
296 297 297 295 295 296 297 295 291 296 299 294 294 291 300 300 301 300 301 304 305 309 307 308 310 315 313 309 311 313 310 314 312 311 315 315 308 310 313 315 315 315 315 316
297 297 296 295 296 296 296 296 295 297 299 301 298 299 301 300 300 301 302 303 305 307 307 305 310 309 308 308 309 312 310 313 315 315 317 313 317 315 311 314 310 313 315 316
297 297 297 296 295 296 296 295 294 292 295 298 300 301 299 299 301 302 301 302 301 302 306 306 307 308 308 308 309 310 311 312 313 314 312 313 313 315 314 312 316 315 315 316
296 297 297 297 296 295 295 295 290 293 297 300 300 300 300 300 301 302 303 303 302 302 304 307 306 309 310 309 309 312 313 312 313 314 312 310 311 312 314 311 311 313 316 316
297 298 298 297 297 296 295 291 290 293 294 296 299 299 301 301 303 301 302 303 303 304 306 306 305 307 308 309 310 310 312 314 312 312 310 310 312 311 311 311 311 312 313 314
297 298 298 298 298 296 295 294 294 293 295 296 297 300 300 301 299 299 302 303 304 304 304 304 305 306 307 308 308 309 309 311 310 312 311 309 312 311 311 318 317 319 319 319
297 298 298 298 298 297 295 295 293 292 294 296 297 297 298 298 298 299 300 301 304 304 305 305 306 306 307 308 308 308 308 309 308 310 308 307 312 317 316 318 317 316 318 316
297 297 298 298 297 299 296 295 294 293 292 295 296 297 297 297 298 300 300 301 302 304 306 307 307 305 306 306 308 308 308 308 307 308 309 308 315 315 317 318 316 313 314 315
297 297 298 298 298 297 297 295 295 295 295 295 296 296 297 298 298 299 300 300 303 304 303 302 308 307 308 309 309 307 307 306 306 307 311 309 314 315 313 315 319 311 311 314
296 298 299 299 300 298 299 297 295 296 297 296 296 296 298 298 298 300 299 302 302 303 304 304 306 307 305 307 310 311 308 307 309 308 308 309 312 313 312 314 312 309 309 311
297 298 298 299 300 299 297 298 297 295 296 296 297 297 296 298 299 298 298 298 299 302 305 305 304 304 305 308 310 311 311 310 310 310 308 310 310 312 310 308 309 307 307 308
297 298 298 299 301 298 297 297 297 296 297 298 296 297 297 297 299 299 300 301 301 304 305 303 303 304 300 308 309 309 313 311 308 308 309 310 306 307 306 305 304 304 304 303
297 297 298 300 300 300 297 297 297 296 295 296 296 297 296 296 297 298 298 299 302 304 303 305 305 304 304 308 310 310 307 310 313 311 311 307 306 304 302 303 301 299 298 297
297 298 299 300 300 300 297 297 296 296 297 294 295 296 296 297 297 297 299 299 301 302 303 305 306 304 305 308 310 310 307 307 307 309 305 305 301 300 300 301 298 296 294 293
298 299 299 299 300 300 297 297 297 296 298 296 296 296 297 298 298 297 298 300 300 301 302 302 303 302 305 306 307 304 303 303 305 302 302 303 300 298 298 295 294 293 293 293
299 299 298 298 300 300 298 295 297 297 297 299 296 295 298 300 298 297 299 300 301 303 303 300 300 303 305 305 304 300 299 297 297 299 297 299 297 295 294 292 290 289 288 288
299 299 298 299 299 298 296 297 297 297 297 299 297 295 297 301 299 298 301 301 302 304 304 302 301 303 306 303 303 296 297 294 294 294 299 297 294 293 292 291 289 288 285 284
299 299 298 299 299 297 296 298 300 297 298 299 298 297 299 302 299 301 301 302 303 304 303 304 303 305 302 296 294 292 292 293 292 292 292 293 292 291 289 289 288 286 285 284
299 299 299 300 296 295 296 299 298 297 298 298 299 300 300 300 303 303 303 303 303 301 303 303 304 298 294 294 292 290 289 289 289 290 289 290 291 289 287 286 286 285 284 283
301 299 294 294 294 297 298 298 297 297 298 300 301 297 302 300 303 303 303 302 302 305 304 298 296 291 290 289 288 288 287 286 286 288 288 286 287 286 284 283 282 282 282 282
296 294 296 298 298 297 295 297 299 299 300 297 298 299 303 300 302 303 301 303 303 305 304 304 297 294 290 287 286 285 284 283 282 282 281 282 283 284 283 281 281 280 279 278
299 298 298 298 296 298 300 299 299 297 298 295 297 302 302 300 296 302 301 301 302 300 303 296 289 289 287 285 284 283 282 281 280 279 279 279 280 280 280 279 278 277 276 274
299 296 295 298 293 295 293 300 300 300 298 299 301 301 297 298 298 301 303 302 301 300 295 289 287 287 285 284 283 282 280 279 279 278 277 276 275 274 275 274 273 273 272 272
294 290 286 288 283 286 286 292 289 292 294 297 299 299 299 298 299 300 299 301 301 297 294 286 285 285 284 282 281 280 278 277 275 273 273 272 272 272 272 272 272 272 271 271
290 289 289 286 285 285 285 286 290 291 292 295 299 297 296 294 291 292 294 291 289 288 283 279 281 282 282 280 280 277 275 271 271 272 272 272 272 272 271 272 272 272 271 271
288 286 287 286 284 284 284 286 288 290 291 293 295 292 288 289 285 287 286 291 284 280 279 281 281 277 277 277 276 274 273 273 272 272 272 272 272 271 271 271 271 271 271 270
286 284 284 281 282 281 282 283 287 288 290 289 292 288 289 288 286 285 284 279 276 278 279 277 276 277 276 275 276 275 274 273 273 273 272 272 272 272 271 270 271 271 270 270

GFSNW_925_thetae_102.txt.gz
Theta_e
296 297 297 296 295 295 296 293 290 295 298 296 294 291 297 298 299 299 300 302 304 307 306 306 309 310 309 308 308 314 310 312 313 309 310 314 307 309 308 312 313 314 313 313
296 297 297 296 295 296 296 294 294 295 298 293 298 297 300 300 300 300 301 301 303 305 305 303 307 308 308 308 309 310 310 312 316 314 314 312 314 314 311 312 310 313 315 313
296 297 297 297 296 295 296 293 293 290 294 298 299 300 300 299 300 301 301 301 301 301 304 304 304 307 308 308 309 311 310 311 311 314 311 310 313 313 314 312 313 312 311 314
296 297 297 297 297 296 295 295 291 292 292 299 298 300 299 300 301 300 301 301 303 303 304 303 306 307 307 307 308 310 312 310 311 312 313 312 312 313 313 312 311 312 312 313
296 297 297 298 297 296 294 294 289 291 294 295 297 298 299 301 299 301 303 301 301 303 304 304 305 305 306 308 309 310 310 313 312 312 312 310 311 313 312 312 313 312 311 313
296 297 297 298 298 297 295 293 293 293 293 294 295 296 299 300 298 298 301 299 300 302 304 303 303 302 304 306 308 309 309 311 310 311 311 309 311 310 312 316 316 317 316 317
296 297 297 298 298 298 295 294 293 294 293 294 296 296 297 297 297 298 298 299 301 302 303 303 304 305 306 306 307 307 309 309 307 311 309 306 314 315 314 316 315 316 315 314
296 296 297 297 298 298 295 294 294 294 290 294 295 296 296 296 296 297 298 299 300 302 304 305 306 305 305 306 307 308 308 307 308 310 310 307 315 315 316 317 316 313 313 315
295 295 296 297 298 298 297 295 294 295 294 294 295 295 295 296 297 298 299 299 299 303 303 304 307 307 307 308 309 306 307 306 307 309 311 308 310 314 312 314 318 311 310 314
295 295 296 298 299 299 298 296 295 295 296 295 296 295 296 297 297 299 298 300 299 301 302 307 305 307 305 306 309 309 308 308 309 309 309 309 309 310 311 313 310 308 309 311
295 295 296 298 298 299 299 298 297 295 296 295 296 296 296 297 298 298 297 296 300 301 304 305 305 304 304 307 308 305 309 308 308 308 309 309 306 310 309 306 305 305 304 304
294 295 296 297 298 299 300 297 297 296 296 297 297 296 296 296 297 296 298 298 301 300 305 305 305 305 302 305 307 307 311 310 310 308 307 306 303 304 303 302 301 301 299 299
294 295 296 297 298 299 300 297 297 295 295 297 296 297 297 297 297 298 298 296 300 301 301 304 306 306 302 304 307 308 308 305 309 311 308 305 303 301 299 298 297 295 295 295
294 295 296 297 298 299 300 297 297 296 296 296 294 295 295 296 296 296 297 297 300 300 300 301 305 304 303 304 308 308 306 304 305 307 304 302 300 301 298 296 295 294 292 291
295 295 297 298 299 300 300 297 296 296 297 297 296 295 296 296 297 296 296 297 297 297 301 302 304 300 302 304 306 303 302 300 303 303 299 301 299 297 294 292 291 290 290 290
296 297 298 299 299 300 297 295 297 297 296 298 295 294 295 299 297 296 296 297 297 301 303 301 300 301 303 304 303 299 298 296 296 297 297 297 296 294 292 290 288 286 285 285
297 298 298 298 298 299 297 296 297 297 297 298 297 295 295 299 297 295 297 299 299 301 304 303 302 301 303 302 302 297 295 293 293 293 297 296 292 292 291 289 287 286 283 282
297 298 298 298 298 298 296 298 299 297 296 298 296 297 296 301 297 300 300 300 300 302 304 303 303 304 301 299 294 291 291 292 290 290 291 293 291 289 288 287 286 285 284 283
298 298 299 299 297 294 296 298 297 297 297 297 298 298 296 300 301 299 299 298 302 300 302 301 303 299 293 293 292 289 287 287 287 289 288 289 288 287 285 285 284 284 284 282
299 299 293 293 292 298 298 296 296 297 297 299 299 297 299 299 302 302 302 301 302 303 301 297 297 291 289 288 287 286 285 284 284 288 287 285 286 285 283 282 282 282 281 280
297 293 295 296 298 297 295 297 299 298 299 298 298 298 300 300 301 303 301 303 302 302 304 301 295 292 289 286 285 284 283 282 281 281 281 282 282 283 282 281 280 279 277 276
295 298 298 297 296 297 299 299 299 297 298 293 298 300 301 300 297 299 300 303 301 303 300 296 289 288 286 285 283 282 281 280 279 279 279 278 279 279 279 278 277 275 274 273
298 296 295 297 291 297 297 298 298 297 298 299 300 301 297 298 298 300 302 302 302 299 293 287 286 286 284 283 282 280 279 278 277 276 276 275 274 273 274 272 272 272 271 271
293 292 286 291 284 285 284 294 295 292 293 298 298 298 299 298 299 298 301 299 301 297 287 284 284 284 282 281 280 279 276 275 274 272 272 272 271 271 271 271 272 271 270 270
290 289 288 284 284 285 285 285 291 291 292 296 298 296 294 292 293 289 292 291 288 287 284 278 282 282 281 279 278 276 274 271 270 271 270 270 271 270 270 271 271 271 270 270
286 285 285 285 284 283 285 287 289 289 291 292 291 290 287 289 285 287 284 291 285 279 278 280 280 276 277 276 275 272 272 272 271 271 271 271 271 270 270 270 270 270 270 270
286 283 283 278 280 279 281 283 286 287 291 283 288 286 288 286 283 282 281 277 274 275 277 275 276 277 275 274 275 274 273 272 272 272 272 271 271 271 271 270 270 270 269 269

GFSNW_925_thetae_105.txt.gz
Theta_e
296 296 296 296 296 295 295 293 293 294 297 296 295 296 297 298 297 299 301 301 304 304 305 305 307 309 308 308 309 312 311 313 314 311 309 313 309 309 308 310 313 314 312 312
296 296 297 296 296 295 296 293 293 294 297 295 297 298 298 299 300 300 302 301 302 302 303 304 306 306 308 308 309 311 310 313 316 314 316 311 314 313 310 312 312 312 314 314
296 296 296 297 297 295 295 291 292 291 296 297 297 298 298 300 299 300 302 302 302 303 303 305 305 306 307 307 309 310 310 311 312 313 312 312 313 313 313 314 315 313 314 313
295 296 297 298 297 296 294 294 292 292 292 298 297 298 298 300 301 301 301 301 300 302 304 304 305 306 305 305 308 310 310 312 311 311 312 313 312 312 312 313 312 314 313 314
295 296 297 298 298 296 294 291 293 292 295 295 296 297 297 300 298 299 302 299 299 300 303 304 305 304 304 306 307 309 308 311 310 313 312 312 310 310 313 314 313 314 314 314
295 296 296 297 298 296 295 292 292 294 294 294 296 297 298 299 298 297 299 299 299 300 302 303 304 304 304 304 305 308 310 311 311 310 311 309 308 309 312 313 316 317 315 316
294 296 296 297 298 298 295 294 294 295 295 294 295 295 296 296 296 296 297 298 299 301 302 304 304 304 305 305 306 306 309 309 309 310 310 309 315 315 314 315 315 314 314 316
294 295 296 296 297 298 296 294 294 295 294 294 295 295 296 296 296 296 296 298 299 301 305 305 306 306 306 307 306 307 307 308 310 309 310 308 313 315 316 317 315 313 314 315
294 295 295 296 297 298 297 296 294 295 296 295 295 295 295 296 297 298 298 299 299 303 303 306 307 307 306 307 309 307 308 308 309 309 309 310 312 314 312 314 315 311 311 313
293 294 295 295 296 298 298 297 295 294 297 295 296 296 297 297 298 299 299 299 300 300 304 306 307 307 305 306 308 310 308 310 311 308 308 308 309 309 311 315 313 309 308 308
292 294 295 295 296 298 299 297 296 295 296 296 296 296 296 296 298 299 298 299 301 302 304 305 307 307 306 307 308 308 309 309 310 309 308 307 305 309 312 308 304 304 303 303
292 293 294 294 296 297 298 298 297 295 296 297 296 296 296 295 296 297 297 299 301 301 301 303 306 306 305 306 307 307 310 309 311 308 309 305 303 303 301 302 301 299 299 299
292 293 294 294 296 297 298 297 296 295 295 296 296 297 296 296 296 296 298 298 300 301 301 303 303 305 305 308 307 307 308 305 308 309 306 304 301 298 298 297 296 295 295 295
292 293 294 295 296 297 298 297 296 296 296 296 296 295 295 296 296 296 297 298 299 300 301 301 300 302 304 307 307 307 305 305 303 305 303 302 299 298 296 295 294 292 291 290
292 294 294 295 296 297 299 298 297 296 297 298 297 295 296 296 296 296 296 296 298 298 299 301 301 303 304 305 306 303 300 298 301 302 299 299 297 294 293 291 290 289 290 288
292 293 294 295 297 298 297 294 296 296 296 298 297 294 295 296 295 295 296 296 297 299 300 300 302 301 305 305 305 299 298 295 294 297 296 295 294 292 291 289 287 286 285 285
293 294 295 296 298 298 296 297 297 296 296 297 296 296 295 297 295 295 297 297 299 299 300 303 303 303 304 303 304 296 294 293 292 293 296 294 293 292 289 287 286 285 283 282
294 295 296 297 299 298 296 297 297 296 296 296 296 296 297 299 300 300 299 299 300 301 302 302 302 302 302 302 294 291 291 291 290 290 292 291 290 288 287 287 286 285 284 283
294 296 297 299 298 294 296 297 297 296 297 296 296 297 298 300 301 300 300 300 300 300 303 304 303 301 300 294 291 288 287 287 286 288 288 288 287 286 284 284 284 284 284 282
295 296 297 294 293 297 297 294 295 296 298 298 298 296 298 299 300 300 301 300 302 304 302 299 302 294 289 287 286 285 284 284 285 289 287 286 286 284 283 282 281 282 281 279
296 292 295 295 297 297 295 297 298 296 297 297 298 298 299 299 301 303 301 301 302 302 303 303 298 293 288 286 284 283 282 281 281 282 282 282 282 283 282 281 279 278 277 276
295 296 296 297 297 297 298 298 298 297 298 296 297 298 300 300 298 300 300 303 302 304 300 299 295 288 286 284 283 281 281 280 279 279 278 278 279 279 278 277 276 275 274 273
298 296 295 298 293 299 298 297 298 297 295 296 299 301 300 299 299 300 302 303 304 300 296 291 288 286 284 283 281 280 278 277 277 276 275 275 273 273 273 272 272 271 271 271
294 294 292 295 292 289 289 294 296 294 295 299 299 298 300 298 300 297 302 298 302 298 296 289 286 284 282 281 280 278 276 274 273 272 272 272 271 270 270 271 271 271 269 270
290 290 289 285 285 285 286 288 293 291 293 297 297 296 296 293 295 290 295 296 291 289 288 283 283 282 280 279 278 276 274 272 271 271 270 270 270 270 269 270 270 270 270 270
286 284 287 286 286 286 287 288 291 289 291 294 293 292 291 290 287 289 287 292 290 284 281 282 281 279 277 276 275 273 272 271 271 271 271 270 270 270 269 269 270 269 270 269
285 283 280 280 279 282 284 285 286 287 291 292 291 291 290 287 286 285 282 283 281 279 280 279 278 277 275 274 274 273 272 272 272 271 271 270 270 271 271 270 270 269 269 269

GFSNW_925_thetae_108.txt.gz
Theta_e
295 295 295 296 296 294 296 297 299 297 299 301 301 300 300 299 300 301 303 303 303 303 304 305 306 307 309 308 309 315 313 316 313 312 314 310 307 307 310 311 312 313 312 312
295 295 297 296 296 295 297 298 297 297 299 300 299 300 300 301 301 301 303 304 304 304 304 305 305 306 307 307 311 314 312 316 312 313 315 314 314 313 310 312 313 315 317 317
295 295 296 297 297 296 297 299 299 298 300 299 299 299 301 301 302 302 302 303 303 303 304 305 305 307 306 306 310 310 312 313 315 313 314 314 315 315 314 314 316 314 314 314
293 294 296 297 298 296 296 298 298 297 298 299 298 298 299 301 301 301 302 302 301 302 304 305 305 305 306 306 309 311 312 314 313 313 313 314 314 314 314 314 315 315 313 314
293 294 297 297 298 296 296 301 299 297 297 297 298 297 299 299 300 299 301 303 302 301 303 305 306 305 306 307 308 309 311 313 311 312 311 313 313 312 313 313 314 314 314 314
294 295 296 297 298 296 297 296 296 298 297 297 297 297 298 299 298 298 299 300 300 301 303 304 304 306 306 307 308 307 310 312 311 311 311 311 311 312 312 313 315 316 316 318
294 295 296 297 298 297 296 296 297 298 300 298 298 297 296 297 297 298 298 299 300 301 302 304 306 307 307 307 308 307 310 310 310 311 310 311 316 316 314 313 315 315 315 316
294 294 295 296 297 298 296 295 297 298 300 299 298 298 298 298 298 298 299 300 301 302 305 307 306 307 308 308 308 308 308 309 311 311 310 308 309 316 316 315 317 315 315 315
293 293 295 295 296 297 298 296 295 296 298 300 298 298 298 300 300 300 300 300 301 304 306 307 307 307 307 307 309 309 309 308 310 309 309 310 316 313 313 316 317 313 312 312
293 293 294 295 295 296 298 297 296 294 299 298 298 300 300 299 300 301 300 300 301 304 303 307 307 307 307 307 308 310 311 312 312 310 309 307 310 309 311 317 315 308 308 308
293 293 293 294 295 295 297 297 297 296 298 299 298 298 299 300 300 301 301 301 303 304 306 307 307 308 307 308 308 311 309 311 311 310 310 309 307 312 314 309 306 306 304 304
292 292 291 294 294 295 297 298 297 295 295 300 298 298 298 298 299 299 299 301 301 302 304 304 305 308 308 308 308 309 311 310 311 312 313 305 303 303 303 305 305 303 302 301
292 291 292 293 294 295 297 298 297 294 294 298 297 299 298 298 298 298 300 299 300 302 302 303 304 305 306 309 308 308 309 306 308 309 305 303 301 300 299 300 300 299 298 299
292 292 292 293 294 295 297 297 296 295 296 299 300 297 298 297 298 298 298 299 301 301 302 302 302 303 304 307 308 307 306 305 305 306 303 300 297 297 297 296 296 295 294 294
291 292 292 293 294 295 296 298 297 297 298 300 300 298 298 298 298 299 299 299 300 300 301 301 302 303 305 306 307 306 301 300 303 305 299 299 297 295 294 293 293 292 293 292
291 291 292 293 295 295 298 295 296 297 297 299 300 299 298 299 298 298 299 299 298 299 300 301 302 302 304 308 306 299 298 296 295 298 296 295 293 292 292 291 289 289 289 289
291 291 293 293 295 296 296 300 298 297 296 299 298 300 299 299 299 298 297 297 299 299 300 302 303 304 305 305 305 297 295 294 294 295 296 294 293 292 290 289 287 286 286 286
290 292 293 294 296 297 297 297 297 296 296 298 298 300 299 299 301 301 299 299 300 301 302 303 304 303 304 304 296 293 293 293 292 293 292 292 290 289 288 289 289 288 287 286
292 292 294 295 296 294 296 297 297 296 298 298 297 300 302 301 301 302 301 300 301 302 303 303 304 304 304 296 294 291 289 289 289 290 291 290 289 288 287 287 288 287 286 285
293 293 294 295 293 297 297 296 295 296 297 299 298 299 302 302 301 303 304 302 302 303 302 303 304 299 291 290 289 288 287 286 288 290 290 288 288 287 285 284 284 284 283 282
292 292 295 297 297 297 296 299 299 300 298 298 299 300 302 301 303 304 302 302 303 303 305 304 304 299 290 288 286 285 285 284 284 284 284 284 284 285 285 283 281 280 279 279
294 295 296 296 298 298 300 301 300 298 300 300 298 299 299 302 301 303 303 306 304 304 303 305 303 290 288 287 285 284 283 282 282 281 281 280 280 281 281 280 278 277 276 275
293 297 295 298 298 301 302 300 299 300 300 299 300 301 302 301 301 301 303 306 307 302 305 301 293 288 286 285 284 282 280 280 279 278 277 277 275 275 275 274 274 274 273 273
294 298 296 300 300 302 302 301 301 300 300 301 302 302 303 301 301 301 302 302 303 305 302 296 289 287 285 283 282 281 278 277 276 275 275 274 273 273 272 272 272 273 272 272
293 296 298 295 292 291 293 294 297 295 297 300 300 300 300 298 300 296 299 302 301 296 296 289 286 284 283 281 280 278 276 275 275 275 274 273 273 273 272 272 272 272 271 272
288 288 291 290 294 293 293 296 295 291 294 298 300 299 299 297 295 297 297 299 300 291 287 285 284 282 280 279 278 276 275 275 275 274 274 273 273 273 272 271 271 271 271 271
288 288 287 289 292 292 289 291 291 290 296 301 298 299 297 293 295 293 289 292 288 286 285 284 282 280 278 277 276 275 275 275 275 274 274 274 273 273 274 274 272 272 271 270

GFSNW_925_thetae_111.txt.gz
Theta_e
294 295 295 296 295 295 298 300 303 299 301 305 304 304 301 301 302 302 304 305 304 306 305 305 307 308 307 307 312 314 315 317 313 312 311 311 308 310 312 312 312 312 314 320
294 295 296 296 296 295 300 301 300 299 302 305 302 302 302 302 303 303 303 304 303 304 306 307 305 306 307 307 311 313 313 316 319 319 315 311 308 308 311 312 313 315 315 313
294 295 296 297 297 296 298 302 303 301 301 301 302 302 302 303 303 304 303 304 303 304 305 305 306 306 305 307 310 310 313 315 317 320 319 314 315 311 309 311 313 313 314 321
293 293 295 297 298 297 298 302 302 299 302 302 300 301 301 302 303 302 303 304 304 303 304 305 305 305 305 306 309 310 312 315 314 314 314 315 316 316 314 314 314 315 316 317
293 292 295 297 298 297 299 299 303 301 301 299 299 299 301 301 302 301 302 303 303 303 304 305 306 305 306 307 308 310 310 315 313 312 311 313 313 312 313 312 312 312 313 313
293 292 295 296 298 297 299 299 299 301 300 301 301 300 300 300 300 300 301 301 302 303 304 304 304 305 306 306 307 309 310 312 313 312 311 311 312 312 312 312 312 313 315 318
292 294 295 296 298 298 299 299 299 300 302 300 300 300 300 300 300 300 300 301 302 303 304 305 306 307 308 308 308 308 311 311 311 313 310 312 314 314 313 312 316 316 315 316
293 294 295 296 297 298 299 299 299 300 302 300 300 301 300 301 301 301 301 301 302 303 304 307 307 308 308 308 308 308 308 311 312 313 312 311 310 317 318 318 318 316 316 315
292 294 294 295 296 297 297 297 299 300 301 302 301 301 301 302 301 302 303 302 302 304 306 307 309 308 307 309 310 308 309 309 311 313 311 313 315 311 311 313 321 313 313 312
293 293 293 294 295 296 298 297 297 297 300 301 301 301 302 302 302 302 303 303 303 304 305 307 308 308 307 308 310 312 311 312 313 311 311 313 310 311 310 318 315 310 310 310
293 293 293 293 295 295 297 298 297 297 299 301 301 301 301 301 302 303 303 303 305 305 306 307 308 309 309 308 308 310 311 312 314 313 313 314 308 311 312 307 307 307 306 305
293 292 292 293 294 295 296 298 297 296 297 299 299 300 301 301 300 302 301 302 302 303 305 306 306 307 309 308 310 309 311 310 310 314 311 305 303 303 302 304 305 304 304 302
292 292 292 292 292 294 295 298 297 296 295 297 298 301 301 300 300 300 302 301 301 303 304 305 305 306 308 309 310 309 310 307 309 308 302 301 301 300 301 301 301 301 301 301
292 291 292 292 293 294 295 298 297 296 297 301 302 301 301 300 300 300 300 301 301 302 304 304 304 304 305 306 307 308 308 307 306 306 302 301 299 298 299 298 298 298 297 297
292 291 291 292 293 294 296 298 297 297 299 303 302 301 301 300 300 300 301 300 301 300 303 303 303 303 306 306 308 307 303 301 305 305 299 301 298 297 296 295 295 295 296 295
292 291 291 292 293 294 297 297 298 297 297 299 302 302 301 300 300 300 301 300 300 300 301 302 302 303 305 307 309 300 298 297 297 299 297 296 295 294 293 293 291 291 292 292
292 292 291 292 293 294 297 299 297 297 297 299 302 302 301 300 301 300 300 299 300 299 300 302 303 304 305 307 307 299 296 295 296 296 297 295 294 294 292 291 290 290 290 289
292 291 291 291 292 294 296 297 296 297 296 299 301 302 302 301 301 301 299 300 300 300 301 303 303 305 305 306 299 297 295 294 294 294 293 292 291 290 291 291 291 291 290 289
291 290 292 293 294 296 297 297 297 296 298 301 299 302 304 302 303 303 302 301 302 302 303 304 304 305 306 299 297 295 293 293 292 293 292 291 290 290 289 289 290 290 288 288
291 292 293 295 294 296 297 295 295 296 297 300 301 301 304 303 303 303 303 302 305 303 304 303 305 303 294 293 292 291 290 290 291 293 293 291 290 288 287 286 286 286 285 284
292 293 296 296 297 297 296 299 300 300 301 300 301 302 304 303 304 306 304 305 303 304 305 304 305 302 293 290 289 288 288 287 287 287 287 287 287 287 286 285 283 282 281 280
293 295 294 295 297 299 301 301 301 300 301 302 301 300 302 303 303 304 304 304 306 304 305 305 305 293 290 289 288 287 285 285 284 283 283 282 282 282 282 281 280 279 277 277
292 293 294 298 300 304 302 302 301 301 302 302 301 302 302 303 303 303 304 305 306 305 306 305 295 290 288 287 286 284 283 282 282 280 279 278 277 277 277 276 276 276 275 276
295 297 299 302 302 303 303 303 304 303 304 302 302 304 302 303 302 304 304 306 305 307 306 301 292 289 286 285 284 283 280 279 279 277 276 276 275 275 275 275 275 275 274 274
295 297 303 300 297 297 297 298 300 298 302 304 303 303 302 302 304 301 303 304 306 302 300 293 289 286 285 283 282 280 278 278 278 277 276 276 275 275 275 274 274 274 274 274
292 292 294 294 297 296 297 299 297 295 300 303 303 302 303 302 302 302 303 303 304 296 291 288 286 284 283 281 280 278 278 278 277 277 276 276 275 275 275 274 273 273 273 273
291 292 291 294 299 298 295 296 296 294 300 303 303 303 302 299 300 299 296 298 293 289 288 287 284 283 281 279 278 277 278 278 277 277 276 276 276 276 277 276 275 275 274 273

GFSNW_925_thetae_114.txt.gz
Theta_e
296 296 294 295 295 295 298 303 306 301 301 308 307 307 302 301 302 303 303 304 304 304 305 309 306 307 306 306 311 313 313 316 317 312 310 310 312 312 313 316 315 313 315 318
296 295 296 296 296 296 301 304 302 301 304 309 305 303 303 303 302 303 303 304 304 305 304 306 309 306 306 307 310 312 312 316 317 316 315 310 308 308 310 313 314 315 319 314
296 295 295 296 297 297 299 304 308 304 303 302 303 303 303 303 304 303 303 304 306 305 304 305 309 306 305 307 309 312 313 314 317 319 320 317 314 308 308 310 314 313 317 319
296 295 294 297 298 297 299 304 306 301 306 304 301 302 302 302 303 303 303 304 304 303 304 305 305 305 305 305 309 309 311 314 314 314 312 313 320 318 314 309 312 314 319 320
294 293 293 297 298 297 301 300 306 303 303 301 301 300 302 302 302 302 302 303 302 303 304 304 305 305 305 305 306 306 309 313 313 313 310 314 317 317 316 317 316 316 315 317
294 292 292 296 298 298 300 300 301 302 303 303 302 303 300 300 300 301 301 301 301 303 304 304 304 305 306 306 307 307 310 312 313 312 311 311 311 312 313 312 312 313 317 320
293 293 293 296 298 298 300 300 300 301 304 303 302 302 301 302 302 301 301 301 302 303 304 304 306 308 308 308 308 307 310 310 311 314 313 312 317 315 317 316 318 318 318 317
294 293 294 296 297 298 300 300 300 302 303 302 301 302 301 302 303 304 303 303 303 303 304 306 307 310 308 309 307 308 309 311 312 314 314 311 314 313 315 317 318 315 315 314
293 294 294 295 297 297 299 300 300 301 302 303 302 302 301 303 304 303 304 305 303 304 305 307 307 309 308 308 311 309 309 310 311 312 313 314 312 311 311 313 316 304 312 312
293 293 293 294 296 297 298 298 298 300 302 301 302 303 303 302 303 303 304 304 304 305 306 307 308 309 309 309 311 311 311 311 312 312 311 314 308 310 310 316 312 306 307 306
293 293 293 294 295 296 297 299 298 298 299 300 301 302 302 303 303 304 304 303 304 305 306 307 308 308 308 309 309 310 310 312 310 312 312 314 304 308 310 307 305 306 304 303
293 293 293 294 294 295 296 299 298 297 296 299 298 299 300 302 302 303 302 302 302 303 305 306 306 307 308 308 311 311 311 309 309 311 309 303 302 303 302 303 303 303 303 302
292 293 293 292 293 294 295 298 297 296 296 298 299 303 302 301 301 301 303 302 302 303 304 305 306 307 308 309 309 308 309 307 308 308 302 301 300 300 300 300 300 300 300 300
292 292 292 292 292 292 295 297 297 296 297 301 302 302 302 301 301 302 301 302 302 302 303 304 305 305 304 306 306 308 307 307 306 305 301 301 298 298 298 298 297 298 297 296
293 292 292 292 292 293 294 297 297 297 298 302 302 301 301 301 301 301 301 301 301 301 302 304 304 303 305 306 307 305 302 300 303 302 297 300 297 296 296 294 294 294 294 295
292 292 292 291 292 292 296 298 298 298 298 299 302 302 303 301 301 301 301 301 301 301 301 303 303 302 304 306 307 300 298 296 297 299 297 296 295 294 294 293 292 292 292 292
291 292 292 291 293 294 296 298 296 298 298 299 302 302 302 301 301 302 302 301 302 301 301 301 302 303 304 306 306 299 296 295 295 296 297 296 294 293 293 293 292 292 291 290
291 292 292 291 292 293 294 295 296 297 297 298 302 302 304 301 302 301 300 300 301 301 301 302 303 304 306 306 300 298 296 295 295 294 293 292 292 291 291 291 292 292 290 289
291 292 290 292 293 294 296 297 297 297 297 301 301 302 304 302 303 302 301 301 301 301 303 302 303 305 305 301 298 296 294 294 294 294 293 292 291 290 289 288 288 289 288 287
292 292 293 293 294 295 296 297 295 295 293 299 302 301 303 304 305 304 303 302 303 304 304 303 305 301 295 293 293 292 291 291 292 294 293 290 290 289 287 285 285 285 284 282
292 293 294 295 296 296 297 299 299 300 301 300 301 302 304 303 305 303 303 305 304 304 304 305 305 300 294 291 290 289 288 287 287 288 287 286 287 287 286 284 282 281 280 279
292 294 295 295 297 298 300 301 300 301 300 303 303 303 303 304 304 304 303 304 304 304 306 305 304 294 291 289 288 287 286 285 284 283 282 281 281 282 281 280 279 278 277 277
293 294 295 296 298 301 301 302 301 303 304 304 304 302 303 304 304 304 302 302 304 306 307 303 295 291 289 288 287 285 283 283 282 280 279 277 277 276 277 277 276 276 275 276
294 296 298 300 300 302 302 304 305 306 307 305 302 303 304 304 303 305 301 304 304 306 307 299 292 289 287 286 285 282 281 280 279 278 277 276 276 276 276 275 275 275 275 274
294 297 299 300 300 299 299 301 303 304 305 304 304 304 303 304 303 302 303 304 305 303 299 293 289 287 285 284 282 280 279 279 278 277 277 276 276 276 275 275 275 274 274 274
294 294 296 297 299 298 299 299 299 301 304 303 304 303 302 303 303 303 304 304 304 296 292 289 286 285 283 282 281 280 279 279 278 277 277 276 276 276 275 275 274 274 274 274
294 295 293 294 298 300 297 298 297 297 302 305 303 303 303 302 301 301 298 298 293 290 289 287 285 283 281 279 279 279 279 279 278 278 277 277 277 277 278 277 276 276 274 274

GFSNW_925_thetae_117.txt.gz
Theta_e
297 297 295 295 296 296 299 300 304 302 301 301 303 301 302 302 302 304 303 304 304 306 305 305 308 309 307 304 308 310 312 313 316 312 312 312 314 315 313 315 317 314 319 322
296 296 295 296 296 296 299 302 302 301 304 303 303 304 303 303 303 302 303 303 305 306 304 305 306 308 307 304 306 311 311 313 314 314 313 314 315 313 312 313 315 313 317 323
296 296 295 296 297 297 298 301 300 302 301 301 301 302 303 302 304 303 302 304 306 304 303 303 306 307 305 305 304 310 311 314 314 312 312 314 315 317 316 313 313 314 318 323
296 296 295 295 297 297 299 299 301 300 301 302 300 300 302 303 303 303 302 303 303 302 302 303 306 304 304 304 306 306 307 312 313 313 313 313 316 317 316 316 315 313 319 323
296 294 293 295 297 297 300 293 300 300 301 300 300 300 301 302 301 301 301 302 301 301 301 304 304 304 304 305 305 306 306 311 312 313 313 312 316 316 315 316 316 317 319 322
295 293 292 295 298 298 301 300 301 299 301 301 301 302 301 301 302 301 302 300 300 302 303 302 302 302 303 303 304 305 308 310 311 314 313 313 319 317 317 315 317 318 319 318
294 293 292 295 297 298 300 301 300 297 299 301 302 302 301 302 302 302 302 302 302 303 302 302 303 304 305 306 307 306 308 309 310 312 312 316 314 311 314 313 311 311 315 313
294 293 292 294 296 298 299 300 300 299 299 301 301 303 303 301 302 303 303 305 304 301 302 304 305 305 307 308 309 309 308 309 309 311 312 315 310 308 310 314 311 307 311 309
294 294 294 294 296 297 298 299 300 299 297 301 302 301 303 302 301 301 304 302 302 303 303 300 305 308 310 310 310 308 310 309 309 308 312 314 308 305 307 308 309 306 305 305
293 293 294 294 296 297 298 298 298 299 298 299 300 302 302 302 301 300 303 302 302 302 299 303 305 307 308 309 309 308 308 308 309 309 311 311 304 305 306 310 309 304 304 303
293 293 293 294 295 296 298 299 298 297 297 297 300 302 302 301 301 301 300 299 299 299 300 305 304 304 305 307 311 311 308 306 303 307 308 308 303 304 306 305 305 304 303 302
293 293 293 293 294 295 296 298 298 298 296 297 297 297 297 299 300 300 300 301 300 300 299 300 301 302 303 305 311 308 310 308 308 305 305 302 300 301 300 301 300 300 301 300
293 293 293 293 293 294 295 297 297 297 296 296 296 298 302 301 300 300 300 299 301 302 301 301 302 303 298 306 304 307 307 306 304 305 302 300 298 297 298 298 299 298 296 296
292 292 293 293 292 293 294 296 297 296 296 297 299 301 301 302 302 301 301 301 301 300 299 300 299 302 301 302 303 306 303 301 299 302 299 298 296 296 296 295 295 295 295 294
291 291 293 293 291 292 292 295 297 297 297 299 296 298 301 300 301 301 302 301 300 300 296 297 297 300 300 301 304 304 300 299 300 300 297 298 295 295 293 292 293 292 293 293
291 292 293 292 291 292 294 295 297 296 298 298 297 299 302 301 301 301 301 300 299 298 298 294 297 300 298 302 300 298 297 296 296 297 296 295 294 293 293 292 292 292 291 290
292 292 292 292 291 292 295 296 296 297 298 298 297 298 301 301 301 300 299 300 299 298 298 298 298 298 301 299 299 298 296 295 295 295 296 294 292 292 292 293 293 291 290 288
291 291 292 291 291 292 293 294 295 297 297 298 298 297 301 301 300 299 297 299 300 298 297 298 299 300 301 301 299 297 295 295 295 293 292 291 291 290 289 289 291 289 288 286
291 290 291 291 291 293 294 295 297 296 296 299 298 298 295 301 301 300 299 299 300 297 298 298 298 296 298 299 296 294 293 292 293 293 292 291 290 288 287 287 287 286 284 283
292 291 292 290 292 294 296 296 296 295 296 297 299 297 297 300 297 300 299 301 302 299 298 300 298 294 293 291 290 290 289 288 289 292 288 288 288 287 285 284 283 282 281 280
291 292 291 292 293 295 296 295 296 297 298 295 297 298 297 300 298 296 297 302 301 301 301 303 303 297 292 289 288 287 286 284 284 282 282 282 283 283 282 281 279 279 279 278
291 292 294 294 295 295 295 298 296 298 298 296 296 297 298 299 299 300 300 300 299 301 301 301 297 292 289 287 286 284 283 282 280 279 279 278 279 279 278 278 277 277 277 277
292 294 294 294 295 296 296 297 297 295 296 298 296 295 298 298 299 295 299 301 300 296 301 298 293 290 287 285 283 282 281 280 279 278 277 276 275 276 275 275 275 274 275 275
291 292 291 294 298 297 295 296 297 296 297 298 297 296 297 295 298 300 299 297 301 301 299 295 290 287 285 283 281 280 279 277 277 276 276 275 275 275 275 275 275 274 274 274
292 294 292 297 299 297 298 298 297 297 296 297 296 297 298 298 297 299 298 300 298 299 293 288 286 284 283 281 280 278 277 276 276 277 276 276 275 274 274 274 274 274 274 274
293 293 293 295 298 297 298 298 299 296 293 293 295 296 299 296 299 301 296 300 298 294 288 285 283 281 280 279 278 279 278 277 277 277 276 276 276 275 274 274 274 273 273 273
293 293 292 293 295 297 296 296 297 296 296 299 299 298 299 297 297 300 296 294 286 286 285 283 281 279 277 277 278 279 279 278 278 277 276 276 276 275 275 275 275 275 274 274

GFSNW_925_thetae_120.txt.gz
Theta_e
296 297 295 296 295 296 299 300 302 302 301 300 298 299 304 302 302 302 302 302 303 305 305 303 305 306 307 303 303 306 309 315 315 312 312 313 314 316 316 316 321 319 319 322
297 297 295 296 296 296 300 301 300 301 302 300 301 304 303 302 302 301 302 302 305 304 303 303 304 305 305 303 303 304 308 312 313 310 311 311 313 313 314 316 316 318 319 323
296 296 296 296 297 297 299 299 299 299 299 299 300 300 302 302 303 302 302 303 304 301 301 302 302 305 304 303 303 309 307 311 313 313 312 312 314 313 314 316 317 316 319 320
295 296 295 296 297 297 300 295 299 299 296 297 298 299 300 301 303 301 300 301 301 300 300 301 304 303 303 302 304 304 305 309 310 311 312 315 316 316 315 317 318 315 320 322
296 295 294 296 298 297 300 294 298 297 300 298 298 300 300 300 300 299 299 300 300 299 300 302 303 302 302 302 304 304 304 308 310 311 312 314 315 316 313 314 315 319 317 318
295 293 293 295 297 299 299 299 299 296 299 299 298 300 300 301 301 301 301 300 299 299 301 301 301 300 301 302 303 303 305 307 308 312 311 315 312 310 311 310 309 316 318 314
294 293 292 294 297 300 301 300 298 295 297 299 301 302 301 302 303 302 302 303 303 302 301 300 301 302 302 303 304 303 306 307 308 311 310 316 312 306 309 308 307 306 309 306
294 293 293 294 297 298 300 300 299 297 296 300 301 302 303 301 300 301 304 302 302 300 301 302 304 304 307 308 308 308 306 307 307 310 311 315 308 305 307 309 308 306 306 306
294 293 293 294 296 298 299 299 299 297 294 300 301 301 301 300 299 299 302 301 300 301 300 299 305 308 308 309 308 307 308 308 307 308 312 311 306 302 303 306 308 305 303 303
294 293 294 294 296 297 298 298 298 297 291 297 299 299 300 300 299 299 299 300 300 298 296 302 303 306 306 308 309 308 308 306 306 307 310 308 302 302 302 306 307 304 303 302
293 293 294 294 296 297 298 298 298 296 292 296 298 300 301 300 299 299 298 296 298 297 299 302 301 302 304 306 308 308 307 305 306 304 305 305 300 301 303 302 299 301 301 300
293 293 293 293 295 296 297 298 298 297 295 294 297 297 297 298 300 298 298 299 299 299 296 296 299 301 301 303 304 307 309 307 304 304 304 300 298 299 298 299 299 297 296 297
293 293 293 293 294 295 296 298 297 296 295 294 294 298 301 299 298 298 298 296 299 301 298 298 299 301 295 301 301 304 305 302 303 303 300 298 296 296 296 296 296 296 296 294
293 293 293 293 293 294 295 296 296 296 295 295 295 298 297 300 301 299 299 299 300 299 297 298 296 300 299 300 301 302 302 298 300 299 298 297 295 294 293 293 293 293 293 292
292 292 293 292 292 293 293 295 296 296 296 295 294 296 300 301 300 301 300 300 297 295 293 292 295 297 297 298 301 299 298 297 296 294 293 297 294 293 292 291 292 291 291 290
292 292 293 292 291 291 292 290 296 296 297 295 296 295 297 300 300 300 300 299 298 296 296 291 292 297 296 295 302 298 297 295 296 297 294 293 292 292 292 292 292 290 289 289
291 292 293 292 291 292 294 292 296 297 297 296 296 295 298 300 300 298 297 300 299 298 297 296 296 296 298 295 299 297 296 295 295 294 293 291 292 291 291 290 292 289 287 286
291 291 291 291 291 291 291 293 295 297 297 297 297 295 299 300 298 297 295 298 299 298 297 295 297 297 298 297 297 296 295 295 294 292 291 290 289 288 288 288 289 287 285 284
291 291 291 291 290 291 292 293 295 296 296 297 297 296 298 299 298 296 296 295 294 294 295 296 296 293 291 295 294 292 291 290 292 293 291 289 287 286 285 285 284 283 283 282
291 291 290 282 292 293 295 296 296 296 296 296 297 295 295 297 290 298 296 299 300 298 296 297 294 293 291 289 288 287 286 285 290 287 286 286 286 283 282 281 281 280 280 279
290 289 290 291 293 295 294 294 295 296 297 295 296 295 294 296 295 292 293 300 300 301 298 298 300 294 290 287 286 284 283 282 281 281 281 281 283 281 280 279 279 278 278 277
290 291 293 293 293 292 293 294 295 297 296 291 293 294 296 296 294 296 299 300 299 302 300 303 296 289 286 285 283 281 280 279 278 278 278 279 278 278 278 277 276 276 276 276
292 292 293 294 289 294 295 295 296 291 292 291 293 293 297 299 296 297 291 300 299 293 294 293 291 288 284 282 281 280 279 278 278 277 276 276 275 275 274 273 274 274 275 275
288 291 289 293 293 291 292 293 292 292 291 294 293 292 296 291 295 288 292 294 299 300 296 292 287 285 283 281 280 279 277 276 275 274 274 274 274 274 274 274 274 274 274 274
288 292 290 287 294 295 294 295 298 296 291 295 294 294 295 292 298 298 298 301 301 296 291 283 283 282 281 280 279 277 275 274 274 275 275 274 274 274 274 274 274 274 274 274
290 291 289 289 294 295 297 298 299 296 292 289 293 295 298 297 298 299 298 299 294 288 285 282 281 279 278 277 277 276 276 276 276 276 276 275 274 274 273 273 273 273 273 273
290 287 284 287 292 294 295 296 296 295 294 292 299 296 298 296 298 298 297 296 282 284 284 281 279 278 276 276 276 276 276 276 276 276 275 275 275 275 274 274 274 274 274 273

GFSNW_925_thetae_123.txt.gz
Theta_e
296 297 296 296 295 295 297 300 300 301 301 302 299 302 304 301 301 301 302 301 303 304 303 302 303 305 305 303 302 302 304 309 311 310 311 312 313 315 315 318 319 319 320 322
296 297 297 296 295 298 300 299 299 300 301 303 304 304 302 302 301 301 301 301 304 302 301 301 302 303 303 303 302 303 304 308 309 307 309 309 312 312 314 316 318 320 321 319
298 297 296 296 297 297 300 297 299 299 299 299 299 300 301 302 302 301 300 302 300 300 300 301 300 301 303 302 302 305 305 308 305 305 309 311 314 314 314 316 318 317 320 316
297 296 296 296 297 297 299 295 299 300 301 298 298 299 300 301 301 299 299 300 299 299 299 300 301 302 302 301 302 303 304 306 308 308 309 311 314 315 314 314 316 319 318 314
295 295 295 296 297 298 299 298 300 297 299 297 297 299 300 300 299 299 299 300 299 299 299 299 300 301 301 301 302 301 302 305 307 309 311 311 307 308 309 309 311 317 313 310
296 295 294 296 297 299 298 298 297 297 298 298 297 299 300 301 300 300 300 300 300 300 300 299 300 300 301 301 301 302 302 305 307 310 310 316 310 307 308 308 307 311 315 309
296 293 293 296 298 300 300 300 296 296 298 298 300 302 300 302 302 301 303 301 302 302 300 299 300 300 301 301 301 301 303 306 306 310 310 311 309 305 307 307 305 305 306 304
295 293 292 296 297 300 300 300 298 296 297 299 301 302 301 300 299 300 302 301 301 298 300 302 303 304 305 306 307 306 302 305 307 309 312 311 308 303 304 307 306 303 304 305
294 293 293 295 297 299 299 298 299 296 297 299 300 300 300 299 299 299 300 300 299 298 299 298 305 307 307 308 306 304 306 304 308 308 311 309 305 301 301 304 306 303 302 301
294 293 293 295 297 298 298 298 298 296 294 297 298 299 299 298 298 298 298 299 298 297 295 302 303 305 304 307 307 306 305 304 306 306 311 307 301 300 301 306 303 301 301 301
294 293 293 295 297 298 298 298 297 296 292 295 297 300 300 299 297 298 297 295 295 296 297 300 300 302 303 305 307 305 306 305 304 303 304 302 299 300 302 301 298 297 296 299
293 293 293 295 297 298 298 298 297 297 293 294 297 298 298 298 299 296 296 297 298 298 294 293 298 300 299 302 303 303 301 305 304 304 303 299 298 299 298 298 298 297 295 295
293 293 293 294 296 296 297 297 296 295 291 291 294 298 298 298 297 298 296 295 297 299 296 296 297 300 294 300 300 302 303 299 301 302 300 298 296 295 295 295 294 294 294 293
293 293 293 294 295 295 297 296 296 295 295 291 295 297 297 299 299 299 298 299 299 298 295 297 295 299 298 299 300 301 301 298 299 299 298 296 294 293 292 293 292 292 290 289
293 293 293 293 293 294 295 296 295 296 294 293 294 295 298 299 298 300 298 298 296 294 292 291 295 296 296 297 299 301 298 296 295 289 295 296 294 293 292 290 291 290 291 289
293 293 292 292 292 293 293 289 294 296 296 291 294 294 295 298 299 300 299 298 297 296 296 291 291 295 295 292 299 298 297 296 296 297 294 291 291 290 291 293 291 289 288 287
292 293 292 291 291 292 292 291 296 296 296 295 291 294 297 299 299 296 299 300 298 299 298 296 295 295 297 293 300 296 295 295 294 293 293 291 291 290 289 291 288 287 285 284
292 293 292 291 290 292 292 293 296 296 297 296 291 294 300 299 298 298 293 298 299 299 299 295 296 296 295 294 297 296 295 294 293 291 289 288 286 285 286 287 286 284 283 283
292 292 291 290 290 290 291 294 296 296 295 295 295 293 294 299 297 294 295 293 296 293 295 295 295 291 293 291 295 293 291 291 293 291 288 286 285 283 282 283 283 282 281 280
292 291 289 285 290 293 295 296 295 296 295 295 296 293 297 297 293 296 295 298 296 296 296 295 293 290 290 288 286 286 285 286 289 287 286 287 283 282 281 280 280 279 279 279
290 288 285 292 294 294 292 293 294 296 295 295 295 293 293 294 294 293 291 298 298 299 297 298 297 293 289 286 284 283 282 282 281 282 281 283 282 281 280 279 278 278 277 276
291 291 293 293 291 292 292 293 294 295 295 292 294 294 293 294 291 293 297 299 299 301 299 301 295 287 286 283 282 280 279 279 278 279 279 279 279 278 278 276 276 275 274 274
292 291 292 291 288 291 293 293 296 295 291 289 291 291 293 294 293 294 296 300 299 293 297 294 286 286 284 282 281 279 278 278 277 277 276 275 274 274 274 273 273 274 274 275
285 286 287 288 291 291 288 291 290 290 287 290 290 291 295 294 294 287 289 292 298 299 299 292 284 284 282 281 280 279 277 275 274 273 274 273 273 274 274 274 274 275 274 274
289 291 288 285 287 291 293 288 292 295 290 289 292 293 295 295 297 297 294 299 300 295 292 283 281 282 281 280 278 276 274 272 272 273 273 274 274 273 274 274 273 273 274 274
287 290 287 285 287 288 285 297 298 295 287 289 291 294 293 297 292 298 297 297 293 289 282 278 281 280 278 277 276 274 274 274 274 274 274 274 274 274 273 273 273 273 273 273
290 289 288 284 286 292 293 294 296 294 295 297 297 295 298 296 298 299 298 295 284 280 282 280 280 278 276 275 274 274 275 275 275 275 275 274 274 274 273 273 273 273 273 273